[[{"header":{"parameterUnit":"m.s-1","parameterCategory":1,"la1":31.0,"la2":29.5877,"lo1":-88.7671,"lo2":-86.6584,"dy":0.0162,"dx":0.0185,"nx":115,"ny":88,"refTime":"2026-05-10T12:00:00:Z","depth":0,"parameterNumber":2,"parameterNumberName":"U-component_of_WINDS"},"data":[0.0,0.0,0.0,0.0,0.0,0.0,0.0,0.0,0.0,0.0,0.0,0.0,0.0,0.0,0.0,0.0,0.0,0.0,0.0,0.0,0.0,0.0,0.0,0.0,0.0,0.0,0.0,0.0,0.0,0.0,0.0,0.0,0.0,0.0,0.0,0.0,0.0,0.0,0.0,0.0,0.0,0.0,0.0,0.0,0.0,0.0,0.0,0.0,0.0,0.0,0.0,0.0,0.0,0.0,0.0,0.0,0.0,0.0,0.0,0.0,0.0,0.0,0.0,0.0,0.0,0.0,0.0,0.0,0.0,0.0,0.0,0.0,0.0,0.0,0.0,0.0,0.0,0.0,0.0,0.0,0.0,0.0,0.0,0.0,0.0,0.0,0.0,0.0,0.0,0.0,0.0,0.0,0.0,0.0,0.0,0.0,0.0,0.0,0.0,0.0,0.0,0.0,0.0,0.0,0.0,0.0,0.0,0.0,0.0,0.0,0.0,0.0,0.0,0.0,0.0,0.0,0.0,0.0,0.0,0.0,0.0,0.0,0.0,0.0,0.0,0.0,0.0,0.0,0.0,0.0,0.0,0.0,0.0,0.0,0.0,0.0,0.0,0.0,0.0,0.0,0.0,0.0,0.0,0.0,0.0,0.0,0.0,0.0,0.0,0.0,0.0,0.0,0.0,0.0,0.0,0.0,0.0,0.0,0.0,0.0,0.0,0.0,0.0,0.0,0.0,0.0,0.0,0.0,0.0,0.0,0.0,0.0,0.0,0.0,0.0,0.0,0.0,0.0,0.0,0.0,0.0,0.0,0.0,0.0,0.0,0.0,0.0,0.0,0.0,0.0,0.0,0.0,0.0,0.0,0.0,0.0,0.0,0.0,0.0,0.0,0.0,0.0,0.0,0.0,0.0,0.0,0.0,0.0,0.0,0.0,0.0,0.0,0.0,0.0,0.0,0.0,0.0,0.0,0.0,0.0,0.0,0.0,0.0,0.0,0.0,0.0,0.0,0.0,0.0,0.0,0.0,0.0,0.0,0.0,0.0,0.0,0.0,0.0,0.0,0.0,0.0,0.0,0.0,0.0,0.0,0.0,0.0,0.0,0.0,0.0,0.0,0.0,0.0,0.0,0.0,0.0,0.0,0.0,0.0,0.0,0.0,0.0,0.0,0.0,0.0,0.0,0.0,0.0,0.0,0.0,0.0,0.0,0.0,0.0,0.0,0.0,0.0,0.0,0.0,0.0,0.0,0.0,0.0,0.0,0.0,0.0,0.0,0.0,0.0,0.0,0.0,0.0,0.0,0.0,0.0,0.0,0.0,0.0,0.0,0.0,0.0,0.0,0.0,0.0,0.0,0.0,0.0,0.0,0.0,0.0,0.0,0.0,0.0,0.0,0.0,0.0,0.0,0.0,0.0,0.0,0.0,0.0,0.0,0.0,0.0,0.0,0.0,0.0,0.0,0.0,0.0,0.0,0.0,0.0,0.0,0.0,0.0,0.0,0.0,0.0,0.0,0.0,0.0,0.0,0.0,0.0,0.0,0.0,0.0,0.0,0.0,0.0,0.0,0.0,0.0,0.0,0.0,0.0,0.0,0.0,0.0,0.0,0.0,0.0,0.0,0.0,0.0,0.0,0.0,0.0,0.0,0.0,0.0,0.0,0.0,0.0,0.0,0.0,0.0,0.0,0.0,0.0,0.0,0.0,0.0,0.0,0.0,0.0,0.0,0.0,0.0,0.0,0.0,0.0,0.0,0.0,0.0,0.0,0.0,0.0,0.0,0.0,0.0,0.0,0.0,0.0,0.0,0.0,0.0,0.0,0.0,0.0,0.0,0.0,0.0,0.0,0.0,0.0,0.0,0.0,0.0,0.0,0.0,0.0,0.0,0.0,0.0,0.0,0.0,0.0,0.0,0.0,0.0,0.0,0.0,0.0,0.0,0.0,0.0,0.0,0.0,0.0,0.0,0.0,0.0,0.0,0.0,0.0,0.0,0.0,0.0,0.0,0.0,0.0,0.0,0.0,0.0,0.0,0.0,0.0,0.0,0.0,0.0,0.0,0.0,0.0,0.0,0.0,0.0,0.0,0.0,0.0,0.0,0.0,0.0,0.0,0.0,0.0,0.0,0.0,0.0,0.0,0.0,0.0,0.0,0.0,0.0,0.0,0.0,0.0,0.0,0.0,0.0,0.0,0.0,0.0,0.0,0.0,0.0,0.0,0.0,0.0,0.0,0.0,0.0,0.0,0.0,0.0,0.0,0.0,0.0,0.0,0.0,0.0,0.0,0.0,0.0,0.0,0.0,0.0,0.0,0.0,0.0,0.0,0.0,0.0,0.0,0.0,0.0,0.0,0.0,0.0,0.0,0.0,0.0,0.0,0.0,0.0,0.0,0.0,0.0,0.0,0.0,0.0,0.0,0.0,0.0,0.0,0.0,0.0,0.0,0.0,0.0,0.0,0.0,0.0,0.0,0.0,0.0,0.0,0.0,0.0,0.0,0.0,0.0,0.0,0.0,0.0,0.0,0.0,0.0,0.0,0.0,0.0,0.0,0.0,0.0,0.0,0.0,0.0,0.0,0.0,0.0,0.0,0.0,0.0,0.0,0.0,0.0,0.0,0.0,0.0,0.0,0.0,0.0,0.0,0.0,0.0,0.0,0.0,0.0,0.0,0.0,0.0,0.0,0.0,0.0,0.0,0.0,0.0,0.0,0.0,0.0,0.0,0.0,0.0,0.0,0.0,0.0,0.0,0.0,0.0,0.0,0.0,0.0,0.0,0.0,0.0,0.0,0.0,0.0,0.0,0.0,0.0,0.0,0.0,0.0,0.0,0.0,0.0,0.0,0.0,0.0,0.0,0.0,0.0,0.0,0.0,0.0,0.0,0.0,0.0,0.0,0.0,0.0,0.0,0.0,0.0,0.0,0.0,0.0,0.0,0.0,0.0,0.0,0.0,0.0,0.0,0.0,0.0,0.0,0.0,0.0,0.0,0.0,0.0,0.0,0.0,0.0,0.0,0.0,0.0,0.0,0.0,0.0,0.0,0.0,0.0,0.0,0.0,0.0,0.0,0.0,0.0,0.0,0.0,0.0,0.0,0.0,0.0,0.0,0.0,0.0,0.0,0.0,0.0,0.0,0.0,0.0,0.0,0.0,0.0,0.0,0.0,0.0,0.0,0.0,0.0,0.0,0.0,0.0,0.0,0.0,0.0,0.0,0.0,0.0,0.0,0.0,0.0,0.0,0.0,0.0,0.0,0.0,0.0,0.0,0.0,0.0,0.0,0.0,0.0,0.0,0.0,0.0,0.0,0.0,0.0,0.0,0.0,0.0,0.0,0.0,0.0,0.0,0.0,0.0,0.0,0.0,0.0,0.0,0.0,0.0,0.0,0.0,0.0,0.0,0.0,0.0,0.0,0.0,0.0,0.0,0.0,0.0,0.0,0.0,0.0,0.0,0.0,0.0,0.0,0.0,0.0,0.0,0.0,0.0,0.0,0.0,0.0,0.0,0.0,0.0,0.0,0.0,0.0,0.0,0.0,0.0,0.0,0.0,0.0,0.0,0.0,0.0,0.0,0.0,0.0,0.0,0.0,0.0,0.0,0.0,0.0,0.0,0.0,0.0,0.0,0.0,0.0,0.0,0.0,0.0,0.0,0.0,0.0,0.0,0.0,0.0,0.0,0.0,0.0,0.0,0.0,0.0,0.0,0.0,0.0,0.0,0.0,0.0,0.0,0.0,0.0,0.0,0.0,0.0,0.0,0.0,0.0,0.0,0.0,0.0,0.0,0.0,0.0,0.0,0.0,0.0,0.0,0.0,0.0,0.0,0.0,0.0,0.0,0.0,0.0,0.0,0.0,0.0,0.0,0.0,0.0,0.0,0.0,0.0,0.0,0.0,0.0,0.0,0.0,0.0,0.0,0.0,0.0,0.0,0.0,0.0,0.0,0.0,0.0,0.0,0.0,0.0,0.0,0.0,0.0,0.0,0.0,0.0,0.0,0.0,0.0,0.0,0.0,0.0,0.0,0.0,0.0,0.0,0.0,0.0,0.0,0.0,0.0,0.0,0.0,0.0,0.0,0.0,0.0,0.0,0.0,0.0,0.0,0.0,0.0,0.0,0.0,0.0,0.0,0.0,0.0,0.0,0.0,0.0,0.0,0.0,0.0,0.0,0.0,0.0,0.0,0.0,0.0,0.0,0.0,0.0,0.0,0.0,0.0,0.0,0.0,0.0,0.0,0.0,0.0,0.0,0.0,0.0,0.0,0.0,0.0,0.0,0.0,0.5059,0.0,0.0,0.0,0.0,0.0,0.0,0.0,0.0,0.0,0.0,0.0,0.0,0.0,0.0,0.0,0.0,0.0,0.0,0.0,0.0,0.0,0.0,0.0,0.0,0.0,0.0,0.0,0.0,0.0,0.0,0.0,0.0,0.0,0.0,0.0,0.0,0.0,0.0,0.0,0.0,0.0,0.0,0.0,0.0,0.0,0.0,0.0,0.0,0.0,0.0,0.0,0.0,0.0,0.0,0.0,0.0,0.0,0.0,0.0,0.0,0.0,0.0,0.0,0.0,0.0,0.0,0.0,0.0,0.0,0.0,0.0,0.0,0.0,0.0,0.0,0.0,0.0,0.0,0.0,0.0,0.0,0.0,0.0,0.0,0.0,0.0,0.0,0.0,0.0,0.0,0.0,0.0,0.0,0.0,0.0,0.0,0.0,0.0,0.0,0.0,0.0,0.0,0.0,0.0,0.0,0.0,0.0,0.0,0.0,0.0,0.0,0.0,0.2422,0.375,0.375,0.0,0.0,0.0,0.0,0.0,0.0,0.0,0.0,0.0,0.0,0.0,0.0,0.0,0.0,0.0,0.0,0.0,0.0,0.0,0.0,0.0,0.0,0.0,0.0,0.0,0.0,0.0,0.0,0.0,0.0,0.0,0.0,0.0,0.0,0.0,0.0,0.0,0.0,0.0,0.0,0.0,0.0,0.0,0.0,0.0,0.0,0.0,0.0,0.0,0.0,0.0,0.0,0.0,0.0,0.0,0.0,0.0,0.0,0.0,0.0,0.0,0.0,0.0,0.0,0.0,0.0,0.0,0.0,0.0,0.0,0.0,0.0,0.0,0.0,0.0,0.0,0.0,0.0,0.0,0.0,0.0,0.0,0.0,0.0,0.0,0.0,0.0,0.0,0.0,0.0,0.0,0.0,0.0,0.0,0.0,0.0,0.0,0.0,0.0,0.0,0.0,0.0,0.0,0.0,0.0,0.0,0.0,0.0,0.0,0.0,0.0,0.0,0.2046,0.285,0.3066,0.0,0.0,0.0,0.0,0.0,0.0,0.0,0.0,0.0,0.0,0.0,0.0,0.0,0.0,0.0,0.0,0.0,0.0,0.0,0.0,0.0,0.0,0.0,0.0,0.0,0.0,0.0,0.0,0.0,0.0,0.0,0.0,0.0,0.0,0.0,0.0,0.0,0.0,0.0,0.0,0.0,0.0,0.0,0.0,0.0,0.0,0.0,0.0,0.0,0.0,0.0,0.0,0.0,0.0,0.0,0.0,0.0,0.0,0.0,0.0,0.0,0.0,0.0,0.0,0.0,0.0,0.0,0.0,0.0,0.0,0.0,0.0,0.0,0.0,0.0,0.0,0.0,0.0,0.0,0.0,0.0,0.0,0.0,0.0,0.0,0.0,0.0,0.0,0.0,0.0,0.0,0.0,0.0,0.0,0.0,0.0,0.0,0.0,0.0,0.0,0.0,0.0,0.0,0.0,0.0,0.0,0.0,0.0,0.0,0.0,0.0954,0.2938,0.3155,0.0,0.4316,0.0,0.0,0.0,0.0,0.0,0.0,0.0,0.0,0.0,0.0,0.0,0.0,0.0,0.0,0.0,0.0,0.0,0.0,0.0,0.0,0.0,0.0,0.0,0.0,0.0,0.0,0.0,0.0,0.0,0.0,0.0,0.0,0.0,0.0,0.0,0.0,0.0,0.0,0.0,0.0,0.0,0.0,0.0,0.0,0.0,0.0,0.0,0.0,0.0,0.0,0.0,0.0,0.0,0.0,0.0,0.0,0.0,0.0,0.0,0.0,0.0,0.0,0.0,0.0,0.0,0.0,0.0,0.0,0.0,0.0,0.0,0.0,0.0,0.0,0.0,0.0,0.0,0.0,0.0,0.0,0.0,0.0,0.0,0.0,0.0,0.0,0.0,0.0,0.0,0.0,0.0,0.0,0.0,0.0,0.0,0.0,0.0,0.0,0.0,0.0,0.0,0.0,0.0,0.0,0.0,0.0,0.0,0.0,0.0,0.0,0.2382,0.3287,0.352,0.3904,0.0,0.0,0.0,0.0,0.0,0.0,0.0,0.0,0.0,0.0,0.0,0.0,0.0,0.0,0.0,0.0,0.0,0.0,0.0,0.0,0.0,0.0,0.0,0.0,0.0,0.0,0.0,0.0,0.0,0.0,0.0,0.0,0.0,0.0,0.0,0.0,0.0,0.0,0.0,0.0,0.0,0.0,0.0,0.0,0.0,0.0,0.0,0.0,0.0,0.0,0.0,0.0,0.0,0.0,0.0,0.0,0.0,0.0,0.0,0.0,0.0,0.0,0.0,0.0,0.0,0.0,0.0,0.0,0.0,0.0,0.0,0.0,0.0,0.0,0.0,0.0,0.0,0.0,0.0,0.0,0.0,0.0,0.0,0.0,0.0,0.0,0.0,0.0,0.0,0.0,0.0,0.0,0.0,0.0,0.0,0.0,0.0,0.0,0.0,0.0,0.0,0.0,0.0,0.0,0.0,0.0,0.0,0.0,0.0,0.0,0.33,0.33,0.3306,0.3595,0.388,0.4152,0.0,0.0,0.0,0.0,0.0,0.0,0.0,0.0,0.0,0.0,0.0,0.0,0.0,0.0,0.0,0.0,0.0,0.0,0.0,0.0,0.0,0.0,0.0,0.0,0.0,0.0,0.0,0.0,0.0,0.0,0.0,0.0,0.0,0.0,0.0,0.0,0.0,0.0,0.0,0.0,0.0,0.0,0.0,0.0,0.0,0.0,0.0,0.0,0.0,0.0,0.0,0.0,0.0,0.0,0.0,0.0,0.0,0.0,0.0,0.0,0.0,0.0,0.0,0.0,0.0,0.0,0.0,0.0,0.0,0.0,0.0,0.0,0.0,0.0,0.0,0.0,0.0,0.0,0.0,0.0,0.0,0.0,0.0,0.0,0.0,0.0,0.0,0.0,0.0,0.0,0.0,0.0,0.0,0.0,0.0,0.0,0.0,0.0,0.0,0.0,0.0,0.0,0.0,0.0,0.0,0.0,0.0,0.0,0.0,0.33,0.33,0.3283,0.3317,0.334,0.0,0.0,0.0,0.0,0.0,0.0,0.0,0.0,0.0,0.0,0.0,0.0,0.0,0.0,0.0,0.0,0.0,0.0,0.0,0.0,0.0,0.0,0.0,0.0,0.0,0.0,0.0,0.0,0.0,0.0,0.0,0.0,0.0,0.0,0.0,0.0,0.0,0.0,0.0,0.0,0.0,0.0,0.0,0.0,0.0,0.0,0.0,0.0,0.0,0.0,0.0,0.0,0.0,0.0,0.0,0.0,0.0,0.0,0.0,0.0,0.0,0.0,0.0,0.0,0.0,0.0,0.0,0.0,0.0,0.0,0.0,0.0,0.0,0.0,0.0,0.0,0.0,0.0,0.0,0.0,0.0,0.0,0.0,0.0,0.0,0.0,0.0,0.0,0.0,0.0,0.0,0.0,0.0,0.0,0.0,0.0,0.0,0.0,0.0,0.0,0.0,0.0,0.0,0.0,0.0,0.0,0.0,0.0,0.0,0.3168,0.33,0.3149,0.2854,0.2479,0.2791,0.0,0.0,0.0,0.0,0.0,0.0,0.0,0.0,0.0,0.0,0.0,0.0,0.0,0.0,0.0,0.0,0.0,0.0,0.0,0.0,0.0,0.0,0.0,0.0,0.0,0.0,0.0,0.0,0.0,0.0,0.0,0.0,0.0,0.0,0.0,0.0,0.0,0.0,0.0,0.0,0.0,0.0,0.0,0.0,0.0,0.0,0.0,0.0,0.0,0.0,0.0,0.0,0.0,0.0,0.0,0.0,0.0,0.0,0.0,0.0,0.0,0.0,0.0,0.0,0.0,0.0,0.0,0.0,0.0,0.0,0.0,0.0,0.0,0.0,0.0,0.0,0.0,0.0,0.0,0.0,0.0,0.0,0.0,0.0,0.0,0.0,0.0,0.0,0.0,0.0,0.0,0.0,0.0,0.0,0.0,0.0,0.0,0.0,0.0,0.0,0.0,0.0,0.0,0.0,0.0,0.0,0.0,0.0,0.0,0.2708,0.0,0.2976,0.0,0.2259,0.243,0.0,0.0,0.0,0.0,0.0,0.0,0.0,0.0,0.0,0.0,0.0,0.0,0.0,0.0,0.0,0.0,0.0,0.0,0.0,0.0,0.0,0.0,0.0,0.0,0.0,0.0,0.0,0.0,0.0,0.0,0.0,0.0,0.0,0.0,0.0,0.0,0.0,0.0,0.0,0.0,0.0,0.0,0.0,0.0,0.0,0.0,0.0,0.0,0.0,0.0,0.0,0.0,0.0,0.0,0.0,0.0,0.0,0.0,0.0,0.0,0.0,0.0,0.0,0.0,0.0,0.0,0.0,0.0,0.0,0.0,0.0,0.0,0.0,0.0,0.0,0.0,0.0,0.0,0.0,0.0,0.0,0.0,0.0,0.0,0.0,0.0,0.0,0.0,0.0,0.0,0.0,0.0,0.0,0.0,0.0,0.0,0.0,0.0,0.0,0.0,0.0,0.0,0.0,0.0,0.0,0.0,0.0,0.0,0.0603,0.1738,0.2785,0.2841,0.1812,0.2728,0.2266,0.0,0.0,0.0,0.0,0.0,0.0,0.0,0.0,0.0,0.0,0.0,0.0,0.0,0.0,0.0,0.0,0.0,0.0,0.0,0.0,0.0,0.0,0.0,0.0,0.0,0.0,0.0,0.0,0.0,0.0,0.0,0.0,0.0,0.0,0.0,0.0,0.0,0.0,0.0,0.0,0.0,0.0,0.0,0.0,0.0,0.0,0.0,0.0,0.0,0.0,0.0,0.0,0.0,0.0,0.0,0.0,0.0,0.0,0.0,0.0,0.0,0.0,0.0,0.0,0.0,0.0,0.0,0.0,0.0,0.0,0.0,0.0,0.0,0.0,0.0,0.0,0.0,0.0,0.0,0.0,0.0,0.0,0.0,0.0,0.0,0.0,0.0,0.0,0.0,0.0,0.0,0.0,0.0,0.0,0.0,0.0,0.0,0.0,0.0,0.0,0.0,0.0,0.0,0.0,0.0,0.0,0.0,0.0,0.0,0.3198,0.3272,0.3311,0.3338,0.2826,0.2402,0.0,0.0,0.0,0.0,0.0,0.0,0.0,0.0,0.0,0.0,0.0,0.0,0.0,0.0,0.0,0.0,0.0,0.0,0.0,0.0,0.0,0.0,0.0,0.0,0.0,0.0,0.0,0.0,0.0,0.0,0.0,0.0,0.0,0.0,0.0,0.0,0.0,0.0,0.0,0.0,0.0,0.0,0.0,0.0,0.0,0.0,0.0,0.0,0.0,0.0,0.0,0.0,0.0,0.0,0.0,0.0,0.0,0.0,0.0,0.0,0.0,0.0,0.0,0.0,0.0,0.0,0.0,0.0,0.0,0.0,0.0,0.0,0.0,0.0,0.0,0.0,0.0,0.0,0.0,0.0,0.0,0.0,0.0,0.0,0.0,0.0,0.0,0.0,0.0,0.0,0.0,0.0,0.0,0.0,0.0,0.0,0.0,0.0,0.0,0.0,0.0,0.0,0.0,0.0,0.0,0.0,0.0,0.0,0.0,0.3496,0.3376,0.3502,0.3932,0.3186,0.301,0.3522,0.0,0.0,0.0,0.0,0.0,0.0,0.0,0.0,0.0,0.0,0.0,0.0,0.0,0.0,0.0,0.0,0.0,0.0,0.0,0.0,0.0,0.0,0.0,0.0,0.0,0.0,0.0,0.0,0.0,0.0,0.0,0.0,0.0,0.0,0.0,0.0,0.0,0.0,0.0,0.0,0.0,0.0,0.0,0.0,0.0,0.0,0.0,0.0,0.0,0.0,0.0,0.0,0.0,0.0,0.0,0.0,0.0,0.0,0.0,0.0,0.0,0.0,0.0,0.0,0.0,0.0,0.0,0.0,0.0,0.0,0.0,0.0,0.0,0.0,0.0,0.0,0.0,0.0,0.0,0.0,0.0,0.0,0.0,0.0,0.0,0.0,0.0,0.0,0.0,0.0,0.0,0.0,0.0,0.0,0.0,0.0,0.0,0.0,0.0,0.0,0.0,0.0,0.0,0.0,0.0,0.0,0.0,0.0,0.289,0.3161,0.3436,0.369,0.3704,0.3934,0.0,0.0,0.0,0.0,0.0,0.0,0.0,0.0,0.0,0.0,0.0,0.0,0.0,0.0,0.0,0.0,0.0,0.0,0.0,0.0,0.0,0.0,0.0,0.0,0.0,0.0,0.0,0.0,0.0,0.0,0.0,0.0,0.0,0.0,0.0,0.0,0.0,0.0,0.0,0.0,0.0,0.0,0.0,0.0,0.0,0.0,0.0,0.0,0.0,0.0,0.0,0.0,0.0,0.0,0.0,0.0,0.0,0.0,0.0,0.0,0.0,0.0,0.0,0.0,0.0,0.0,0.0,0.0,0.0,0.0,0.0,0.0,0.0,0.0,0.0,0.0,0.0,0.0,0.0,0.0,0.0,0.0,0.0,0.0,0.0,0.0,0.0,0.0,0.0,0.0,0.0,0.0,0.0,0.0,0.0,0.0,0.0,0.0,0.0,0.0,0.0,0.0,0.0,0.0,0.0,0.0,0.0,0.0,0.0,0.2823,0.3134,0.3413,0.362,0.3775,0.391,0.0,0.0,0.0,0.0,0.0,0.0,0.0,0.0,0.0,0.0,0.0,0.0,0.0,0.0,0.0,0.0,0.0,0.0,0.0,0.0,0.0,0.0,0.0,0.0,0.0,0.0,0.0,0.0,0.0,0.0,0.0,0.0,0.0,0.0,0.0,0.0,0.0,0.0,0.0,0.0,0.0,0.0,0.0,0.0,0.0,0.0,0.0,0.0,0.0,0.0,0.0,0.0,0.0,0.0,0.0,0.0,0.0,0.0,0.0,0.0,0.0,0.0,0.0,0.0,0.0,0.0,0.0,0.0,0.0,0.0,0.0,0.0,0.0,0.0,0.0,0.0,0.0,0.0,0.0,0.0,0.0,0.0,0.0,0.0,0.0,0.0,0.0,0.0,0.0,0.0,0.0,0.0,0.0,0.0,0.0,0.0,0.0,0.0,0.0,0.0,0.0,0.0,0.0,0.0,0.0,0.0,0.0,0.0,0.2411,0.2799,0.303,0.3202,0.3374,0.3557,0.3814,0.0,0.0,0.0,0.0,0.0,0.0,0.0,0.0,0.0,0.0,0.0,0.0,0.0,0.0,0.0,0.0,0.0,0.0,0.0,0.0,0.0,0.0,0.0,0.0,0.0,0.0,0.0,0.0,0.0,0.0,0.0,0.0,0.0,0.0,0.0,0.0,0.0,0.0,0.0,0.0,0.0,0.0,0.0,0.0,0.0,0.0,0.0,0.0,0.0,0.0,0.0,0.0,0.0,0.0,0.0,0.0,0.0,0.0,0.0,0.0,0.0,0.0,0.0,0.0,0.0,0.0,0.0,0.0,0.0,0.0,0.0,0.0,0.0,0.0,0.0,0.0,0.0,0.0,0.0,0.0,0.0,0.0,0.0,0.0,0.0,0.0,0.0,0.0,0.0,0.0,0.0,0.0,0.0,0.0,0.0,0.0,0.0,0.0,0.0,0.0,0.0,0.0,0.0,0.0,0.0,0.0,0.0,0.0,0.2124,0.2762,0.2829,0.2935,0.3085,0.3272,0.3679,0.0,0.0,0.0,0.0,0.0,0.0,0.0,0.0,0.0,0.0,0.0,0.0,0.0,0.0,0.0,0.0,0.0,0.0,0.0,0.0,0.0,0.0,0.0,0.0,0.0,0.0,0.0,0.0,0.0,0.0,0.0,0.0,0.0,0.0,0.0,0.0,0.0,0.0,0.0,0.0,0.0,0.0,0.0,0.0,0.0,0.0,0.0,0.0,0.0,0.0,0.0,0.0,0.0,0.0,0.0,0.0,0.0,0.0,0.0,0.0,0.0,0.0,0.0,0.0,0.0,0.0,0.0,0.0,0.0,0.0,0.0,0.0,0.0,0.0,0.0,0.0,0.0,0.0,0.0,0.0,0.0,0.0,0.0,0.0,0.0,0.0,0.0,0.0,0.0,0.0,0.0,0.0,0.0,0.0,0.0,0.0,0.0,0.0,0.0,0.0,0.0,0.0,0.0,0.0,0.0,0.0,0.0,0.0,0.2487,0.2624,0.2651,0.2749,0.2935,0.3492,0.3783,0.0,0.0,0.0,0.0,0.0,0.0,0.0,0.0,0.0,0.0,0.0,0.0,0.0,0.0,0.0,0.0,0.0,0.0,0.0,0.0,0.0,0.0,0.0,0.0,0.0,0.0,0.0,0.0,0.0,0.0,0.0,0.0,0.0,0.0,0.0,0.0,0.0,0.0,0.0,0.0,0.0,0.0,0.0,0.0,0.0,0.0,0.0,0.0,0.1482,0.0,0.0,0.0,0.0,0.0,0.0,0.0,0.0,0.0,0.0,0.0,0.0,0.0,0.0,0.0,0.0,0.0,0.0,0.0,0.0,0.0,0.0,0.0,0.0,0.0,0.0,0.0,0.0,0.0,0.0,0.0,0.0,0.0,0.0,0.0,0.0,0.0,0.0,0.0,0.0,0.0,0.0,0.0,0.0,0.0,0.0,0.0,0.0,0.0,0.0,0.0,0.0,0.0,0.0,0.0,0.0,0.0,0.0,0.0,0.2651,0.2747,0.2747,0.2823,0.3006,0.3485,0.3707,0.0,0.0,0.0,0.0,0.0,0.0,0.0,0.0,0.0,0.0,0.0,0.0,0.0,0.0,0.0,0.0,0.0,0.0,0.0,0.0,0.0,0.0,0.0,0.0,0.0,0.0,0.0,0.0,0.0,0.0,0.0,0.0,0.0,0.0,0.0,0.0,0.0,0.0,0.0,0.0,0.0,0.0,0.0,0.0,0.0,0.0,0.0,0.0,0.0,0.0,0.0,0.0,0.0,0.0,0.0,0.0,0.0,0.0,0.0,0.0,0.0,0.0,0.0,0.0,0.0,0.0,0.0,0.0,0.0,0.0,0.0,0.0,0.0,0.0,0.0,0.0,0.0,0.0,0.0,0.0,0.0,0.0,0.0,0.0,0.0,0.0,0.0,0.0,0.0,0.0,0.0,0.0,0.0,0.0,0.0,0.0,0.0,0.0,0.0,0.0,0.0,0.0,0.0,0.0,0.0,0.0,0.0,0.2719,0.2704,0.2878,0.2935,0.2996,0.3069,0.3399,0.3571,0.3561,0.0,0.0,0.0,0.0,0.0,0.0,0.0,0.0,0.0,0.0,0.0,0.0,0.0,0.0,0.0,0.0,0.0,0.0,0.0,0.0,0.0,0.0,0.0,0.0,0.0,0.0,0.0,0.0,0.0,0.0,0.0,0.0,0.0,0.0,0.0,0.0,0.0,0.0,0.0057,0.0023,0.0,0.0,0.0,0.0,0.0,0.0,0.0,0.0,0.0364,0.0,0.0,0.0,0.0,0.0,0.0,0.0,0.0,0.0,0.0,0.0,0.0,0.0,0.0,0.0,0.0,0.0,0.0,0.0,0.0,0.0,0.0,0.0,0.0,0.0,0.0,0.0,0.0,0.0,0.0,0.0,0.0,0.0,0.0,0.0,0.0,0.0,0.0,0.0,0.0,0.0,0.0,0.0,0.0,0.0,0.0,0.0,0.0,0.0,0.0,0.0,0.0,0.0,0.0,0.0,0.0,0.3025,0.2767,0.2678,0.281,0.3081,0.3132,0.2956,0.3266,0.3401,0.3367,0.0,0.0,0.0,0.0,0.0,0.0,0.0,0.0,0.0,0.0,0.0,0.0,0.0,0.0,0.0,0.0,0.0,0.0,0.0,0.0,0.0,0.0,0.0,0.0,0.0,0.0,0.0,0.0,0.0,0.0,0.0,0.0,0.0,0.0,0.0,0.0,0.0,0.0,0.0,0.0106,0.0101,0.0,0.0,0.0,0.0,0.0,0.0,0.0,0.0,0.0031,0.0,0.0,0.0,0.0,0.0,0.0,0.0,0.0,0.0,0.0,0.0,0.0,0.0,0.0,0.0,0.0,0.0,0.0,0.0,0.0,0.0,0.0,0.0,0.0,0.0,0.0,0.0,0.0,0.0,0.0,0.0,0.0,0.0,0.0,0.0,0.0,0.0,0.0,0.0,0.0,0.0,0.0,0.0,0.0,0.0,0.0,0.0,0.0,0.0,0.0,0.0,0.0,0.0,0.0,0.0,0.2825,0.2953,0.2953,0.2967,0.3032,0.3108,0.3101,0.3266,0.3323,0.0,0.0,0.0,0.0,0.0,0.0,0.0,0.0,0.0,0.0,0.0,0.0,0.0,0.0,0.0,0.0,0.0,0.0,0.0,0.0,0.0,0.0,0.0,0.0,0.0,0.0,0.0,0.0,0.0,0.0,0.0,0.0,0.0,0.0,0.0,0.0,0.0,0.0,0.0,0.0,0.012,-0.0112,-0.0425,0.0,0.0,0.0,0.0,0.0,0.0,-0.054,-0.0836,0.0,0.0,0.0,0.0,0.0,0.0,0.0,0.0,0.0,0.0,0.0,0.0,0.0,0.0,0.0,0.0,0.0,0.0,0.0,0.0,0.0,0.0,0.0,0.0,0.0,0.0,0.0,0.0,0.0,0.0,0.0,0.0,0.0,0.0,0.0,0.0,0.0,0.0,0.0,0.0,0.0,0.0,0.0,0.0,0.0,0.0,0.0,0.0,0.0,0.0,0.0,0.0,0.0,0.0,0.0,0.2741,0.3051,0.3131,0.3046,0.2996,0.3061,0.3212,0.3268,0.33,0.0,0.0,0.0,0.0,0.0,0.0,0.0,0.0,0.0,0.0,0.0,0.0,0.0,0.0,0.0,0.0,0.0,0.0,0.0,0.0,0.0,0.0,0.0,0.0,0.0,0.0,0.0,0.0,0.0,0.0,0.0,0.0,0.0,0.0,0.0,0.0,0.0,0.0,0.0,0.0,0.0,-0.0352,-0.0836,-0.0515,0.0,0.0,0.0,0.0,-0.0406,-0.1226,0.0,0.0,0.0,0.0,0.0,0.0,0.0,0.0,0.0,0.0,0.0,0.0,0.0,0.0,0.0,0.0,0.0,0.0,0.0,0.0,0.0,0.0,0.0,0.0,0.0,0.0,0.0,0.0,0.0,0.0,0.0,0.0,0.0,0.0,0.0,0.0,0.0,0.0,0.0,0.0,0.0,0.0,0.0,0.0,0.0,0.0,0.0,0.0,0.0,0.0,0.0,0.0,0.0,0.0,0.0,0.0,0.2792,0.272,0.274,0.2835,0.3117,0.3162,0.2942,0.3167,0.33,0.0,0.0,0.0,0.0,0.0,0.0,0.0,0.0,0.0,0.0,0.0,0.0,0.0,0.0,0.0,0.0,0.0,0.0,0.0,0.0,0.0,0.0,0.0,0.0,0.0,0.0,0.0,0.0,0.0,0.0,0.0,0.0,0.0,0.0,0.0,0.0,0.0,0.0,0.0,0.0,0.0,-0.0826,-0.0886,-0.0987,-0.0989,0.0,0.0,-0.0161,-0.0744,-0.1375,0.0,0.0,0.0,0.0,0.0,0.0,0.0,0.0,0.0,0.0,0.0,0.0,0.0,0.0,0.0,0.0,0.0,0.0,0.0,0.0,0.0,0.0,0.0,0.0,0.0,0.0,0.0,0.0,0.0,0.0,0.0,0.0,0.0,0.0,0.0,0.0,0.0,0.0,0.0,0.0,0.0,0.0,0.0,0.0,0.0,0.0,0.0,0.0,0.0,0.0,0.0,0.0,0.0,0.0,0.0,0.2622,0.2695,0.2632,0.2656,0.2802,0.2936,0.3015,0.3022,0.3126,0.3214,0.0,0.0,0.0,0.0,0.0,0.0,0.0,0.0,0.0,0.0,0.0,0.0,0.0,0.0,0.0,0.0,0.0,0.0,0.0,0.0,0.0,0.0,0.0,0.0,0.0,0.0,0.0,0.0,0.0,0.0,0.0,0.0,0.0,0.0,0.0,0.0,0.0,0.0,0.0,0.0,0.0,0.0,-0.0842,-0.1064,0.0,0.0,0.0,-0.0609,-0.0854,0.0,0.0,0.0,0.0,0.0,0.0,0.0,0.0,0.0,0.0,0.0,0.0,0.0,0.0,0.0,0.0,0.0,0.0,0.0,0.0,0.0,0.0,0.0,0.0,0.0,0.0,0.0,0.0,0.0,0.0,0.0,0.0,0.0,0.0,0.0,0.0,0.0,0.0,0.0,0.0,0.0,0.0,0.0,0.0,0.0,0.0,0.0,0.0,0.0,0.0,0.0,0.0,0.0,0.0,0.0,0.0,0.0,0.259,0.259,0.2654,0.2749,0.2834,0.2925,0.304,0.3111,0.0,0.0,0.0,0.0,0.0,0.0,0.0,0.0,0.0,0.0,0.0,0.0,0.0,0.0,0.0,0.0,0.0,0.0,0.0,0.0,0.0,0.0,0.0,0.0,0.0,0.0,0.0,0.0,0.0,0.0,0.0,0.0,0.0,0.0,0.0,0.0,0.0,0.0,0.0,0.0,0.0,0.0,-0.05,-0.0856,-0.1226,-0.1634,0.0,0.0,-0.121,-0.1134,-0.1516,-0.1797,0.0,0.0,0.0,0.0,0.0,0.0,0.0,0.0,0.0,0.0,0.0,0.0,0.0,0.0,0.0,0.0,0.0,0.0,0.0,0.0,0.0,0.0,0.0,0.0,0.0,0.0,0.0,0.0,0.0,0.0,0.0,0.0,0.0,0.0,0.0,0.0,0.0,0.0,0.0,0.0,0.0,0.0,0.0,0.0,0.0,0.0,0.0,0.0,0.0,0.0,0.0,0.0,0.0,0.0,0.0,0.2573,0.259,0.261,0.2617,0.2923,0.3031,0.2933,0.3162,0.33,0.0,0.0,0.0,0.0,0.0,0.0,0.0,0.0,0.0,0.0,0.0,0.0,0.0,0.0,0.0,0.0,0.0,0.0,0.0,0.0,0.0,0.0,0.0,0.0,0.0,0.0,0.0,0.0,0.0,0.0,0.0,0.0,0.0,0.0,0.0,0.0,0.0,0.0,0.0,0.0,0.0,-0.1279,-0.0945,-0.1616,-0.2143,0.0,0.0,-0.2034,-0.1783,-0.1762,-0.1797,-0.1803,0.0,0.0,0.0,0.0,0.0,0.0,0.0,0.0,0.0,0.0,0.0,0.0,0.0,0.0,0.0,0.0,0.0,0.0,0.0,0.0,0.0,0.0,0.0,0.0,0.0,0.0,0.0,0.0,0.0,0.0,0.0,0.0,0.0,0.0,0.0,0.0,0.0,0.0,0.0,0.0,0.0,0.0,0.0,0.0,0.0,0.0,0.0,0.0,0.0,0.0,0.0,0.0,0.0,0.2022,0.2338,0.2444,0.2474,0.2474,0.2683,0.2828,0.2901,0.3084,0.3173,0.0,0.0,0.0,0.0,0.0,0.0,0.0,0.0,0.0,0.0,0.0,0.0,0.0,0.0,0.0,0.0,0.0,0.0,0.0,0.0,0.0,0.0,0.0,0.0,0.0,0.0,0.0,0.0,0.0634,0.0885,0.0888,0.0,0.0,0.0,0.0,0.0,0.0,0.0,0.0,0.0,0.0,-0.0996,-0.112,-0.1492,0.0,0.0,-0.2335,-0.2241,-0.2341,-0.204,-0.2028,-0.2735,-0.2259,0.0,0.0,0.0,0.0,0.0,0.0,0.0,0.0,0.0,0.0,0.0,0.0,0.0,0.0,0.0,0.0,0.0,0.0,0.0,0.0,0.0,0.0,0.0,0.0,0.0,0.0,0.0,0.0,0.0,0.0,0.0,0.0,0.0,0.0,0.0,0.0,0.0,0.0,0.0,0.0,0.0,0.0,0.0,0.0,0.0,0.0,0.0,0.0,0.0,0.0,0.0,0.0,0.1948,0.2199,0.2321,0.2409,0.241,0.2573,0.2719,0.2875,0.3059,0.3145,0.0,0.0,0.0,0.0,0.0,0.0,0.0,0.0,0.0,0.0,0.0,0.0,0.0,0.0,0.0,0.0,0.0,0.0,0.0,0.0,0.0,0.0,0.0,0.0,0.0,0.0,0.0,0.0,0.0768,0.0869,0.0773,0.0,0.0,0.0,0.0,0.0,0.0,0.0,0.0,0.0,0.0,-0.0809,-0.112,-0.1262,-0.1458,-0.1834,-0.2143,-0.2438,-0.2665,-0.2345,-0.2282,-0.2897,0.0,0.0,0.0,0.0,0.0,0.0,0.0,0.0,0.0,0.0,0.0,0.0,0.0,0.0,0.0,0.0,0.0,0.0,0.0,0.0,0.0,0.0,0.0,0.0,0.0,0.0,0.0,0.0,0.0,0.0,0.0,0.0,0.0,0.0,0.0,0.0,0.0,0.0,0.0,0.0,0.0,0.0,0.0,0.0,0.0,0.0,0.0,0.0,0.0,0.0,0.0,0.0,0.0,0.136,0.2182,0.2335,0.2414,0.2407,0.2649,0.2796,0.2814,0.3126,0.3218,0.3111,0.0,0.0,0.0,0.0,0.0,0.0,0.0,0.0,0.0,0.0,0.0,0.0,0.0,0.0,0.0,0.0,0.0,0.0,0.0,0.0,0.0,0.0,0.0,0.0,0.0,0.0,0.0867,0.0884,0.0762,0.0,0.0,0.0,0.0,0.0,0.0,0.0,0.0,0.0,0.0,-0.05,-0.0885,-0.09,-0.0905,-0.0728,-0.021,-0.1542,-0.2653,-0.2654,-0.2679,-0.2489,0.0,0.0,0.0,0.0,0.0,0.0,0.0,0.0,0.0,0.0,0.0,0.0,0.0,0.0,0.0,0.0,0.0,0.0,0.0,0.0,0.0,0.0,0.0,0.0,0.0,0.0,0.0,0.0825,0.0,0.0,0.0,0.0,0.0,0.0,0.0,0.0,0.0,0.0,0.0,0.0,0.2695,0.2534,0.0,0.0,0.0,0.0,0.0,0.0,0.0,0.0,0.0,0.0,0.0,0.0,0.1689,0.2046,0.2196,0.2322,0.2407,0.2571,0.2715,0.28,0.2914,0.3015,0.308,0.0,0.0,0.0,0.0,0.0,0.0,0.0,0.0,0.0,0.0,0.0,0.0,0.0,0.0,0.0,0.0,0.0,0.0,0.0,0.0,0.0,0.0,0.0,0.0,0.0,0.0885,0.0,0.0,0.0,0.0,0.0,0.0,0.0,0.0,0.0,0.0,0.0,0.0,0.0,-0.0172,-0.0309,-0.0292,-0.0312,-0.0428,0.0,0.0,0.0,0.0,0.0,0.0,0.0,0.0,0.0,0.0,0.0,0.0,0.0,0.0,-0.424,-0.3379,-0.3876,-0.4034,-0.2773,0.0,0.0,0.0,0.0,0.0,0.0,0.0,0.0,0.0,0.0,0.0,0.0,0.0,0.0,0.2414,0.0,0.1361,0.0,0.0,0.0,0.0,0.0,0.0,0.0,0.0,0.3644,0.3456,0.2602,0.2549,0.2574,0.0,0.2886,0.2405,0.0,0.0,0.0,0.0,0.0,0.0,0.0,0.0,0.2373,0.2522,0.2655,0.2702,0.2677,0.2768,0.2787,0.273,0.2774,0.2843,0.2978,0.2782,0.2641,0.0,0.0,0.0,0.0,0.0,0.0,0.0,0.0,0.0,0.0,0.0,0.0,0.0,0.0,0.0,0.0,0.0,0.0,0.0,0.0,0.0,0.0,0.0,0.0779,0.0,0.0,0.0,0.0,0.0,0.0,0.0,0.0,0.0,0.0,0.0,0.0,0.0,0.0,0.0,0.0,0.0,0.0,0.0,0.0,0.0,0.0,0.0,-0.2688,-0.2688,-0.2688,-0.2655,-0.253,-0.2953,-0.3369,-0.3529,0.0,0.0,-0.3729,-0.4315,-0.4401,-0.2977,-0.3086,-0.3429,-0.3423,-0.4052,-0.4676,0.0,0.0,0.0,0.0,0.0,0.0,0.0,0.0,0.4321,0.4589,0.0,0.387,0.0,0.0,0.0,0.0,0.0,0.4902,0.0,0.0,0.4146,0.3848,0.2625,0.2474,0.2547,0.2839,0.3409,0.3664,0.3582,0.2455,0.0,0.0,0.0,0.0,0.0,0.0,0.3321,0.3486,0.3598,0.3529,0.3204,0.3226,0.3038,0.2644,0.2763,0.2824,0.2805,0.2795,0.2722,0.259,0.2583,0.0,0.0,0.0,0.0,0.0,0.0,0.0,0.0,0.0,0.0,0.0,0.0,0.0,0.0,0.0,0.0,0.0,0.0,0.0,0.0,0.058,0.0,0.0,0.0,0.0,0.0,0.0,0.0,0.0,0.0,0.0,0.0,0.0,0.0,0.0,0.0,0.0,0.0,0.0,0.0,0.0,-0.0704,-0.1238,-0.1296,-0.2081,-0.2688,-0.2688,0.0,0.0,-0.2688,-0.3126,-0.3298,-0.2804,-0.3154,-0.3582,-0.3875,-0.3925,-0.3694,-0.2948,-0.2981,-0.3158,-0.3313,-0.3922,-0.4709,0.7124,0.0,0.0,0.0,0.0,0.5993,0.609,0.5881,0.5609,0.5316,0.5078,0.5032,0.0,0.0,0.0,0.0,0.0,0.0,0.3957,0.3279,0.3492,0.3183,0.2476,0.2515,0.2733,0.3081,0.3414,0.3606,0.3695,0.3618,0.319,0.2431,0.0,0.0,0.0,0.0,0.3727,0.3646,0.3693,0.3571,0.3353,0.3576,0.3487,0.305,0.3165,0.3053,0.2686,0.266,0.26,0.2456,0.2537,0.0,0.0,0.0,0.0,0.0,0.0,0.0,0.0,0.0,0.0,0.0,0.0,0.0,0.0,0.0,0.0,0.0,0.0,0.0,0.0289,0.0182,0.0156,0.0,0.0,0.0,0.0,0.0,0.0,0.0,0.0,0.0,0.0,0.0,0.0,0.0,0.0,0.0,0.0,0.0,0.0,0.0,-0.0218,0.0,-0.1204,-0.2089,-0.2688,-0.2688,-0.2688,-0.2688,-0.2688,-0.2825,-0.2878,-0.2728,-0.2985,-0.3193,-0.3093,-0.3072,-0.3134,-0.3278,-0.3405,-0.3477,-0.3548,-0.4,-0.4368,0.7615,0.6576,0.6383,0.6274,0.6247,0.6632,0.6647,0.641,0.6129,0.5811,0.5518,0.5708,0.5739,0.5643,0.4582,0.0,0.0,0.0,0.3746,0.3116,0.3279,0.3092,0.2658,0.2716,0.3037,0.3543,0.3737,0.392,0.4105,0.4439,0.4262,0.3613,0.0,0.0,0.3633,0.3907,0.4116,0.4241,0.4256,0.4181,0.4082,0.4481,0.4303,0.3509,0.3467,0.3288,0.2859,0.2634,0.2486,0.2413,0.2422,0.2448,0.0,0.0,0.0,0.0,0.0,0.0,0.0,0.0,0.0,0.0,0.0,0.0367,0.0855,0.0,0.0,0.0,0.077,0.0658,0.0046,0.0,0.0,0.0,0.0,0.0,0.0,0.0,0.0,0.0,0.0,0.0,0.0,0.0,0.0,0.0,0.0,0.0,0.0,0.0,0.0,0.0,0.0,-0.0176,-0.0703,-0.1263,-0.1748,-0.2095,-0.2311,-0.2489,-0.2671,-0.2688,-0.2732,-0.2854,-0.2992,-0.3044,-0.2877,-0.2865,-0.2995,-0.3494,-0.36,-0.36,-0.36,-0.3869,-0.3987,0.8318,0.8063,0.7616,0.7228,0.6892,0.6941,0.6804,0.6486,0.6265,0.625,0.6366,0.6102,0.5779,0.5391,0.4519,0.0,0.4092,0.4187,0.3834,0.3143,0.3472,0.341,0.3078,0.3072,0.3423,0.4114,0.424,0.4442,0.4672,0.4943,0.4908,0.4495,0.4022,0.3946,0.4301,0.4224,0.4488,0.5093,0.5093,0.5093,0.5103,0.558,0.522,0.3971,0.3771,0.355,0.321,0.2737,0.2452,0.2378,0.2237,0.2169,0.2162,0.0,0.0,0.0,0.0,0.0,0.0,0.0,0.0,0.0,0.0,0.0,0.0,0.0,0.0,0.0,0.0502,0.0,0.0042,0.0,0.0,0.0,0.0,0.0,0.0,0.0,0.0,0.0,0.0,0.0,0.0,0.0,0.0,0.0109,0.0042,0.0,0.0,0.0,0.0,0.0,0.0,0.0,0.0,0.0,-0.041,-0.1092,-0.1602,-0.2111,-0.2593,-0.2732,-0.2841,-0.2835,-0.3037,-0.3121,-0.3114,-0.3114,-0.3226,-0.3538,-0.36,-0.36,-0.36,-0.3622,-0.3633,1.0607,1.044,1.0343,0.9249,0.7616,0.8172,0.8306,0.8105,0.7759,0.7455,0.7201,0.6814,0.634,0.5771,0.5346,0.5033,0.4828,0.456,0.4321,0.4148,0.3925,0.3731,0.354,0.364,0.3884,0.4251,0.4387,0.449,0.4561,0.4914,0.4908,0.4511,0.4479,0.4469,0.4475,0.4714,0.4939,0.5103,0.5103,0.5103,0.5103,0.5218,0.4993,0.4369,0.4497,0.4155,0.3243,0.3167,0.2888,0.2284,0.2025,0.1888,0.1894,0.14,0.0,0.0,0.0,0.0,0.0,0.0,0.0,0.0,0.0,0.046,0.023,0.0,0.0298,0.0,0.0127,0.0156,0.0,0.0,0.0,0.0,0.0,0.0,0.0,0.0,0.0,0.0,0.0,0.0,0.0,0.0578,0.098,0.0976,0.0429,0.0,0.0,0.0,0.0,0.0,0.0,0.0,0.0,0.0,0.0,-0.0277,-0.0954,-0.175,-0.2549,-0.2878,-0.2738,-0.2032,-0.272,-0.3281,-0.3132,-0.3293,-0.3484,-0.3587,-0.36,-0.36,-0.36,-0.36,-0.36,1.1544,1.1354,1.1408,1.0593,0.9269,0.9363,0.9077,0.8551,0.8231,0.7892,0.7501,0.6991,0.6488,0.6013,0.578,0.5478,0.514,0.4915,0.4627,0.4266,0.4125,0.4017,0.3981,0.4113,0.4324,0.4662,0.4726,0.4767,0.4781,0.4986,0.4996,0.4786,0.4838,0.4848,0.4773,0.4858,0.4986,0.5103,0.5103,0.5156,0.5264,0.5165,0.5109,0.5116,0.4983,0.4609,0.3974,0.3675,0.3226,0.2593,0.2075,0.18,0.1789,0.1224,0.0784,0.0,0.0,0.0,0.0,0.0,0.0,0.0,0.0,0.0,0.0,0.0,0.0297,0.0,0.0,0.0,0.0,0.0,0.0,0.0,0.0,0.0111,0.0355,0.0406,0.0292,0.0,0.0,0.031,0.1096,0.1615,0.1926,0.1911,0.1141,0.0444,0.0,0.0,0.0,0.0,0.0,0.0,0.0,0.0,0.0,0.0,-0.057,-0.1167,-0.1465,-0.1945,-0.1946,-0.1035,-0.1432,-0.2326,-0.3094,-0.3463,-0.36,-0.36,-0.36,-0.36,-0.36,-0.36,-0.36,1.1946,1.1687,1.1819,1.1645,1.1223,1.0582,0.9683,0.8688,0.8401,0.8004,0.7522,0.6905,0.648,0.6201,0.6023,0.5712,0.53,0.5289,0.4884,0.4226,0.431,0.4373,0.4415,0.4532,0.4771,0.5098,0.5103,0.5103,0.5103,0.5103,0.5127,0.5185,0.5195,0.5214,0.5258,0.5037,0.498,0.5098,0.5103,0.5217,0.5449,0.5298,0.54,0.576,0.5254,0.4934,0.4831,0.418,0.3562,0.3041,0.2301,0.1849,0.1687,0.1257,0.0735,0.0,0.1188,0.0,0.0,0.0,0.0,0.0,0.0,0.0,0.0,0.031,0.0261,0.0,0.0,0.0,0.0,0.0,0.0086,0.0,0.0126,0.026,0.0905,0.1024,0.0804,0.0231,0.0166,0.0829,0.2369,0.2688,0.2679,0.2583,0.205,0.1342,0.0611,0.0,0.0,0.0255,0.0085,0.0,0.0,0.0,0.0,0.0,-0.0323,-0.0449,-0.0143,-0.0673,-0.0901,0.0,0.0,0.0,-0.2804,-0.3192,-0.3276,-0.3018,-0.3243,-0.3578,-0.3604,-0.3628,-0.361,1.3243,1.3178,1.3217,1.2831,1.2209,1.1975,1.1299,1.0292,0.9572,0.8494,0.7282,0.6976,0.6587,0.6202,0.6165,0.6014,0.5774,0.5769,0.5566,0.5226,0.524,0.514,0.4967,0.4981,0.5035,0.5093,0.5103,0.5103,0.5103,0.5103,0.5302,0.565,0.5665,0.5836,0.6129,0.0,0.0,0.0,0.5103,0.5126,0.5191,0.5547,0.5599,0.5281,0.5352,0.0,0.4601,0.4421,0.3985,0.3212,0.2708,0.0,0.0,0.0,0.0,0.0,0.0,0.0,0.0,0.0,0.0,0.0,0.0894,0.0749,0.0115,0.0072,0.0058,0.0,0.0,0.0,0.0,0.0,0.0596,0.1954,0.0884,0.0424,0.1477,0.1631,0.1475,0.1105,0.1042,0.1463,0.2485,0.2688,0.2688,0.2693,0.2731,0.2688,0.2503,0.221,0.1971,0.1529,0.0715,0.0,0.0,0.0,0.0,0.0,-0.0054,0.0,0.0,0.0,0.0,0.0,0.0,0.0,-0.0672,-0.1453,-0.1876,-0.0895,-0.2224,-0.36,-0.3604,-0.3673,-0.3729,1.3684,0.0,1.3605,1.3344,0.0,1.2877,1.2477,1.1811,1.0684,0.9565,0.8512,0.813,0.7772,0.743,0.7296,0.7171,0.7101,0.7074,0.6808,0.629,0.6295,0.5944,0.5301,0.5548,0.5562,0.5469,0.5834,0.5934,0.5773,0.6096,0.6215,0.6107,0.63,0.6405,0.6406,0.641,0.6089,0.545,0.522,0.5269,0.5613,0.5552,0.5605,0.5774,0.5465,0.0,0.0,0.0,0.0,0.0,0.0,0.0,0.0,0.0,0.0,0.0952,0.1477,0.1797,0.1788,0.1551,0.1383,0.1343,0.1136,0.0707,0.0045,0.0,0.0,0.0,0.0,0.0,0.0,0.0788,0.1689,0.2544,0.188,0.1608,0.212,0.2246,0.2177,0.2038,0.1992,0.2184,0.2621,0.2688,0.2688,0.2705,0.2928,0.3112,0.308,0.287,0.2648,0.2629,0.1669,0.0,0.0,0.0,0.0,0.0,0.0,0.0,0.0,0.0,0.0,0.0,0.0,0.0,0.0,-0.0515,-0.0705,-0.0258,-0.0974,-0.1787,-0.1875,-0.2486,-0.3227,1.3863,1.372,1.3695,1.3623,1.3491,1.3454,1.3303,1.2968,0.0,0.0,0.0,0.9361,0.9019,0.8784,0.8502,0.8377,0.8361,0.8338,0.7914,0.7246,0.7239,0.6748,0.5887,0.6239,0.6317,0.6136,0.6784,0.6906,0.6629,0.7153,0.7161,0.6679,0.6888,0.6901,0.6637,0.6544,0.6365,0.6019,0.5418,0.548,0.6194,0.5648,0.5654,0.637,0.5537,0.5214,0.5416,0.4947,0.4519,0.4162,0.4139,0.3835,0.3126,0.2453,0.1871,0.1424,0.1737,0.1924,0.1803,0.1539,0.1514,0.179,0.1347,0.0813,0.02,0.0167,0.0121,0.0011,0.0179,0.0,0.0332,0.1729,0.2688,0.2688,0.2688,0.2673,0.2688,0.2688,0.2656,0.2688,0.2646,0.2679,0.2703,0.2807,0.2856,0.2882,0.3092,0.3175,0.3158,0.3043,0.3049,0.3305,0.2649,0.1783,0.0,0.0,0.0561,0.0,0.0,0.0247,0.0,0.0,0.0,0.0,0.0,0.0,0.0,0.0,0.0,0.0,0.0,0.0,0.0,-0.1051,-0.2098,1.4143,1.4119,1.4105,1.3997,1.3799,1.3644,1.3493,1.3223,1.1785,1.0574,0.9549,0.9484,0.9346,0.911,0.8781,0.8635,0.8633,0.8409,0.8112,0.7791,0.778,0.7598,0.7231,0.7299,0.7293,0.7276,0.7372,0.7412,0.7332,0.7186,0.7183,0.7387,0.7219,0.7232,0.7459,0.7171,0.6966,0.6884,0.5729,0.5509,0.6344,0.628,0.6103,0.588,0.5387,0.5112,0.5141,0.4868,0.4564,0.4279,0.3858,0.3553,0.3448,0.3312,0.3231,0.3112,0.2783,0.2345,0.1839,0.1755,0.1746,0.1803,0.1714,0.1421,0.0844,0.0773,0.0563,0.0112,0.092,0.1546,0.1606,0.2237,0.2688,0.2688,0.2688,0.2688,0.2688,0.2688,0.2688,0.2688,0.2688,0.2688,0.2725,0.3122,0.3419,0.346,0.3436,0.3502,0.3486,0.3503,0.3497,0.3569,0.3482,0.3271,0.2876,0.3062,0.2535,0.1674,0.1496,0.1073,0.0,0.0,0.0,0.0,0.0,0.0,0.0,0.0,0.0,0.0,0.0,0.0,0.0,0.0,0.0,1.5121,1.472,1.4688,1.4374,1.3874,1.3676,1.3448,1.3127,1.2483,1.1878,1.1382,1.0921,1.0642,1.0504,0.9908,0.9627,0.9616,0.9306,0.8943,0.8564,0.8546,0.8251,0.778,0.7952,0.798,0.7919,0.833,0.842,0.822,0.8257,0.8298,0.8254,0.8097,0.7914,0.7703,0.7735,0.7641,0.7422,0.6365,0.6123,0.676,0.6994,0.6794,0.6148,0.5707,0.5346,0.5103,0.4701,0.4435,0.4303,0.3788,0.3506,0.3506,0.3506,0.3506,0.3474,0.2681,0.2099,0.1823,0.1797,0.1869,0.1997,0.1871,0.1694,0.1415,0.1388,0.1258,0.102,0.151,0.1797,0.182,0.2352,0.2688,0.2688,0.2688,0.2688,0.2688,0.2688,0.2688,0.2688,0.2688,0.2688,0.2688,0.3225,0.3597,0.36,0.36,0.36,0.36,0.36,0.36,0.36,0.36,0.36,0.36,0.36,0.3342,0.2826,0.2019,0.145,0.0906,0.056,0.0359,0.0773,0.0504,0.0,0.0,0.0,0.0,0.0,0.0,0.0,0.0,0.0,0.0,1.6128,1.5511,1.5438,1.4899,1.4101,1.3951,1.3598,1.3112,1.3098,1.3094,1.2983,1.2183,1.1816,1.1721,1.0963,1.0596,1.0555,1.0267,0.9866,0.9434,0.939,0.9002,0.8419,0.867,0.8738,0.8666,0.923,0.9343,0.9109,0.9289,0.9214,0.8837,0.8789,0.8512,0.7968,0.8251,0.8259,0.7921,0.7114,0.6862,0.7223,0.754,0.7319,0.6605,0.6143,0.5718,0.5273,0.4856,0.454,0.4298,0.3911,0.3626,0.3506,0.3506,0.3506,0.3432,0.2676,0.2189,0.2177,0.2146,0.2188,0.2329,0.2074,0.1876,0.1816,0.186,0.1863,0.1821,0.1908,0.202,0.2081,0.2421,0.2688,0.2688,0.2688,0.2688,0.2688,0.2688,0.2688,0.2688,0.2688,0.2688,0.2779,0.315,0.3498,0.3583,0.36,0.36,0.36,0.36,0.36,0.36,0.36,0.36,0.36,0.36,0.3567,0.3578,0.2632,0.2142,0.1997,0.1398,0.1197,0.1943,0.1531,0.0,0.0,0.0,0.0,0.0,0.0,0.0,0.0,0.0,0.0,1.6824,1.6708,1.6471,1.5733,1.4772,1.4775,1.4253,1.346,1.3379,1.3384,1.3365,1.2509,1.2169,1.2081,1.1503,1.121,1.1176,1.0924,1.059,1.0286,1.0274,1.0069,0.9667,0.9716,0.9754,0.9703,0.9797,0.9783,0.9725,0.9528,0.919,0.8837,0.8789,0.8782,0.8699,0.8727,0.8734,0.8692,0.7963,0.7598,0.7637,0.7669,0.7479,0.7037,0.6598,0.6148,0.5748,0.5701,0.5238,0.4397,0.4252,0.3986,0.358,0.3506,0.3506,0.3506,0.3397,0.3346,0.3329,0.3166,0.299,0.282,0.244,0.2075,0.1864,0.2026,0.2047,0.1954,0.2303,0.2564,0.2635,0.2698,0.2737,0.284,0.2741,0.2688,0.2712,0.2688,0.2688,0.2688,0.2688,0.2688,0.2728,0.3012,0.3341,0.3745,0.3656,0.3633,0.3689,0.3626,0.36,0.36,0.36,0.36,0.36,0.36,0.36,0.3578,0.349,0.3239,0.3129,0.3173,0.3309,0.2893,0.3187,0.229,0.0,0.0,0.0,0.0,0.0,0.0,0.0,0.0,0.0,1.8041,1.7609,1.7505,1.6774,1.5755,1.5553,1.5196,1.4717,1.4708,1.4703,1.4573,1.3722,1.308,1.2638,1.1884,1.1536,1.1492,1.0902,1.0532,1.0384,1.0204,1.0015,0.9905,0.9893,0.9893,0.9893,0.9893,0.9893,0.9873,0.9763,0.9391,0.8919,0.9224,0.9237,0.8853,0.9035,0.9048,0.8803,0.8512,0.8336,0.8347,0.8347,0.8053,0.7456,0.7205,0.6802,0.6189,0.5774,0.5375,0.4958,0.4532,0.4061,0.3543,0.3506,0.3506,0.3546,0.4183,0.456,0.4546,0.4046,0.3646,0.3455,0.3149,0.2728,0.2101,0.2134,0.2224,0.2351,0.2575,0.3067,0.3948,0.3315,0.2956,0.3434,0.3113,0.2792,0.3027,0.2845,0.2688,0.2688,0.2688,0.2691,0.2759,0.3109,0.3724,0.4252,0.4111,0.3821,0.3987,0.3818,0.3611,0.36,0.36,0.36,0.36,0.36,0.36,0.36,0.36,0.36,0.36,0.36,0.3578,0.36,0.36,0.3353,0.2493,0.0,0.0,0.0,0.0,0.0,0.0,0.0,0.0,1.8981,1.846,1.8427,1.7738,1.663,1.644,1.6088,1.5717,1.5639,1.5595,1.5496,1.4625,1.3939,1.3305,1.2323,1.1832,1.1742,1.1102,1.0736,1.0634,1.0384,1.0242,1.0179,1.0072,1.0091,1.0148,0.9976,0.9893,0.9893,0.9893,0.9608,0.9257,0.9646,0.964,0.9178,0.9409,0.9384,0.9131,0.9109,0.9116,0.9071,0.8906,0.852,0.7981,0.7876,0.7484,0.6767,0.6291,0.5876,0.5573,0.5056,0.4436,0.3757,0.359,0.3506,0.36,0.4643,0.5309,0.5285,0.4622,0.4217,0.4176,0.3873,0.3377,0.2847,0.2684,0.2917,0.3399,0.3413,0.3999,0.4515,0.4014,0.3753,0.4202,0.3666,0.3487,0.3474,0.3204,0.2985,0.2746,0.2688,0.2931,0.3417,0.4111,0.4893,0.5054,0.4874,0.4436,0.4493,0.4085,0.3644,0.3781,0.3722,0.36,0.36,0.36,0.36,0.36,0.36,0.36,0.36,0.36,0.36,0.36,0.36,0.3398,0.2882,0.0,0.0,0.0,0.0,0.0,0.0,0.0,0.0,1.9282,1.9242,1.9234,1.853,1.7457,1.7409,1.6875,1.6093,1.579,1.5646,1.5612,1.489,1.4485,1.4341,1.294,1.2195,1.2128,1.1806,1.1473,1.1216,1.1184,1.108,1.0849,1.0538,1.052,1.0674,1.0192,0.9931,0.9924,0.9918,0.9886,0.986,0.9892,0.9867,0.979,0.9828,0.9854,0.977,0.9783,0.9815,0.9738,0.9145,0.8785,0.8701,0.8546,0.811,0.7595,0.7566,0.7085,0.6024,0.5881,0.5386,0.4389,0.3836,0.3586,0.3679,0.4649,0.5309,0.5254,0.4853,0.4747,0.5018,0.4451,0.3975,0.3905,0.3874,0.4186,0.5033,0.4947,0.4824,0.4391,0.4683,0.4678,0.4247,0.4728,0.4676,0.4037,0.3958,0.3545,0.2993,0.2995,0.3696,0.5007,0.6162,0.6086,0.5862,0.6161,0.6359,0.5314,0.4349,0.4085,0.4052,0.3902,0.36,0.36,0.36,0.36,0.36,0.36,0.3604,0.36,0.36,0.3607,0.3624,0.365,0.3478,0.3049,0.0,0.0,0.0,0.0,0.0,0.0,0.0,0.0,1.9282,1.9286,1.9176,1.8832,1.8439,1.8095,1.773,1.7401,1.7116,1.7011,1.6875,1.6231,1.591,1.5829,1.416,1.3063,1.2442,1.1802,1.1423,1.1284,1.1121,1.0977,1.0903,1.0769,1.0635,1.0538,1.0342,1.0289,1.0408,1.0412,1.0412,1.0351,1.0069,0.9893,0.9893,0.9893,0.9893,0.9893,0.9893,0.9893,0.9853,0.9177,0.8912,0.9123,0.8645,0.8153,0.7673,0.7455,0.7107,0.6712,0.6187,0.5805,0.5614,0.5014,0.4642,0.4689,0.5065,0.5309,0.5285,0.5157,0.5111,0.526,0.5031,0.4808,0.4818,0.4834,0.4977,0.523,0.5309,0.5108,0.5003,0.5132,0.5182,0.4965,0.5096,0.5063,0.4594,0.451,0.4341,0.3901,0.4545,0.5751,0.6127,0.6751,0.682,0.6522,0.6751,0.655,0.6012,0.5642,0.5292,0.4195,0.3744,0.36,0.36,0.36,0.36,0.36,0.36,0.3607,0.3596,0.3665,0.3697,0.38,0.3805,0.3797,0.3479,0.3374,0.2954,0.3053,0.2248,0.143,0.0,0.0499,0.0,1.9282,1.9274,1.9154,1.9084,1.9046,1.8642,1.841,1.831,1.8052,1.7889,1.767,1.7021,1.6688,1.6466,1.5116,1.4052,1.3201,1.2131,1.1531,1.1465,1.1497,1.1517,1.1528,1.1611,1.1536,1.1293,1.101,1.0962,1.0981,1.0996,1.0896,1.0675,1.0319,1.0056,0.9943,0.9893,0.9893,0.9893,0.9893,0.9962,1.0078,0.9882,0.9674,0.9577,0.9041,0.845,0.7916,0.7505,0.7274,0.7208,0.6717,0.642,0.6369,0.571,0.5309,0.5325,0.5547,0.5554,0.5388,0.5538,0.5562,0.534,0.5411,0.5459,0.534,0.5309,0.5309,0.5309,0.5309,0.5309,0.5309,0.5308,0.5309,0.5309,0.5309,0.5189,0.4908,0.5098,0.5097,0.5036,0.5928,0.68,0.6983,0.6972,0.6979,0.6983,0.6983,0.6751,0.6459,0.6352,0.639,0.4923,0.4078,0.3722,0.3692,0.381,0.3839,0.3831,0.3692,0.3657,0.3708,0.3767,0.3868,0.3967,0.4029,0.407,0.4046,0.3975,0.4111,0.4372,0.3831,0.2882,0.1957,0.0715,0.0,1.9334,1.9348,1.9319,1.9274,1.9235,1.9021,1.882,1.8571,1.832,1.8078,1.7782,1.7087,1.6855,1.6545,1.5719,1.5032,1.4454,1.3115,1.2263,1.2026,1.2507,1.2734,1.2752,1.2965,1.3045,1.2916,1.2338,1.1875,1.1658,1.1645,1.1383,1.0858,1.0769,1.0483,0.993,0.9968,0.9943,0.9956,0.9931,1.0175,1.0713,1.1206,1.1045,1.0219,0.9679,0.9052,0.8304,0.7876,0.7654,0.7656,0.7586,0.7283,0.6509,0.5875,0.5419,0.5624,0.6122,0.6091,0.5609,0.6068,0.6052,0.5631,0.5702,0.5722,0.5454,0.5335,0.5309,0.5309,0.5309,0.5309,0.5309,0.5378,0.5371,0.5309,0.5309,0.5276,0.5367,0.5636,0.5961,0.6139,0.668,0.6956,0.6983,0.6983,0.6983,0.6983,0.6983,0.6972,0.681,0.6512,0.6352,0.6295,0.5416,0.448,0.4229,0.4062,0.4098,0.4103,0.3892,0.3783,0.3916,0.4006,0.4145,0.4249,0.4276,0.4307,0.4205,0.415,0.4199,0.4341,0.4082,0.3823,0.2678,0.1497,0.0735,2.013,2.0038,1.9536,1.9282,1.9266,1.909,1.894,1.8838,1.859,1.833,1.8069,1.7841,1.7616,1.7291,1.6598,1.607,1.5725,1.4697,1.3868,1.3331,1.3418,1.3499,1.3534,1.361,1.351,1.3306,1.3241,1.2966,1.2629,1.2555,1.2314,1.1898,1.1487,1.1016,1.0488,1.0444,1.0444,1.0418,1.0084,1.0347,1.1302,1.2215,1.1908,1.0324,0.946,0.8806,0.8315,0.7911,0.7703,0.7695,0.7427,0.7045,0.6647,0.6798,0.695,0.6981,0.7168,0.7264,0.6965,0.664,0.6435,0.6176,0.6165,0.6017,0.5732,0.5454,0.5348,0.5328,0.5308,0.5309,0.5371,0.5712,0.5785,0.5346,0.5316,0.5445,0.5683,0.5925,0.6294,0.6677,0.6904,0.6993,0.6983,0.6983,0.6983,0.6983,0.6983,0.6983,0.6937,0.6798,0.6681,0.6793,0.5958,0.5472,0.5289,0.5035,0.4857,0.4518,0.4144,0.3991,0.4119,0.4221,0.4368,0.444,0.4474,0.4457,0.4358,0.4331,0.4375,0.4406,0.432,0.3809,0.3108,0.2384,0.1639,2.0786,2.0448,1.9964,1.9569,1.93,1.9144,1.9073,1.8997,1.8838,1.8595,1.8371,1.8239,1.8103,1.7852,1.7358,1.6959,1.664,1.6154,1.5599,1.4918,1.4458,1.4359,1.4349,1.429,1.4181,1.3982,1.3979,1.3843,1.3562,1.3398,1.3093,1.2622,1.2133,1.162,1.1084,1.1041,1.1031,1.0975,1.084,1.1104,1.1902,1.2747,1.2415,1.0874,1.0028,0.9377,0.8778,0.8291,0.7927,0.7715,0.7449,0.7194,0.7017,0.7414,0.7688,0.7688,0.7688,0.7673,0.7644,0.7225,0.6767,0.6576,0.6505,0.64,0.6141,0.5798,0.5688,0.5903,0.5554,0.5818,0.6935,0.706,0.6786,0.5994,0.5694,0.5728,0.6032,0.6156,0.6435,0.6814,0.6993,0.6983,0.6983,0.6983,0.6983,0.6983,0.6983,0.6983,0.7016,0.7129,0.72,0.72,0.6838,0.6527,0.6373,0.6065,0.5694,0.5072,0.4423,0.4313,0.4313,0.4365,0.4464,0.446,0.4484,0.4484,0.4416,0.4433,0.4464,0.4487,0.4491,0.4152,0.3656,0.3252,0.26,2.1382,2.0658,2.0525,2.006,1.944,1.9318,1.9194,1.9043,1.9018,1.8843,1.8622,1.8428,1.8244,1.814,1.7852,1.7563,1.7347,1.7241,1.6994,1.6503,1.5886,1.5401,1.522,1.51,1.503,1.4991,1.4745,1.4564,1.4406,1.4137,1.3674,1.3163,1.2754,1.2241,1.1825,1.1671,1.1629,1.1667,1.186,1.2101,1.2418,1.2927,1.271,1.164,1.1149,1.0464,0.9583,0.89,0.8322,0.7839,0.7705,0.7605,0.7652,0.7688,0.7688,0.7688,0.7688,0.7688,0.7688,0.7605,0.7331,0.6779,0.6916,0.6853,0.6634,0.64,0.6369,0.6734,0.6352,0.7026,0.915,0.9247,0.8263,0.7267,0.6489,0.6222,0.6398,0.6344,0.6566,0.6877,0.6983,0.6983,0.7002,0.7036,0.7116,0.7089,0.7069,0.6983,0.708,0.7279,0.7664,0.7652,0.7526,0.73,0.7074,0.7419,0.6832,0.4993,0.4487,0.4467,0.4416,0.446,0.4491,0.4491,0.4491,0.4491,0.4491,0.4491,0.4491,0.4491,0.4491,0.4491,0.4247,0.3802,0.3534,2.2552,2.2213,2.102,2.0378,2.0107,1.9565,1.9303,1.923,1.9226,1.9147,1.8918,1.882,1.8577,1.8218,1.8176,1.7949,1.7766,1.7725,1.7652,1.7457,1.7041,1.6329,1.5801,1.5643,1.5602,1.5573,1.544,1.5284,1.4967,1.4805,1.4506,1.4096,1.3626,1.3176,1.2685,1.2343,1.2194,1.216,1.2108,1.2421,1.2918,1.3098,1.2877,1.2227,1.1494,1.0806,1.0086,0.933,0.8709,0.8258,0.7866,0.7688,0.7744,0.7708,0.7688,0.7688,0.7688,0.7688,0.7688,0.7688,0.7576,0.7456,0.7616,0.7687,0.7344,0.699,0.6892,0.7238,0.7998,0.9189,1.0079,1.0028,0.942,0.8666,0.7501,0.6693,0.6626,0.6693,0.6853,0.6963,0.6983,0.6983,0.7062,0.7399,0.7634,0.7606,0.7346,0.7062,0.7212,0.7572,0.8012,0.8218,0.8157,0.7925,0.7905,0.8394,0.7629,0.5232,0.4501,0.4525,0.4491,0.4477,0.4491,0.4491,0.4491,0.4491,0.4491,0.4491,0.4491,0.4491,0.4491,0.4491,0.4491,0.422,0.4175,2.3304,2.2928,2.1937,2.1355,2.1029,2.0527,2.0138,1.9858,1.9803,1.974,1.9571,1.9149,1.9123,1.9276,1.888,1.852,1.8325,1.8594,1.8369,1.7743,1.741,1.6799,1.6155,1.5913,1.5806,1.5806,1.5806,1.5654,1.5403,1.5224,1.4968,1.4654,1.4181,1.3711,1.3377,1.296,1.2726,1.2712,1.2616,1.2804,1.3178,1.3219,1.2906,1.2452,1.1871,1.1327,1.0428,0.9813,0.9295,0.8758,0.8392,0.8246,0.8199,0.7853,0.7715,0.7688,0.7688,0.7688,0.7688,0.7698,0.788,0.8115,0.8277,0.807,0.7901,0.7733,0.7713,0.7926,0.9371,1.0127,1.0312,1.0312,1.0089,0.9565,0.8496,0.758,0.7222,0.7069,0.7005,0.6983,0.6983,0.7,0.7033,0.7751,0.8164,0.8177,0.7777,0.7555,0.7491,0.793,0.8286,0.8472,0.8584,0.8365,0.8252,0.8618,0.8778,0.6506,0.4828,0.4797,0.4515,0.4491,0.4491,0.4491,0.4491,0.4491,0.4491,0.4491,0.4491,0.4491,0.4491,0.4491,0.4491,0.4491,0.4491,2.3781,2.3134,2.3043,2.2575,2.1955,2.1808,2.1166,2.0584,2.0598,2.0539,2.0311,1.9623,1.9955,2.0845,1.9832,1.9327,1.9052,1.9535,1.9,1.8253,1.7649,1.7113,1.638,1.6053,1.5885,1.5828,1.5806,1.5792,1.5661,1.5359,1.5165,1.4907,1.4326,1.3983,1.3721,1.3378,1.3232,1.3152,1.3094,1.3103,1.3194,1.3207,1.2981,1.266,1.2439,1.1791,1.0949,1.0445,1.0106,0.9265,0.9165,0.9131,0.9034,0.8363,0.7888,0.788,0.7985,0.8112,0.7773,0.7849,0.8162,0.8696,0.8547,0.8353,0.8466,0.8661,0.8857,0.8839,0.9755,1.0225,1.0312,1.0312,1.0283,1.0001,0.924,0.8584,0.8239,0.7541,0.6983,0.6983,0.6983,0.7024,0.7444,0.8024,0.8764,0.8544,0.8237,0.8099,0.8049,0.8315,0.8563,0.8684,0.8744,0.8764,0.8724,0.8771,0.8784,0.7963,0.6005,0.5177,0.4598,0.4491,0.4491,0.4491,0.4491,0.4491,0.4491,0.4491,0.4491,0.4491,0.4491,0.4491,0.4491,0.4491,0.4491,2.408,2.3896,2.3267,2.2919,2.2648,2.2069,2.1327,2.0621,2.1253,2.1176,2.0737,2.0941,2.1042,2.0934,2.0668,2.0274,1.9793,1.9923,1.9467,1.8756,1.8331,1.7612,1.6851,1.6431,1.6069,1.5892,1.5806,1.5806,1.5741,1.5653,1.5448,1.5052,1.4627,1.4206,1.3885,1.3476,1.3219,1.3219,1.3219,1.3219,1.3219,1.3219,1.3144,1.2972,1.2674,1.2188,1.168,1.1478,1.1174,1.0648,1.0195,0.9921,0.9863,0.9736,0.9054,0.8412,0.9023,0.9111,0.816,0.839,0.8781,0.9009,0.9166,0.9314,0.9336,0.9648,0.9884,0.9971,1.0186,1.0312,1.0312,1.0312,1.0312,1.0108,0.9458,0.9018,0.9206,0.8064,0.7101,0.6983,0.7026,0.7339,0.8199,0.8431,0.8784,0.8758,0.871,0.8622,0.8648,0.8695,0.875,0.8791,0.8791,0.8791,0.8791,0.8633,0.8317,0.8116,0.6598,0.5345,0.478,0.4528,0.4542,0.4522,0.4491,0.4491,0.4491,0.4491,0.4491,0.4491,0.4491,0.4491,0.4491,0.4491,0.446,2.4194,2.4153,2.3744,2.3579,2.3492,2.3093,2.2451,2.1868,2.213,2.2111,2.1744,2.184,2.1863,2.1942,2.158,2.1103,2.0554,2.0149,2.0031,1.9799,1.946,1.8757,1.8049,1.7291,1.6683,1.5974,1.5806,1.5806,1.5806,1.5799,1.5668,1.5381,1.4814,1.4422,1.4084,1.3539,1.3245,1.3219,1.3219,1.3219,1.3219,1.3219,1.3219,1.312,1.2764,1.2356,1.2135,1.1893,1.1654,1.1283,1.0725,1.0322,1.0312,1.0312,0.9775,0.9376,0.9619,0.9961,0.9297,0.9307,0.9628,0.9589,0.9649,0.9737,0.9893,1.0176,1.0273,1.0312,1.0303,1.0312,1.0312,1.0312,1.0312,1.0235,0.9824,0.969,0.9666,0.8278,0.6983,0.6983,0.6989,0.7657,0.8284,0.8698,0.8791,0.8771,0.8771,0.871,0.8704,0.8751,0.8764,0.8791,0.8791,0.8791,0.8791,0.8455,0.7773,0.7312,0.6411,0.5419,0.4764,0.4654,0.4625,0.457,0.4491,0.4491,0.4491,0.4491,0.4491,0.4491,0.4491,0.4491,0.4491,0.4491,0.4491,2.4194,2.4194,2.4194,2.4194,2.4194,2.4139,2.3639,2.3011,2.3139,2.3043,2.2955,2.2354,2.2709,2.2965,2.2493,2.1886,2.1335,2.0849,2.0781,2.0815,2.0384,1.9766,1.9174,1.8415,1.7451,1.6159,1.588,1.5821,1.5806,1.5799,1.5705,1.5551,1.5006,1.4517,1.4238,1.3757,1.331,1.3232,1.3219,1.3219,1.3219,1.3219,1.3219,1.3129,1.2908,1.268,1.2553,1.2312,1.2,1.1854,1.1151,1.0736,1.0506,1.0332,1.0312,1.0224,1.0263,1.0166,1.0068,1.0156,1.0224,1.0283,0.9971,0.9903,1.0176,1.0273,1.0303,1.0312,1.0322,1.0381,1.0469,1.0371,1.0381,1.0361,1.0361,1.0309,1.0075,0.8768,0.8321,0.7219,0.7493,0.8092,0.8458,0.8791,0.8791,0.8791,0.8791,0.8791,0.8791,0.8791,0.8791,0.8791,0.8791,0.8791,0.8791,0.8811,0.8066,0.7607,0.6702,0.5804,0.5093,0.4858,0.4816,0.457,0.4491,0.4491,0.4491,0.4491,0.4491,0.4491,0.4491,0.4491,0.4491,0.4491,0.4491,2.4194,2.4194,2.4194,2.4194,2.4194,2.4194,2.3749,2.3194,2.3712,2.3602,2.3116,2.3524,2.3621,2.3503,2.3211,2.2666,2.2051,2.1721,2.1566,2.1353,2.1001,2.0595,1.9837,1.9387,1.8453,1.7206,1.6451,1.6036,1.5866,1.5799,1.581,1.535,1.5117,1.4785,1.4376,1.381,1.3586,1.3411,1.3291,1.3219,1.3219,1.3219,1.3219,1.3189,1.306,1.3042,1.3051,1.2969,1.2782,1.2455,1.2594,1.2228,1.1597,1.0859,1.0563,1.0525,1.038,1.0312,1.0312,1.037,1.0332,1.0273,1.0263,1.0195,1.0312,1.0312,1.0312,1.0361,1.0449,1.0635,1.1281,1.087,1.0606,1.0635,1.0547,1.0615,1.1105,1.1169,1.0376,0.8775,0.8595,0.8412,0.8644,0.8791,0.8791,0.8791,0.8791,0.8791,0.8791,0.8791,0.8791,0.8791,0.8791,0.8791,0.8791,0.8884,0.8678,0.8576,0.7795,0.6637,0.5929,0.5309,0.5003,0.48,0.459,0.4491,0.4491,0.4491,0.4491,0.4491,0.4491,0.4491,0.4491,0.4491,0.4491,2.4194,2.4194,2.4194,2.4194,2.4194,2.4194,2.3988,2.3712,2.4025,2.3988,2.3818,2.401,2.3907,2.3498,2.3282,2.2857,2.2429,2.2296,2.2083,2.1779,2.1705,2.1555,2.0788,2.0388,1.9776,1.8858,1.7835,1.6788,1.6308,1.6278,1.6277,1.6345,1.5951,1.5569,1.5252,1.4442,1.4115,1.3869,1.3534,1.3253,1.3223,1.3223,1.3219,1.3232,1.3219,1.3219,1.3219,1.3219,1.3094,1.2943,1.3064,1.2925,1.2496,1.2099,1.1763,1.1607,1.0916,1.0351,1.0467,1.0669,1.0887,1.0419,1.0725,1.0845,1.0636,1.0469,1.0381,1.0518,1.1329,1.1398,1.0968,1.1291,1.1583,1.1328,1.085,1.0938,1.1691,1.2475,1.1637,1.0201,0.9495,0.905,0.8698,0.8791,0.8791,0.8791,0.8791,0.8791,0.8791,0.8791,0.8791,0.8791,0.8791,0.8791,0.8878,0.9079,0.9268,0.9239,0.8474,0.7324,0.6375,0.5595,0.5276,0.5111,0.4883,0.4624,0.4491,0.4491,0.4491,0.4491,0.4491,0.4491,0.4491,0.4491,0.4491,2.4194,2.4194,2.4194,2.4194,2.4194,2.4194,2.4194,2.4185,2.409,2.4084,2.4094,2.3996,2.3664,2.3282,2.3081,2.2787,2.2317,2.2313,2.2262,2.2245,2.2212,2.2238,2.2016,2.1499,2.073,2.0099,1.9422,1.8206,1.7265,1.696,1.7219,1.7198,1.6721,1.6595,1.654,1.534,1.4914,1.4511,1.4081,1.3577,1.353,1.3323,1.3294,1.3341,1.3282,1.3219,1.3219,1.3219,1.3219,1.3176,1.3202,1.3193,1.321,1.321,1.321,1.2964,1.168,1.1057,1.1165,1.1948,1.2306,1.184,1.1839,1.1694,1.1296,1.1013,1.0733,1.1036,1.1829,1.2336,1.1565,1.1966,1.2355,1.2199,1.1495,1.1153,1.1895,1.251,1.2827,1.1615,1.0451,1.0079,1.0092,0.8791,0.8791,0.8791,0.8791,0.8791,0.8791,0.8791,0.8791,0.8791,0.8791,0.8791,0.8958,0.9346,0.9613,0.9868,0.8708,0.7348,0.6475,0.5654,0.5454,0.5259,0.5109,0.4859,0.4679,0.4498,0.4491,0.4491,0.4491,0.4491,0.4491,0.4491,0.4491,2.4194,2.4194,2.4194,2.4194,2.4194,2.4194,2.4208,2.4188,2.3969,2.3769,2.3941,2.3519,2.3365,2.3141,2.2884,2.2583,2.2374,2.2313,2.2313,2.2313,2.2313,2.2313,2.2313,2.2224,2.1458,2.0917,2.0467,1.9527,1.8539,1.7927,1.7701,1.779,1.7709,1.7471,1.7336,1.6348,1.5914,1.5541,1.4977,1.4627,1.4499,1.3792,1.3742,1.3743,1.3559,1.3294,1.3303,1.3282,1.3232,1.3282,1.3232,1.3219,1.3219,1.3219,1.3219,1.3172,1.2969,1.2847,1.286,1.3578,1.4269,1.3767,1.3587,1.2966,1.2256,1.1782,1.1712,1.2573,1.2856,1.2778,1.2297,1.2267,1.2434,1.2551,1.2436,1.2072,1.2344,1.2568,1.2866,1.2844,1.1635,1.1893,1.2092,1.0272,0.8791,0.8791,0.8791,0.8791,0.8791,0.8791,0.8791,0.8791,0.8791,0.8791,0.9071,0.9453,0.99,1.0322,0.9106,0.7606,0.6888,0.6184,0.5495,0.5313,0.519,0.5047,0.4829,0.4662,0.4545,0.4491,0.4491,0.4491,0.4491,0.4491,0.4491,2.4194,2.4194,2.4194,2.4194,2.4194,2.4194,2.4343,2.4495,2.4389,2.4466,2.4563,2.4057,2.354,2.3008,2.2634,2.2412,2.2317,2.2313,2.2313,2.2313,2.2313,2.2313,2.2313,2.2296,2.1904,2.1616,2.1267,2.0958,1.9999,1.9225,1.8777,1.9017,1.8596,1.8463,1.8205,1.732,1.6829,1.63,1.5572,1.4924,1.4913,1.4965,1.489,1.4551,1.3991,1.3752,1.363,1.3332,1.3424,1.3521,1.345,1.3219,1.3219,1.3332,1.362,1.5111,1.5079,1.4465,1.3576,1.4554,1.5206,1.5463,1.4793,1.378,1.2972,1.2561,1.2443,1.2827,1.2895,1.2915,1.2905,1.2678,1.2709,1.2827,1.2905,1.2798,1.26,1.2729,1.2915,1.2915,1.2915,1.2915,1.2627,1.0935,0.9277,0.8791,0.8791,0.8791,0.8791,0.8791,0.8791,0.8791,0.8791,0.8791,0.9185,0.9587,1.0131,1.0347,0.974,0.8425,0.7599,0.688,0.6056,0.5524,0.5418,0.5236,0.4989,0.4778,0.4624,0.4549,0.4491,0.4514,0.4541,0.4491,0.4491,2.4194,2.4194,2.4194,2.4194,2.4222,2.4308,2.4517,2.4774,2.4807,2.5013,2.5055,2.4403,2.3506,2.2809,2.2436,2.2324,2.232,2.2313,2.2313,2.2313,2.2313,2.2313,2.2313,2.2296,2.2296,2.2313,2.1886,2.1652,2.1299,2.0566,1.9958,2.0258,1.9321,1.9207,1.9144,1.8369,1.754,1.7046,1.6002,1.5469,1.549,1.6036,1.5746,1.5213,1.4617,1.4245,1.4056,1.3919,1.3957,1.3849,1.3907,1.3801,1.3776,1.4231,1.4845,1.5948,1.6162,1.5662,1.4948,1.5221,1.5886,1.598,1.5732,1.467,1.4176,1.3646,1.3077,1.2978,1.2915,1.2915,1.2905,1.2886,1.2876,1.2876,1.2915,1.2915,1.2915,1.2915,1.2915,1.2915,1.2915,1.2915,1.2348,1.1087,0.9925,0.9035,0.8791,0.8791,0.8804,0.8811,0.8804,0.8804,0.8791,0.8971,0.9647,1.0028,1.0472,1.0412,0.9802,0.9414,0.8717,0.7475,0.6321,0.5934,0.6128,0.5605,0.5484,0.5079,0.4723,0.4829,0.4883,0.4667,0.4596,0.4537,0.4528,2.4194,2.4194,2.4226,2.424,2.4229,2.4623,2.4743,2.4939,2.4989,2.5045,2.4998,2.4051,2.3308,2.257,2.2478,2.2381,2.2313,2.2313,2.2313,2.2313,2.2313,2.2313,2.2313,2.2313,2.2313,2.2313,2.2166,2.218,2.2003,2.1155,2.0613,2.0251,1.9754,1.9689,1.9474,1.8907,1.8075,1.748,1.6533,1.6243,1.6222,1.6375,1.6172,1.5691,1.5123,1.4629,1.4191,1.4378,1.4519,1.4286,1.4441,1.4733,1.4836,1.5369,1.6086,1.6337,1.6513,1.6187,1.5999,1.5961,1.63,1.6299,1.599,1.5633,1.5566,1.4971,1.4212,1.3344,1.3248,1.2915,1.2915,1.2915,1.2915,1.2915,1.2915,1.2915,1.2915,1.2915,1.2915,1.2915,1.2915,1.2915,1.2903,1.1822,1.0182,0.9198,0.8804,0.8791,0.8838,0.8851,0.8844,0.8831,0.8798,0.9232,1.0238,1.0586,1.0586,1.046,1.004,1.0095,1.006,0.8624,0.7344,0.7913,0.8269,0.71,0.5903,0.5479,0.5208,0.5314,0.5266,0.5001,0.4713,0.458,0.4608,2.4194,2.425,2.4732,2.48,2.4567,2.4503,2.4911,2.5543,2.5649,2.5536,2.5337,2.4876,2.4086,2.3257,2.2936,2.2692,2.2371,2.2313,2.2347,2.2313,2.2313,2.2313,2.2313,2.233,2.2313,2.2313,2.2313,2.2313,2.218,2.1424,2.1055,2.059,2.0041,1.9782,1.953,1.9175,1.8497,1.7773,1.6995,1.6523,1.6513,1.6511,1.6398,1.6185,1.552,1.5241,1.5037,1.4673,1.4796,1.4956,1.4981,1.5286,1.5691,1.6285,1.6473,1.6513,1.6513,1.6513,1.6513,1.6513,1.6513,1.6466,1.6292,1.6261,1.6489,1.5987,1.5689,1.4915,1.3634,1.2954,1.2915,1.2915,1.2915,1.2915,1.2954,1.2981,1.2944,1.2964,1.2925,1.2935,1.2925,1.2915,1.2915,1.2796,1.0985,0.9368,0.9048,0.8818,0.8898,0.9031,0.9085,0.9065,0.9045,0.9392,1.0358,1.0533,1.0579,1.0428,1.0253,1.038,1.0523,1.0412,0.9518,1.0136,1.0025,0.8742,0.7426,0.6161,0.5607,0.5504,0.5387,0.5246,0.4973,0.469,0.4681,2.4708,2.4951,2.5398,2.5296,2.4853,2.4963,2.5421,2.6024,2.6214,2.6016,2.5617,2.555,2.4932,2.4,2.3712,2.3519,2.318,2.3071,2.3021,2.2953,2.2861,2.2675,2.2557,2.2438,2.2313,2.2313,2.2313,2.2313,2.2261,2.1432,2.1071,2.0706,2.0174,1.9806,1.9599,1.9169,1.8649,1.7968,1.7118,1.6532,1.6513,1.6511,1.6511,1.6436,1.5984,1.5683,1.5593,1.5332,1.5309,1.548,1.5603,1.5819,1.621,1.6513,1.6513,1.6513,1.6513,1.6513,1.6513,1.6513,1.6513,1.6489,1.6489,1.6468,1.6513,1.6513,1.6228,1.6086,1.434,1.2929,1.2954,1.2915,1.2915,1.2925,1.3379,1.3457,1.3157,1.3059,1.3003,1.2964,1.2935,1.2915,1.2925,1.2839,1.1674,0.9978,0.9113,0.8978,0.9125,0.9292,0.9513,0.9453,0.9379,0.9841,1.0385,1.0492,1.0586,1.057,1.0444,1.0491,1.057,1.0586,1.0586,1.046,1.0199,0.9875,0.9166,0.8145,0.6798,0.5557,0.5443,0.5311,0.5197,0.4944,0.4792,2.5792,2.6489,2.6222,2.5646,2.5122,2.6135,2.6433,2.6287,2.649,2.6293,2.5761,2.5677,2.5287,2.4626,2.4474,2.4305,2.4169,2.4186,2.4203,2.4,2.341,2.3325,2.3038,2.2726,2.2313,2.2313,2.2313,2.2313,2.2282,2.1432,2.1071,2.0747,2.0198,1.9723,1.9654,1.9188,1.8655,1.8043,1.7094,1.6761,1.6607,1.6575,1.6513,1.6473,1.6385,1.6122,1.5909,1.6011,1.5961,1.5856,1.6122,1.6287,1.645,1.6513,1.6513,1.6513,1.6513,1.6513,1.6513,1.6513,1.6513,1.6513,1.6513,1.6513,1.6513,1.6513,1.6513,1.6326,1.4686,1.331,1.3017,1.2915,1.2927,1.3362,1.3854,1.3844,1.3555,1.3262,1.3223,1.3003,1.2935,1.2915,1.2935,1.2727,1.196,1.0747,0.9493,0.9173,0.9452,0.952,0.9741,0.9761,0.9674,1.005,1.0452,1.0526,1.0586,1.0586,1.0586,1.0586,1.0586,1.0586,1.0586,1.0586,1.046,1.0215,1.0301,1.0222,0.7918,0.564,0.5478,0.5365,0.5277,0.516,0.4983,2.6337,2.6651,2.7052,2.6901,2.6465,2.6632,2.6788,2.6851,2.6753,2.6556,2.637,2.6319,2.593,2.5431,2.5194,2.5008,2.4609,2.4515,2.4515,2.4457,2.3857,2.3485,2.3231,2.2912,2.2415,2.232,2.232,2.2415,2.2282,2.1625,2.1143,2.0788,2.0371,1.9762,1.9672,1.9433,1.9172,1.8622,1.794,1.7422,1.7055,1.6793,1.6627,1.664,1.6629,1.6478,1.6245,1.6488,1.635,1.6197,1.6463,1.6488,1.6513,1.6513,1.6513,1.6513,1.6513,1.6513,1.6513,1.6513,1.6513,1.6525,1.6574,1.6574,1.6513,1.6513,1.6513,1.6468,1.5656,1.441,1.3368,1.3095,1.3231,1.4281,1.4664,1.4336,1.4023,1.3717,1.3503,1.3108,1.2915,1.3379,1.3564,1.35,1.2813,1.2018,1.088,1.0194,1.0256,0.9947,0.9916,0.9948,0.9982,1.0291,1.0542,1.0566,1.0586,1.0586,1.0586,1.0586,1.0586,1.0586,1.0586,1.0586,1.0586,1.0586,1.038,0.9748,0.7414,0.5723,0.5607,0.5458,0.5341,0.5234,0.5055,2.6911,2.7109,2.761,2.7687,2.7447,2.7252,2.7191,2.708,2.6799,2.6708,2.6691,2.6683,2.6437,2.6082,2.593,2.5828,2.5261,2.5269,2.5286,2.5151,2.4534,2.4357,2.4036,2.3427,2.3332,2.3062,2.3054,2.3122,2.3185,2.2413,2.193,2.149,2.0764,2.0606,2.0413,2.0229,1.9943,1.9513,1.9064,1.8595,1.8326,1.8062,1.7737,1.7521,1.7311,1.7056,1.6824,1.6661,1.6513,1.6525,1.6513,1.6513,1.6513,1.6513,1.6513,1.6513,1.6513,1.6513,1.6513,1.6876,1.6925,1.6886,1.6823,1.671,1.6586,1.6513,1.6513,1.6513,1.655,1.6288,1.5336,1.4842,1.5046,1.6168,1.491,1.4561,1.4386,1.4093,1.3874,1.3437,1.3382,1.3835,1.426,1.4155,1.3882,1.3127,1.2328,1.174,1.1041,1.049,1.0147,1.0164,1.0218,1.0425,1.0568,1.0573,1.0586,1.0586,1.0586,1.0586,1.0586,1.0586,1.0586,1.0586,1.0586,1.0491,1.0129,0.908,0.7913,0.6716,0.5855,0.5673,0.5462,0.5298,0.5164,2.7499,2.7872,2.7904,2.7897,2.7869,2.778,2.7407,2.6766,2.6716,2.6708,2.6708,2.6708,2.6607,2.6657,2.6649,2.6564,2.6463,2.648,2.6446,2.6277,2.5541,2.5431,2.5101,2.4626,2.4152,2.4278,2.4288,2.4009,2.4343,2.3465,2.2845,2.2284,2.1591,2.1454,2.1315,2.1167,2.0877,2.0558,2.0196,1.9829,1.9642,2.0106,1.9505,1.8972,1.8289,1.7856,1.7455,1.7013,1.6726,1.66,1.6538,1.6513,1.6513,1.6513,1.6513,1.6525,1.6538,1.6876,1.6626,1.7077,1.7527,1.7526,1.7525,1.7137,1.69,1.6912,1.7075,1.6951,1.6972,1.8151,1.8634,1.8288,1.799,1.6915,1.5113,1.4755,1.4668,1.448,1.4291,1.4108,1.4088,1.442,1.4927,1.4948,1.4608,1.4386,1.3683,1.3121,1.2279,1.0791,1.0514,1.0432,1.0479,1.0526,1.0586,1.0586,1.0586,1.0586,1.0586,1.0586,1.0586,1.0586,1.0586,1.0586,1.0586,1.046,1.0263,1.0066,0.9662,0.8398,0.683,0.5673,0.5395,0.5395,0.5308,2.7776,2.7897,2.7897,2.7897,2.7844,2.7607,2.7325,2.7107,2.6841,2.6708,2.6708,2.6708,2.6708,2.6708,2.6691,2.6708,2.6708,2.6708,2.6674,2.6437,2.6031,2.5736,2.5389,2.5008,2.4626,2.4583,2.46,2.4663,2.433,2.3844,2.2939,2.1968,2.2014,2.2079,2.2198,2.2209,2.1883,2.1594,2.1247,2.1082,2.1249,2.1765,2.0958,1.988,1.9045,1.858,1.8142,1.7573,1.7286,1.7169,1.6746,1.6549,1.6513,1.6513,1.6525,1.6713,1.754,1.8355,1.7101,1.7678,1.8305,1.828,1.8392,1.8229,1.7904,1.7765,1.8003,1.7916,1.7528,1.8369,1.9253,1.9346,1.8976,1.7731,1.6262,1.5825,1.5704,1.5421,1.5186,1.4752,1.4742,1.483,1.5371,1.5337,1.5059,1.52,1.5003,1.4368,1.3512,1.2035,1.0771,1.0681,1.0586,1.0586,1.0586,1.0586,1.0586,1.0586,1.0586,1.0586,1.0586,1.0586,1.0586,1.0586,1.0586,1.0586,1.0539,1.0358,1.0168,0.924,0.7783,0.6437,0.5395,0.5395,0.5395,2.7904,2.767,2.7673,2.7567,2.7411,2.717,2.7059,2.7028,2.6791,2.6708,2.6708,2.6708,2.6708,2.6708,2.6708,2.6708,2.6708,2.6708,2.6708,2.6573,2.6218,2.6159,2.5828,2.56,2.5532,2.5371,2.5314,2.5436,2.4846,2.4112,2.3247,2.2964,2.2637,2.2688,2.2906,2.2977,2.2827,2.2627,2.2427,2.2252,2.2528,2.2965,2.1934,2.0862,2.0025,1.9552,1.9158,1.8598,1.8103,1.7978,1.7495,1.6912,1.7038,1.7188,1.7828,1.8104,1.8367,1.8781,1.823,1.8368,1.8706,1.8832,1.907,1.9095,1.8995,1.8857,1.9133,1.9221,1.8594,1.8378,1.9158,1.9721,1.9164,1.8559,1.7861,1.72,1.6852,1.6539,1.6057,1.5506,1.5352,1.5332,1.542,1.542,1.541,1.5371,1.5323,1.508,1.4357,1.3307,1.171,1.0776,1.0665,1.0586,1.0586,1.0586,1.0586,1.0586,1.0586,1.0586,1.0586,1.0586,1.0586,1.0586,1.0586,1.0586,1.0586,1.0586,1.0326,0.947,0.8581,0.7197,0.6013,0.5395,0.5395,2.7967,2.7388,2.7311,2.7107,2.6733,2.6725,2.6733,2.6708,2.67,2.6708,2.6708,2.6708,2.6708,2.6708,2.6708,2.6708,2.6708,2.6708,2.6708,2.6708,2.6607,2.6522,2.6556,2.664,2.6293,2.6522,2.6489,2.5975,2.5608,2.4783,2.4109,2.4313,2.3722,2.3441,2.3415,2.3445,2.334,2.3266,2.3251,2.3216,2.3327,2.3478,2.3308,2.2526,2.1775,2.1136,2.0644,1.9919,1.9025,1.8943,1.8614,1.7846,1.7738,1.8405,1.9258,1.9434,1.9221,1.9208,1.9171,1.9208,1.902,1.9146,1.9384,1.9547,1.9522,1.9459,1.966,1.9723,1.912,1.902,1.9623,1.9773,1.9412,1.9191,1.8798,1.8182,1.7704,1.7219,1.6514,1.594,1.542,1.542,1.542,1.542,1.542,1.542,1.5396,1.5352,1.5021,1.4219,1.3083,1.1436,1.0839,1.0728,1.0586,1.0586,1.0586,1.0586,1.0649,1.0586,1.0586,1.0586,1.0586,1.0586,1.0586,1.0586,1.0586,1.0586,1.0539,1.0199,0.9192,0.7881,0.6826,0.5947,0.5395,2.7915,2.7714,2.7416,2.7059,2.6716,2.6708,2.6708,2.6708,2.6708,2.6708,2.6708,2.6708,2.6708,2.6708,2.6708,2.6708,2.6708,2.6708,2.6708,2.6708,2.6708,2.6708,2.6708,2.6708,2.6708,2.6708,2.6581,2.6175,2.5392,2.4707,2.4163,2.3847,2.3606,2.3595,2.3584,2.3584,2.3584,2.3584,2.3584,2.3584,2.3584,2.3519,2.3319,2.282,2.224,2.1954,2.1641,2.1595,2.0634,2.0029,1.9789,1.898,1.802,1.9183,1.9698,1.9748,1.9572,1.9635,1.9648,1.9635,1.951,1.951,1.9673,1.9748,1.9799,1.9811,1.9811,1.9811,1.9811,1.9811,1.9798,1.9773,1.9747,1.9709,1.9646,1.9073,1.8514,1.7813,1.7041,1.6433,1.5748,1.5633,1.569,1.5454,1.542,1.542,1.542,1.5396,1.5381,1.4903,1.4516,1.3007,1.1343,1.0958,1.0863,1.1288,1.1655,1.1108,1.0926,1.0807,1.0602,1.0586,1.0586,1.0586,1.0586,1.0586,1.0586,1.0586,1.0507,1.0396,0.9961,0.8705,0.7605,0.6679,0.593,2.8195,2.783,2.728,2.6914,2.6725,2.6708,2.6708,2.6708,2.6708,2.6708,2.6708,2.6708,2.6708,2.6708,2.6708,2.6708,2.6708,2.6708,2.6708,2.6708,2.6708,2.6708,2.6708,2.6708,2.6708,2.6657,2.6132,2.5564,2.4943,2.4328,2.3815,2.3616,2.3584,2.3584,2.3584,2.3584,2.3584,2.3584,2.3584,2.3584,2.3584,2.353,2.3486,2.3087,2.2928,2.2699,2.2756,2.2745,2.1986,2.1177,2.0811,2.009,1.9337,1.9497,1.9761,1.9811,1.9773,1.9811,1.9811,1.9811,1.9811,1.9811,1.9811,1.9811,1.9811,1.9811,1.9811,1.9811,1.9811,1.9811,1.9811,1.9786,1.9773,1.9747,1.9735,1.9437,1.9215,1.89,1.8516,1.8276,1.7884,1.7884,1.7432,1.5897,1.5781,1.542,1.542,1.542,1.542,1.542,1.5079,1.4599,1.2916,1.1996,1.2027,1.2626,1.3317,1.2565,1.1585,1.0917,1.0688,1.0618,1.0586,1.0586,1.0586,1.0586,1.0586,1.0586,1.0586,1.0523,1.0152,0.9582,0.8511,0.747,0.6744,2.8424,2.7743,2.7075,2.675,2.67,2.6708,2.6708,2.6708,2.6708,2.6708,2.6708,2.6708,2.6708,2.6708,2.6708,2.6708,2.6708,2.6708,2.6708,2.6708,2.6708,2.6708,2.6708,2.6708,2.6708,2.6436,2.5919,2.531,2.4697,2.4184,2.3869,2.3659,2.3584,2.3584,2.3584,2.3584,2.3584,2.3584,2.3584,2.3584,2.3584,2.3584,2.3562,2.3562,2.3584,2.3584,2.3584,2.3406,2.2843,2.2238,2.158,2.0957,2.0262,1.994,1.9736,1.9811,1.9811,1.9811,1.9811,1.9811,1.9811,1.9811,1.9811,1.9811,1.9811,1.9811,1.9811,1.9811,1.9811,1.9811,1.9811,1.9811,1.9811,1.9798,1.9785,1.9773,1.9734,1.9708,1.9644,1.9579,1.9566,1.9553,1.857,1.696,1.5958,1.5589,1.542,1.542,1.542,1.542,1.5264,1.5191,1.4471,1.3801,1.3425,1.3672,1.4412,1.4165,1.3136,1.1779,1.0751,1.0649,1.0586,1.0586,1.0586,1.0618,1.0602,1.0586,1.0586,1.0586,1.038,1.0002,0.9358,0.8366,0.7584,2.7837,2.7411,2.7241,2.7004,2.6725,2.6708,2.6708,2.6708,2.6708,2.6708,2.6708,2.6708,2.6708,2.6708,2.6708,2.6708,2.6708,2.6708,2.6708,2.6708,2.6708,2.6708,2.6708,2.6708,2.6708,2.6393,2.5971,2.5542,2.4726,2.4333,2.4006,2.3627,2.3595,2.3584,2.3584,2.3584,2.3584,2.3584,2.3614,2.3629,2.3693,2.3663,2.3599,2.3584,2.3584,2.3584,2.3584,2.3584,2.3154,2.2597,2.2016,2.159,2.1266,2.0706,2.0408,2.0345,2.0282,1.9901,1.9927,1.994,1.9952,1.9811,1.9811,1.9811,1.9811,1.9811,1.9811,1.9811,1.9811,1.9811,1.9811,1.9811,1.9811,1.9811,1.9798,1.9798,1.9773,1.9773,1.9747,1.9734,1.9721,1.9695,1.9462,1.7775,1.6001,1.5676,1.542,1.542,1.542,1.542,1.542,1.542,1.542,1.5405,1.4932,1.4643,1.5021,1.4996,1.4693,1.3295,1.1958,1.0744,1.0586,1.0634,1.0665,1.0697,1.0665,1.0586,1.0586,1.0586,1.0586,1.0326,0.9811,0.9182,0.8318]},{"header":{"parameterUnit":"m.s-1","parameterCategory":1,"la1":31.0,"la2":29.5877,"lo1":-88.7671,"lo2":-86.6584,"dy":0.0162,"dx":0.0185,"nx":115,"ny":88,"refTime":"2026-05-10T12:00:00:Z","depth":0,"parameterNumber":3,"parameterNumberName":"V-component_of_WINDS"},"data":[0.0,0.0,0.0,0.0,0.0,0.0,0.0,0.0,0.0,0.0,0.0,0.0,0.0,0.0,0.0,0.0,0.0,0.0,0.0,0.0,0.0,0.0,0.0,0.0,0.0,0.0,0.0,0.0,0.0,0.0,0.0,0.0,0.0,0.0,0.0,0.0,0.0,0.0,0.0,0.0,0.0,0.0,0.0,0.0,0.0,0.0,0.0,0.0,0.0,0.0,0.0,0.0,0.0,0.0,0.0,0.0,0.0,0.0,0.0,0.0,0.0,0.0,0.0,0.0,0.0,0.0,0.0,0.0,0.0,0.0,0.0,0.0,0.0,0.0,0.0,0.0,0.0,0.0,0.0,0.0,0.0,0.0,0.0,0.0,0.0,0.0,0.0,0.0,0.0,0.0,0.0,0.0,0.0,0.0,0.0,0.0,0.0,0.0,0.0,0.0,0.0,0.0,0.0,0.0,0.0,0.0,0.0,0.0,0.0,0.0,0.0,0.0,0.0,0.0,0.0,0.0,0.0,0.0,0.0,0.0,0.0,0.0,0.0,0.0,0.0,0.0,0.0,0.0,0.0,0.0,0.0,0.0,0.0,0.0,0.0,0.0,0.0,0.0,0.0,0.0,0.0,0.0,0.0,0.0,0.0,0.0,0.0,0.0,0.0,0.0,0.0,0.0,0.0,0.0,0.0,0.0,0.0,0.0,0.0,0.0,0.0,0.0,0.0,0.0,0.0,0.0,0.0,0.0,0.0,0.0,0.0,0.0,0.0,0.0,0.0,0.0,0.0,0.0,0.0,0.0,0.0,0.0,0.0,0.0,0.0,0.0,0.0,0.0,0.0,0.0,0.0,0.0,0.0,0.0,0.0,0.0,0.0,0.0,0.0,0.0,0.0,0.0,0.0,0.0,0.0,0.0,0.0,0.0,0.0,0.0,0.0,0.0,0.0,0.0,0.0,0.0,0.0,0.0,0.0,0.0,0.0,0.0,0.0,0.0,0.0,0.0,0.0,0.0,0.0,0.0,0.0,0.0,0.0,0.0,0.0,0.0,0.0,0.0,0.0,0.0,0.0,0.0,0.0,0.0,0.0,0.0,0.0,0.0,0.0,0.0,0.0,0.0,0.0,0.0,0.0,0.0,0.0,0.0,0.0,0.0,0.0,0.0,0.0,0.0,0.0,0.0,0.0,0.0,0.0,0.0,0.0,0.0,0.0,0.0,0.0,0.0,0.0,0.0,0.0,0.0,0.0,0.0,0.0,0.0,0.0,0.0,0.0,0.0,0.0,0.0,0.0,0.0,0.0,0.0,0.0,0.0,0.0,0.0,0.0,0.0,0.0,0.0,0.0,0.0,0.0,0.0,0.0,0.0,0.0,0.0,0.0,0.0,0.0,0.0,0.0,0.0,0.0,0.0,0.0,0.0,0.0,0.0,0.0,0.0,0.0,0.0,0.0,0.0,0.0,0.0,0.0,0.0,0.0,0.0,0.0,0.0,0.0,0.0,0.0,0.0,0.0,0.0,0.0,0.0,0.0,0.0,0.0,0.0,0.0,0.0,0.0,0.0,0.0,0.0,0.0,0.0,0.0,0.0,0.0,0.0,0.0,0.0,0.0,0.0,0.0,0.0,0.0,0.0,0.0,0.0,0.0,0.0,0.0,0.0,0.0,0.0,0.0,0.0,0.0,0.0,0.0,0.0,0.0,0.0,0.0,0.0,0.0,0.0,0.0,0.0,0.0,0.0,0.0,0.0,0.0,0.0,0.0,0.0,0.0,0.0,0.0,0.0,0.0,0.0,0.0,0.0,0.0,0.0,0.0,0.0,0.0,0.0,0.0,0.0,0.0,0.0,0.0,0.0,0.0,0.0,0.0,0.0,0.0,0.0,0.0,0.0,0.0,0.0,0.0,0.0,0.0,0.0,0.0,0.0,0.0,0.0,0.0,0.0,0.0,0.0,0.0,0.0,0.0,0.0,0.0,0.0,0.0,0.0,0.0,0.0,0.0,0.0,0.0,0.0,0.0,0.0,0.0,0.0,0.0,0.0,0.0,0.0,0.0,0.0,0.0,0.0,0.0,0.0,0.0,0.0,0.0,0.0,0.0,0.0,0.0,0.0,0.0,0.0,0.0,0.0,0.0,0.0,0.0,0.0,0.0,0.0,0.0,0.0,0.0,0.0,0.0,0.0,0.0,0.0,0.0,0.0,0.0,0.0,0.0,0.0,0.0,0.0,0.0,0.0,0.0,0.0,0.0,0.0,0.0,0.0,0.0,0.0,0.0,0.0,0.0,0.0,0.0,0.0,0.0,0.0,0.0,0.0,0.0,0.0,0.0,0.0,0.0,0.0,0.0,0.0,0.0,0.0,0.0,0.0,0.0,0.0,0.0,0.0,0.0,0.0,0.0,0.0,0.0,0.0,0.0,0.0,0.0,0.0,0.0,0.0,0.0,0.0,0.0,0.0,0.0,0.0,0.0,0.0,0.0,0.0,0.0,0.0,0.0,0.0,0.0,0.0,0.0,0.0,0.0,0.0,0.0,0.0,0.0,0.0,0.0,0.0,0.0,0.0,0.0,0.0,0.0,0.0,0.0,0.0,0.0,0.0,0.0,0.0,0.0,0.0,0.0,0.0,0.0,0.0,0.0,0.0,0.0,0.0,0.0,0.0,0.0,0.0,0.0,0.0,0.0,0.0,0.0,0.0,0.0,0.0,0.0,0.0,0.0,0.0,0.0,0.0,0.0,0.0,0.0,0.0,0.0,0.0,0.0,0.0,0.0,0.0,0.0,0.0,0.0,0.0,0.0,0.0,0.0,0.0,0.0,0.0,0.0,0.0,0.0,0.0,0.0,0.0,0.0,0.0,0.0,0.0,0.0,0.0,0.0,0.0,0.0,0.0,0.0,0.0,0.0,0.0,0.0,0.0,0.0,0.0,0.0,0.0,0.0,0.0,0.0,0.0,0.0,0.0,0.0,0.0,0.0,0.0,0.0,0.0,0.0,0.0,0.0,0.0,0.0,0.0,0.0,0.0,0.0,0.0,0.0,0.0,0.0,0.0,0.0,0.0,0.0,0.0,0.0,0.0,0.0,0.0,0.0,0.0,0.0,0.0,0.0,0.0,0.0,0.0,0.0,0.0,0.0,0.0,0.0,0.0,0.0,0.0,0.0,0.0,0.0,0.0,0.0,0.0,0.0,0.0,0.0,0.0,0.0,0.0,0.0,0.0,0.0,0.0,0.0,0.0,0.0,0.0,0.0,0.0,0.0,0.0,0.0,0.0,0.0,0.0,0.0,0.0,0.0,0.0,0.0,0.0,0.0,0.0,0.0,0.0,0.0,0.0,0.0,0.0,0.0,0.0,0.0,0.0,0.0,0.0,0.0,0.0,0.0,0.0,0.0,0.0,0.0,0.0,0.0,0.0,0.0,0.0,0.0,0.0,0.0,0.0,0.0,0.0,0.0,0.0,0.0,0.0,0.0,0.0,0.0,0.0,0.0,0.0,0.0,0.0,0.0,0.0,0.0,0.0,0.0,0.0,0.0,0.0,0.0,0.0,0.0,0.0,0.0,0.0,0.0,0.0,0.0,0.0,0.0,0.0,0.0,0.0,0.0,0.0,0.0,0.0,0.0,0.0,0.0,0.0,0.0,0.0,0.0,0.0,0.0,0.0,0.0,0.0,0.0,0.0,0.0,0.0,0.0,0.0,0.0,0.0,0.0,0.0,0.0,0.0,0.0,0.0,0.0,0.0,0.0,0.0,0.0,0.0,0.0,0.0,0.0,0.0,0.0,0.0,0.0,0.0,0.0,0.0,0.0,0.0,0.0,0.0,0.0,0.0,0.0,0.0,0.0,0.0,0.0,0.0,0.0,0.0,0.0,0.0,0.0,0.0,0.0,0.0,0.0,0.0,0.0,0.0,0.0,0.0,0.0,0.0,0.0,0.0,0.0,0.0,0.0,0.0,0.0,0.0,0.0,0.0,0.0,0.0,0.0,0.0,0.0,0.0,0.0,0.0,0.0,0.0,0.0,0.0,0.0,0.0,0.0,0.0,0.0,0.0,0.0,0.0,0.0,0.0,0.0,0.0,0.0,0.0,0.0,0.0,0.0,0.0,0.0,0.0,0.0,0.0,0.0,0.0,0.0,0.0,0.0,0.0,0.0,0.0,0.0,0.0,0.0,0.0,0.0,0.0,0.0,0.0,0.0,0.0,0.0,0.0,0.0,0.0,0.0,0.0,0.0,0.0,0.0,0.0,0.0,0.0,0.0,0.0,0.0,0.0,0.0,0.0,0.0,0.0,0.0,0.0,0.0,0.0,0.0,0.0,0.0,0.0,0.0,0.0,0.0,0.0,0.0,0.0,0.0,0.0,0.0,0.0,0.0,0.0,0.0,0.0,0.0,0.0,0.0,0.0,0.0,0.0,0.0,0.0,0.0,0.0,0.0,0.0,0.0,0.0,0.0,0.0,0.0,0.0,0.0,0.0,0.0,0.0,0.0,0.0,0.0,0.0,0.0,0.0,0.0,0.0,0.0,0.0,0.0,0.0,0.0,0.0,0.0,0.0,0.0,0.0,0.0,0.0,0.0,0.0,0.0,0.0,0.0,0.0,0.0,0.0,0.0,0.0,0.0,0.0,0.0,0.0,0.0,0.0,0.0,0.0,0.0,0.0,0.0,0.0,0.0,0.0,0.0,0.0,0.0,0.0,0.0,0.0,0.0,0.0,0.0,0.0,0.0,0.0,0.0,0.0,0.0,0.0,0.0,0.0,0.0,0.0,0.0,0.0,0.0,0.0,0.0,0.0,0.0,0.0,0.0,0.0,0.0,0.0,0.0,0.0,0.0,0.0,0.0,0.0,0.0,0.0,0.0,0.0,0.0,0.0,0.0,0.0,0.0,0.0,0.0,0.0,0.0,0.0,0.0,0.0,0.0,0.0,0.0,0.0,0.0,0.0,0.0,0.0,0.0,0.0,0.0,0.0,0.0,0.0,0.0,0.0,0.0,0.0,0.0,0.0,0.0,0.0,0.0,0.0,0.0,0.0,0.0,0.0,0.0,0.0,0.0,0.0,0.0,0.0,0.0,0.0,0.0,0.0,0.0,0.0,0.0,0.0,0.0,0.0,0.0,0.0,0.0,0.0,0.0,0.0,0.0,0.0,0.0,0.0,0.0,0.0,0.0,0.0,0.0,0.0,0.0,0.0,0.0,0.0,0.0,0.0,0.0,0.0,0.0,0.0,0.0,0.0,0.0,0.0,0.0,0.0,0.0,0.0,0.0,0.0,0.0,0.0,0.0,0.0,0.0879,0.059,0.0,0.0,0.0,0.0,0.0,0.0,0.0,0.0,0.0,0.0,0.0,0.0,0.0,0.0,0.0,0.0,0.0,0.0,0.0,0.0,0.0,0.0,0.0,0.0,0.0,0.0,0.0,0.0,0.0,0.0,0.0,0.0,0.0,0.0,0.0,0.0,0.0,0.0,0.0,0.0,0.0,0.0,0.0,0.0,0.0,0.0,0.0,0.0,0.0,0.0,0.0,0.0,0.0,0.0,0.0,0.0,0.0,0.0,0.0,0.0,0.0,0.0,0.0,0.0,0.0,0.0,0.0,0.0,0.0,0.0,0.0,0.0,0.0,0.0,0.0,0.0,0.0,0.0,0.0,0.0,0.0,0.0,0.0,0.0,0.0,0.0,0.0,0.0,0.0,0.0,0.0,0.0,0.0,0.0,0.0,0.0,0.0,0.0,0.0,0.0,0.0,0.0,0.0,0.0,0.0,0.0,0.0,0.0,0.0,0.0,0.0,0.1137,0.3475,0.3519,0.0,0.0,0.0,0.0,0.0,0.0,0.0,0.0,0.0,0.0,0.0,0.0,0.0,0.0,0.0,0.0,0.0,0.0,0.0,0.0,0.0,0.0,0.0,0.0,0.0,0.0,0.0,0.0,0.0,0.0,0.0,0.0,0.0,0.0,0.0,0.0,0.0,0.0,0.0,0.0,0.0,0.0,0.0,0.0,0.0,0.0,0.0,0.0,0.0,0.0,0.0,0.0,0.0,0.0,0.0,0.0,0.0,0.0,0.0,0.0,0.0,0.0,0.0,0.0,0.0,0.0,0.0,0.0,0.0,0.0,0.0,0.0,0.0,0.0,0.0,0.0,0.0,0.0,0.0,0.0,0.0,0.0,0.0,0.0,0.0,0.0,0.0,0.0,0.0,0.0,0.0,0.0,0.0,0.0,0.0,0.0,0.0,0.0,0.0,0.0,0.0,0.0,0.0,0.0,0.0,0.0,0.0,0.0,0.0,0.0,0.0,0.0,0.282,0.3896,0.3901,0.3398,0.0,0.0,0.0,0.0,0.0,0.0,0.0,0.0,0.0,0.0,0.0,0.0,0.0,0.0,0.0,0.0,0.0,0.0,0.0,0.0,0.0,0.0,0.0,0.0,0.0,0.0,0.0,0.0,0.0,0.0,0.0,0.0,0.0,0.0,0.0,0.0,0.0,0.0,0.0,0.0,0.0,0.0,0.0,0.0,0.0,0.0,0.0,0.0,0.0,0.0,0.0,0.0,0.0,0.0,0.0,0.0,0.0,0.0,0.0,0.0,0.0,0.0,0.0,0.0,0.0,0.0,0.0,0.0,0.0,0.0,0.0,0.0,0.0,0.0,0.0,0.0,0.0,0.0,0.0,0.0,0.0,0.0,0.0,0.0,0.0,0.0,0.0,0.0,0.0,0.0,0.0,0.0,0.0,0.0,0.0,0.0,0.0,0.0,0.0,0.0,0.0,0.0,0.0,0.0,0.0,0.0,0.0,0.0,0.0,0.0,0.3911,0.3911,0.3906,0.3911,0.3909,0.3881,0.0,0.0,0.0,0.0,0.0,0.0,0.0,0.0,0.0,0.0,0.0,0.0,0.0,0.0,0.0,0.0,0.0,0.0,0.0,0.0,0.0,0.0,0.0,0.0,0.0,0.0,0.0,0.0,0.0,0.0,0.0,0.0,0.0,0.0,0.0,0.0,0.0,0.0,0.0,0.0,0.0,0.0,0.0,0.0,0.0,0.0,0.0,0.0,0.0,0.0,0.0,0.0,0.0,0.0,0.0,0.0,0.0,0.0,0.0,0.0,0.0,0.0,0.0,0.0,0.0,0.0,0.0,0.0,0.0,0.0,0.0,0.0,0.0,0.0,0.0,0.0,0.0,0.0,0.0,0.0,0.0,0.0,0.0,0.0,0.0,0.0,0.0,0.0,0.0,0.0,0.0,0.0,0.0,0.0,0.0,0.0,0.0,0.0,0.0,0.0,0.0,0.0,0.0,0.0,0.0,0.0,0.0,0.0,0.0,0.3911,0.3911,0.3874,0.3897,0.3902,0.0,0.0,0.0,0.0,0.0,0.0,0.0,0.0,0.0,0.0,0.0,0.0,0.0,0.0,0.0,0.0,0.0,0.0,0.0,0.0,0.0,0.0,0.0,0.0,0.0,0.0,0.0,0.0,0.0,0.0,0.0,0.0,0.0,0.0,0.0,0.0,0.0,0.0,0.0,0.0,0.0,0.0,0.0,0.0,0.0,0.0,0.0,0.0,0.0,0.0,0.0,0.0,0.0,0.0,0.0,0.0,0.0,0.0,0.0,0.0,0.0,0.0,0.0,0.0,0.0,0.0,0.0,0.0,0.0,0.0,0.0,0.0,0.0,0.0,0.0,0.0,0.0,0.0,0.0,0.0,0.0,0.0,0.0,0.0,0.0,0.0,0.0,0.0,0.0,0.0,0.0,0.0,0.0,0.0,0.0,0.0,0.0,0.0,0.0,0.0,0.0,0.0,0.0,0.0,0.0,0.0,0.0,0.0,0.0,0.3742,0.3911,0.3551,0.2836,0.2735,0.3059,0.0,0.0,0.0,0.0,0.0,0.0,0.0,0.0,0.0,0.0,0.0,0.0,0.0,0.0,0.0,0.0,0.0,0.0,0.0,0.0,0.0,0.0,0.0,0.0,0.0,0.0,0.0,0.0,0.0,0.0,0.0,0.0,0.0,0.0,0.0,0.0,0.0,0.0,0.0,0.0,0.0,0.0,0.0,0.0,0.0,0.0,0.0,0.0,0.0,0.0,0.0,0.0,0.0,0.0,0.0,0.0,0.0,0.0,0.0,0.0,0.0,0.0,0.0,0.0,0.0,0.0,0.0,0.0,0.0,0.0,0.0,0.0,0.0,0.0,0.0,0.0,0.0,0.0,0.0,0.0,0.0,0.0,0.0,0.0,0.0,0.0,0.0,0.0,0.0,0.0,0.0,0.0,0.0,0.0,0.0,0.0,0.0,0.0,0.0,0.0,0.0,0.0,0.0,0.0,0.0,0.0,0.0,0.0,0.0,0.3209,0.0,0.3338,0.0,0.246,0.2621,0.0,0.0,0.0,0.0,0.0,0.0,0.0,0.0,0.0,0.0,0.0,0.0,0.0,0.0,0.0,0.0,0.0,0.0,0.0,0.0,0.0,0.0,0.0,0.0,0.0,0.0,0.0,0.0,0.0,0.0,0.0,0.0,0.0,0.0,0.0,0.0,0.0,0.0,0.0,0.0,0.0,0.0,0.0,0.0,0.0,0.0,0.0,0.0,0.0,0.0,0.0,0.0,0.0,0.0,0.0,0.0,0.0,0.0,0.0,0.0,0.0,0.0,0.0,0.0,0.0,0.0,0.0,0.0,0.0,0.0,0.0,0.0,0.0,0.0,0.0,0.0,0.0,0.0,0.0,0.0,0.0,0.0,0.0,0.0,0.0,0.0,0.0,0.0,0.0,0.0,0.0,0.0,0.0,0.0,0.0,0.0,0.0,0.0,0.0,0.0,0.0,0.0,0.0,0.0,0.0,0.0,0.0,0.0,0.0743,0.2035,0.3272,0.3301,0.21,0.3141,0.2636,0.0,0.0,0.0,0.0,0.0,0.0,0.0,0.0,0.0,0.0,0.0,0.0,0.0,0.0,0.0,0.0,0.0,0.0,0.0,0.0,0.0,0.0,0.0,0.0,0.0,0.0,0.0,0.0,0.0,0.0,0.0,0.0,0.0,0.0,0.0,0.0,0.0,0.0,0.0,0.0,0.0,0.0,0.0,0.0,0.0,0.0,0.0,0.0,0.0,0.0,0.0,0.0,0.0,0.0,0.0,0.0,0.0,0.0,0.0,0.0,0.0,0.0,0.0,0.0,0.0,0.0,0.0,0.0,0.0,0.0,0.0,0.0,0.0,0.0,0.0,0.0,0.0,0.0,0.0,0.0,0.0,0.0,0.0,0.0,0.0,0.0,0.0,0.0,0.0,0.0,0.0,0.0,0.0,0.0,0.0,0.0,0.0,0.0,0.0,0.0,0.0,0.0,0.0,0.0,0.0,0.0,0.0,0.0,0.0,0.3319,0.3703,0.3508,0.2736,0.2314,0.181,0.0,0.0,0.0,0.0,0.0,0.0,0.0,0.0,0.0,0.0,0.0,0.0,0.0,0.0,0.0,0.0,0.0,0.0,0.0,0.0,0.0,0.0,0.0,0.0,0.0,0.0,0.0,0.0,0.0,0.0,0.0,0.0,0.0,0.0,0.0,0.0,0.0,0.0,0.0,0.0,0.0,0.0,0.0,0.0,0.0,0.0,0.0,0.0,0.0,0.0,0.0,0.0,0.0,0.0,0.0,0.0,0.0,0.0,0.0,0.0,0.0,0.0,0.0,0.0,0.0,0.0,0.0,0.0,0.0,0.0,0.0,0.0,0.0,0.0,0.0,0.0,0.0,0.0,0.0,0.0,0.0,0.0,0.0,0.0,0.0,0.0,0.0,0.0,0.0,0.0,0.0,0.0,0.0,0.0,0.0,0.0,0.0,0.0,0.0,0.0,0.0,0.0,0.0,0.0,0.0,0.0,0.0,0.0,0.0,0.4,0.3923,0.3678,0.3213,0.2489,0.2103,0.2025,0.0,0.0,0.0,0.0,0.0,0.0,0.0,0.0,0.0,0.0,0.0,0.0,0.0,0.0,0.0,0.0,0.0,0.0,0.0,0.0,0.0,0.0,0.0,0.0,0.0,0.0,0.0,0.0,0.0,0.0,0.0,0.0,0.0,0.0,0.0,0.0,0.0,0.0,0.0,0.0,0.0,0.0,0.0,0.0,0.0,0.0,0.0,0.0,0.0,0.0,0.0,0.0,0.0,0.0,0.0,0.0,0.0,0.0,0.0,0.0,0.0,0.0,0.0,0.0,0.0,0.0,0.0,0.0,0.0,0.0,0.0,0.0,0.0,0.0,0.0,0.0,0.0,0.0,0.0,0.0,0.0,0.0,0.0,0.0,0.0,0.0,0.0,0.0,0.0,0.0,0.0,0.0,0.0,0.0,0.0,0.0,0.0,0.0,0.0,0.0,0.0,0.0,0.0,0.0,0.0,0.0,0.0,0.0,0.4128,0.3974,0.3766,0.3517,0.3473,0.3211,0.0,0.0,0.0,0.0,0.0,0.0,0.0,0.0,0.0,0.0,0.0,0.0,0.0,0.0,0.0,0.0,0.0,0.0,0.0,0.0,0.0,0.0,0.0,0.0,0.0,0.0,0.0,0.0,0.0,0.0,0.0,0.0,0.0,0.0,0.0,0.0,0.0,0.0,0.0,0.0,0.0,0.0,0.0,0.0,0.0,0.0,0.0,0.0,0.0,0.0,0.0,0.0,0.0,0.0,0.0,0.0,0.0,0.0,0.0,0.0,0.0,0.0,0.0,0.0,0.0,0.0,0.0,0.0,0.0,0.0,0.0,0.0,0.0,0.0,0.0,0.0,0.0,0.0,0.0,0.0,0.0,0.0,0.0,0.0,0.0,0.0,0.0,0.0,0.0,0.0,0.0,0.0,0.0,0.0,0.0,0.0,0.0,0.0,0.0,0.0,0.0,0.0,0.0,0.0,0.0,0.0,0.0,0.0,0.0,0.4245,0.402,0.3786,0.3589,0.3425,0.327,0.0,0.0,0.0,0.0,0.0,0.0,0.0,0.0,0.0,0.0,0.0,0.0,0.0,0.0,0.0,0.0,0.0,0.0,0.0,0.0,0.0,0.0,0.0,0.0,0.0,0.0,0.0,0.0,0.0,0.0,0.0,0.0,0.0,0.0,0.0,0.0,0.0,0.0,0.0,0.0,0.0,0.0,0.0,0.0,0.0,0.0,0.0,0.0,0.0,0.0,0.0,0.0,0.0,0.0,0.0,0.0,0.0,0.0,0.0,0.0,0.0,0.0,0.0,0.0,0.0,0.0,0.0,0.0,0.0,0.0,0.0,0.0,0.0,0.0,0.0,0.0,0.0,0.0,0.0,0.0,0.0,0.0,0.0,0.0,0.0,0.0,0.0,0.0,0.0,0.0,0.0,0.0,0.0,0.0,0.0,0.0,0.0,0.0,0.0,0.0,0.0,0.0,0.0,0.0,0.0,0.0,0.0,0.0,0.3721,0.4284,0.4123,0.3967,0.3822,0.3651,0.3382,0.0,0.0,0.0,0.0,0.0,0.0,0.0,0.0,0.0,0.0,0.0,0.0,0.0,0.0,0.0,0.0,0.0,0.0,0.0,0.0,0.0,0.0,0.0,0.0,0.0,0.0,0.0,0.0,0.0,0.0,0.0,0.0,0.0,0.0,0.0,0.0,0.0,0.0,0.0,0.0,0.0,0.0,0.0,0.0,0.0,0.0,0.0,0.0,0.0,0.0,0.0,0.0,0.0,0.0,0.0,0.0,0.0,0.0,0.0,0.0,0.0,0.0,0.0,0.0,0.0,0.0,0.0,0.0,0.0,0.0,0.0,0.0,0.0,0.0,0.0,0.0,0.0,0.0,0.0,0.0,0.0,0.0,0.0,0.0,0.0,0.0,0.0,0.0,0.0,0.0,0.0,0.0,0.0,0.0,0.0,0.0,0.0,0.0,0.0,0.0,0.0,0.0,0.0,0.0,0.0,0.0,0.0,0.0,0.2923,0.4284,0.4264,0.4192,0.4107,0.3934,0.3472,0.0,0.0,0.0,0.0,0.0,0.0,0.0,0.0,0.0,0.0,0.0,0.0,0.0,0.0,0.0,0.0,0.0,0.0,0.0,0.0,0.0,0.0,0.0,0.0,0.0,0.0,0.0,0.0,0.0,0.0,0.0,0.0,0.0,0.0,0.0,0.0,0.0,0.0,0.0,0.0,0.0,0.0,0.0,0.0,0.0,0.0,0.0,0.0,0.0,0.0,0.0,0.0,0.0,0.0,0.0,0.0,0.0,0.0,0.0,0.0,0.0,0.0,0.0,0.0,0.0,0.0,0.0,0.0,0.0,0.0,0.0,0.0,0.0,0.0,0.0,0.0,0.0,0.0,0.0,0.0,0.0,0.0,0.0,0.0,0.0,0.0,0.0,0.0,0.0,0.0,0.0,0.0,0.0,0.0,0.0,0.0,0.0,0.0,0.0,0.0,0.0,0.0,0.0,0.0,0.0,0.0,0.0,0.0,0.4134,0.4438,0.4445,0.4362,0.4192,0.3687,0.3417,0.0,0.0,0.0,0.0,0.0,0.0,0.0,0.0,0.0,0.0,0.0,0.0,0.0,0.0,0.0,0.0,0.0,0.0,0.0,0.0,0.0,0.0,0.0,0.0,0.0,0.0,0.0,0.0,0.0,0.0,0.0,0.0,0.0,0.0,0.0,0.0,0.0,0.0,0.0,0.0,0.0,0.0,0.0,0.0,0.0,0.0,0.0,0.0,0.8326,0.0,0.0,0.0,0.0,0.0,0.0,0.0,0.0,0.0,0.0,0.0,0.0,0.0,0.0,0.0,0.0,0.0,0.0,0.0,0.0,0.0,0.0,0.0,0.0,0.0,0.0,0.0,0.0,0.0,0.0,0.0,0.0,0.0,0.0,0.0,0.0,0.0,0.0,0.0,0.0,0.0,0.0,0.0,0.0,0.0,0.0,0.0,0.0,0.0,0.0,0.0,0.0,0.0,0.0,0.0,0.0,0.0,0.0,0.0,0.4445,0.4364,0.4364,0.4291,0.4142,0.3693,0.3499,0.0,0.0,0.0,0.0,0.0,0.0,0.0,0.0,0.0,0.0,0.0,0.0,0.0,0.0,0.0,0.0,0.0,0.0,0.0,0.0,0.0,0.0,0.0,0.0,0.0,0.0,0.0,0.0,0.0,0.0,0.0,0.0,0.0,0.0,0.0,0.0,0.0,0.0,0.0,0.0,0.0,0.0,0.0,0.0,0.0,0.0,0.0,0.0,0.0,0.0,0.0,0.0,0.0,0.0,0.0,0.0,0.0,0.0,0.0,0.0,0.0,0.0,0.0,0.0,0.0,0.0,0.0,0.0,0.0,0.0,0.0,0.0,0.0,0.0,0.0,0.0,0.0,0.0,0.0,0.0,0.0,0.0,0.0,0.0,0.0,0.0,0.0,0.0,0.0,0.0,0.0,0.0,0.0,0.0,0.0,0.0,0.0,0.0,0.0,0.0,0.0,0.0,0.0,0.0,0.0,0.0,0.0,0.4404,0.4413,0.4231,0.4168,0.4148,0.4119,0.3799,0.3638,0.3648,0.0,0.0,0.0,0.0,0.0,0.0,0.0,0.0,0.0,0.0,0.0,0.0,0.0,0.0,0.0,0.0,0.0,0.0,0.0,0.0,0.0,0.0,0.0,0.0,0.0,0.0,0.0,0.0,0.0,0.0,0.0,0.0,0.0,0.0,0.0,0.0,0.0,0.0,0.5195,0.834,0.0,0.0,0.0,0.0,0.0,0.0,0.0,0.0,0.8039,0.0,0.0,0.0,0.0,0.0,0.0,0.0,0.0,0.0,0.0,0.0,0.0,0.0,0.0,0.0,0.0,0.0,0.0,0.0,0.0,0.0,0.0,0.0,0.0,0.0,0.0,0.0,0.0,0.0,0.0,0.0,0.0,0.0,0.0,0.0,0.0,0.0,0.0,0.0,0.0,0.0,0.0,0.0,0.0,0.0,0.0,0.0,0.0,0.0,0.0,0.0,0.0,0.0,0.0,0.0,0.0,0.4079,0.4374,0.4429,0.4276,0.4061,0.4022,0.4177,0.3863,0.3744,0.3827,0.0,0.0,0.0,0.0,0.0,0.0,0.0,0.0,0.0,0.0,0.0,0.0,0.0,0.0,0.0,0.0,0.0,0.0,0.0,0.0,0.0,0.0,0.0,0.0,0.0,0.0,0.0,0.0,0.0,0.0,0.0,0.0,0.0,0.0,0.0,0.0,0.0,0.0,0.0,0.9296,1.0292,0.0,0.0,0.0,0.0,0.0,0.0,0.0,0.0,0.9609,0.0,0.0,0.0,0.0,0.0,0.0,0.0,0.0,0.0,0.0,0.0,0.0,0.0,0.0,0.0,0.0,0.0,0.0,0.0,0.0,0.0,0.0,0.0,0.0,0.0,0.0,0.0,0.0,0.0,0.0,0.0,0.0,0.0,0.0,0.0,0.0,0.0,0.0,0.0,0.0,0.0,0.0,0.0,0.0,0.0,0.0,0.0,0.0,0.0,0.0,0.0,0.0,0.0,0.0,0.0,0.403,0.4179,0.4179,0.4193,0.4098,0.4065,0.4046,0.3888,0.384,0.0,0.0,0.0,0.0,0.0,0.0,0.0,0.0,0.0,0.0,0.0,0.0,0.0,0.0,0.0,0.0,0.0,0.0,0.0,0.0,0.0,0.0,0.0,0.0,0.0,0.0,0.0,0.0,0.0,0.0,0.0,0.0,0.0,0.0,0.0,0.0,0.0,0.0,0.0,0.0,0.955,1.0292,1.0245,0.0,0.0,0.0,0.0,0.0,0.0,0.8518,0.9612,0.0,0.0,0.0,0.0,0.0,0.0,0.0,0.0,0.0,0.0,0.0,0.0,0.0,0.0,0.0,0.0,0.0,0.0,0.0,0.0,0.0,0.0,0.0,0.0,0.0,0.0,0.0,0.0,0.0,0.0,0.0,0.0,0.0,0.0,0.0,0.0,0.0,0.0,0.0,0.0,0.0,0.0,0.0,0.0,0.0,0.0,0.0,0.0,0.0,0.0,0.0,0.0,0.0,0.0,0.0,0.4205,0.4133,0.4072,0.4136,0.4148,0.4076,0.3958,0.3912,0.3911,0.0,0.0,0.0,0.0,0.0,0.0,0.0,0.0,0.0,0.0,0.0,0.0,0.0,0.0,0.0,0.0,0.0,0.0,0.0,0.0,0.0,0.0,0.0,0.0,0.0,0.0,0.0,0.0,0.0,0.0,0.0,0.0,0.0,0.0,0.0,0.0,0.0,0.0,0.0,0.0,0.0,1.0248,1.02,1.0045,0.0,0.0,0.0,0.0,0.8076,0.9235,0.0,0.0,0.0,0.0,0.0,0.0,0.0,0.0,0.0,0.0,0.0,0.0,0.0,0.0,0.0,0.0,0.0,0.0,0.0,0.0,0.0,0.0,0.0,0.0,0.0,0.0,0.0,0.0,0.0,0.0,0.0,0.0,0.0,0.0,0.0,0.0,0.0,0.0,0.0,0.0,0.0,0.0,0.0,0.0,0.0,0.0,0.0,0.0,0.0,0.0,0.0,0.0,0.0,0.0,0.0,0.0,0.4289,0.438,0.4368,0.4283,0.4058,0.3998,0.4163,0.3995,0.3911,0.0,0.0,0.0,0.0,0.0,0.0,0.0,0.0,0.0,0.0,0.0,0.0,0.0,0.0,0.0,0.0,0.0,0.0,0.0,0.0,0.0,0.0,0.0,0.0,0.0,0.0,0.0,0.0,0.0,0.0,0.0,0.0,0.0,0.0,0.0,0.0,0.0,0.0,0.0,0.0,0.0,1.0142,1.0196,0.9343,0.8989,0.0,0.0,0.8221,0.9659,1.0023,0.0,0.0,0.0,0.0,0.0,0.0,0.0,0.0,0.0,0.0,0.0,0.0,0.0,0.0,0.0,0.0,0.0,0.0,0.0,0.0,0.0,0.0,0.0,0.0,0.0,0.0,0.0,0.0,0.0,0.0,0.0,0.0,0.0,0.0,0.0,0.0,0.0,0.0,0.0,0.0,0.0,0.0,0.0,0.0,0.0,0.0,0.0,0.0,0.0,0.0,0.0,0.0,0.0,0.0,0.0,0.4462,0.4419,0.4479,0.442,0.4305,0.4262,0.4207,0.4154,0.4051,0.3982,0.0,0.0,0.0,0.0,0.0,0.0,0.0,0.0,0.0,0.0,0.0,0.0,0.0,0.0,0.0,0.0,0.0,0.0,0.0,0.0,0.0,0.0,0.0,0.0,0.0,0.0,0.0,0.0,0.0,0.0,0.0,0.0,0.0,0.0,0.0,0.0,0.0,0.0,0.0,0.0,0.0,0.0,1.02,0.9766,0.0,0.0,0.0,0.9375,1.0081,0.0,0.0,0.0,0.0,0.0,0.0,0.0,0.0,0.0,0.0,0.0,0.0,0.0,0.0,0.0,0.0,0.0,0.0,0.0,0.0,0.0,0.0,0.0,0.0,0.0,0.0,0.0,0.0,0.0,0.0,0.0,0.0,0.0,0.0,0.0,0.0,0.0,0.0,0.0,0.0,0.0,0.0,0.0,0.0,0.0,0.0,0.0,0.0,0.0,0.0,0.0,0.0,0.0,0.0,0.0,0.0,0.0,0.4481,0.4481,0.4444,0.4362,0.4401,0.4341,0.4141,0.4087,0.0,0.0,0.0,0.0,0.0,0.0,0.0,0.0,0.0,0.0,0.0,0.0,0.0,0.0,0.0,0.0,0.0,0.0,0.0,0.0,0.0,0.0,0.0,0.0,0.0,0.0,0.0,0.0,0.0,0.0,0.0,0.0,0.0,0.0,0.0,0.0,0.0,0.0,0.0,0.0,0.0,0.0,1.0535,1.0238,1.0554,1.1269,0.0,0.0,1.0674,1.025,1.0141,1.0095,0.0,0.0,0.0,0.0,0.0,0.0,0.0,0.0,0.0,0.0,0.0,0.0,0.0,0.0,0.0,0.0,0.0,0.0,0.0,0.0,0.0,0.0,0.0,0.0,0.0,0.0,0.0,0.0,0.0,0.0,0.0,0.0,0.0,0.0,0.0,0.0,0.0,0.0,0.0,0.0,0.0,0.0,0.0,0.0,0.0,0.0,0.0,0.0,0.0,0.0,0.0,0.0,0.0,0.0,0.0,0.4446,0.4481,0.4492,0.4488,0.4319,0.422,0.4193,0.3998,0.3911,0.0,0.0,0.0,0.0,0.0,0.0,0.0,0.0,0.0,0.0,0.0,0.0,0.0,0.0,0.0,0.0,0.0,0.0,0.0,0.0,0.0,0.0,0.0,0.0,0.0,0.0,0.0,0.0,0.0,0.0,0.0,0.0,0.0,0.0,0.0,0.0,0.0,0.0,0.0,0.0,0.0,1.1393,1.0348,1.1548,1.2553,0.0,0.0,1.1957,1.0375,1.0121,1.0095,1.0094,0.0,0.0,0.0,0.0,0.0,0.0,0.0,0.0,0.0,0.0,0.0,0.0,0.0,0.0,0.0,0.0,0.0,0.0,0.0,0.0,0.0,0.0,0.0,0.0,0.0,0.0,0.0,0.0,0.0,0.0,0.0,0.0,0.0,0.0,0.0,0.0,0.0,0.0,0.0,0.0,0.0,0.0,0.0,0.0,0.0,0.0,0.0,0.0,0.0,0.0,0.0,0.0,0.0,0.3968,0.4552,0.4518,0.448,0.448,0.4426,0.4335,0.4216,0.4083,0.4039,0.0,0.0,0.0,0.0,0.0,0.0,0.0,0.0,0.0,0.0,0.0,0.0,0.0,0.0,0.0,0.0,0.0,0.0,0.0,0.0,0.0,0.0,0.0,0.0,0.0,0.0,0.0,0.0,0.3656,0.51,0.5099,0.0,0.0,0.0,0.0,0.0,0.0,0.0,0.0,0.0,0.0,1.1912,1.1763,1.2607,0.0,0.0,1.3372,1.2833,1.3192,1.146,1.0051,0.9882,0.9982,0.0,0.0,0.0,0.0,0.0,0.0,0.0,0.0,0.0,0.0,0.0,0.0,0.0,0.0,0.0,0.0,0.0,0.0,0.0,0.0,0.0,0.0,0.0,0.0,0.0,0.0,0.0,0.0,0.0,0.0,0.0,0.0,0.0,0.0,0.0,0.0,0.0,0.0,0.0,0.0,0.0,0.0,0.0,0.0,0.0,0.0,0.0,0.0,0.0,0.0,0.0,0.0,0.4178,0.4642,0.4561,0.4537,0.4514,0.4513,0.4404,0.4233,0.4102,0.4062,0.0,0.0,0.0,0.0,0.0,0.0,0.0,0.0,0.0,0.0,0.0,0.0,0.0,0.0,0.0,0.0,0.0,0.0,0.0,0.0,0.0,0.0,0.0,0.0,0.0,0.0,0.0,0.0,0.4386,0.4884,0.4385,0.0,0.0,0.0,0.0,0.0,0.0,0.0,0.0,0.0,0.0,1.2337,1.1979,1.3182,1.4399,1.5143,1.4234,1.3869,1.5019,1.3172,1.1216,0.9999,0.0,0.0,0.0,0.0,0.0,0.0,0.0,0.0,0.0,0.0,0.0,0.0,0.0,0.0,0.0,0.0,0.0,0.0,0.0,0.0,0.0,0.0,0.0,0.0,0.0,0.0,0.0,0.0,0.0,0.0,0.0,0.0,0.0,0.0,0.0,0.0,0.0,0.0,0.0,0.0,0.0,0.0,0.0,0.0,0.0,0.0,0.0,0.0,0.0,0.0,0.0,0.0,0.0,0.3242,0.4672,0.4619,0.46,0.4582,0.4537,0.4425,0.4297,0.4051,0.3979,0.4087,0.0,0.0,0.0,0.0,0.0,0.0,0.0,0.0,0.0,0.0,0.0,0.0,0.0,0.0,0.0,0.0,0.0,0.0,0.0,0.0,0.0,0.0,0.0,0.0,0.0,0.0,0.4964,0.506,0.4447,0.0,0.0,0.0,0.0,0.0,0.0,0.0,0.0,0.0,0.0,1.4308,1.2762,1.0626,1.3152,1.5334,1.5389,1.5235,1.514,1.52,1.5096,1.3979,0.0,0.0,0.0,0.0,0.0,0.0,0.0,0.0,0.0,0.0,0.0,0.0,0.0,0.0,0.0,0.0,0.0,0.0,0.0,0.0,0.0,0.0,0.0,0.0,0.0,0.0,0.0,0.0718,0.0,0.0,0.0,0.0,0.0,0.0,0.0,0.0,0.0,0.0,0.0,0.0,0.435,0.4423,0.0,0.0,0.0,0.0,0.0,0.0,0.0,0.0,0.0,0.0,0.0,0.0,0.4226,0.4691,0.473,0.4669,0.4538,0.4515,0.443,0.4306,0.4206,0.4159,0.4087,0.0,0.0,0.0,0.0,0.0,0.0,0.0,0.0,0.0,0.0,0.0,0.0,0.0,0.0,0.0,0.0,0.0,0.0,0.0,0.0,0.0,0.0,0.0,0.0,0.0,0.51,0.0,0.0,0.0,0.0,0.0,0.0,0.0,0.0,0.0,0.0,0.0,1.4766,1.5312,1.5058,1.4528,1.3727,1.4645,1.5385,0.0,0.0,0.0,0.0,0.0,0.0,0.0,0.0,0.0,0.0,0.0,0.0,0.0,0.0,1.3551,1.1832,1.2294,1.3247,1.4185,0.0,0.0,0.0,0.0,0.0,0.0,0.0,0.0,0.0,0.0,0.0,0.0,0.0,0.0,0.2046,0.0,0.1534,0.0,0.0,0.0,0.0,0.0,0.0,0.0,0.0,0.5364,0.5184,0.4429,0.4437,0.5024,0.0,0.6369,0.515,0.0,0.0,0.0,0.0,0.0,0.0,0.0,0.0,0.5315,0.544,0.4981,0.4844,0.5036,0.4694,0.4454,0.4374,0.4323,0.4255,0.4161,0.4341,0.4451,0.0,0.0,0.0,0.0,0.0,0.0,0.0,0.0,0.0,0.0,0.0,0.0,0.0,0.0,0.0,0.0,0.0,0.0,0.0,0.0,0.0,0.0,0.0,0.4444,0.0,0.0,0.0,0.0,0.0,0.0,0.0,0.0,0.0,1.0312,1.3262,1.541,1.541,1.541,1.541,1.541,0.0,0.0,0.0,0.0,0.0,0.0,0.0,1.5194,1.5194,1.5194,1.4962,1.421,1.3969,1.4135,1.488,0.0,0.0,1.3417,1.3978,1.4768,1.514,1.7444,1.8732,1.6684,1.6522,1.6174,0.0,0.0,0.0,0.0,0.0,0.0,0.0,0.0,0.285,0.3889,0.0,0.4374,0.0,0.0,0.0,0.0,0.0,0.6602,0.0,0.0,0.6061,0.5579,0.4529,0.448,0.4972,0.583,0.6505,0.7076,0.751,0.5811,0.0,0.0,0.0,0.0,0.0,0.0,0.6396,0.6795,0.5442,0.5135,0.5994,0.517,0.4617,0.454,0.4422,0.4338,0.4303,0.431,0.4356,0.4481,0.4463,0.0,0.0,0.0,0.0,0.0,0.0,0.0,0.0,0.0,0.0,0.0,0.0,0.0,0.0,0.0,0.0,0.0,0.0,0.0,0.0,0.3586,0.0,0.0,0.0,0.0,0.0,0.0,0.0,0.0,0.0,0.0,1.0586,1.3379,1.541,1.541,0.0,0.0,0.0,0.0,1.541,1.541,1.5355,1.5302,1.5297,1.523,1.5194,1.5194,0.0,0.0,1.5194,1.507,1.5033,1.5173,1.5164,1.5028,1.4915,1.4841,1.5061,1.5483,1.6907,1.7967,1.8435,1.8016,1.7422,0.3061,0.0,0.0,0.0,0.0,0.3037,0.3354,0.3599,0.401,0.4451,0.492,0.5456,0.0,0.0,0.0,0.0,0.0,0.0,0.6302,0.5707,0.574,0.5311,0.4501,0.4479,0.5249,0.6645,0.6809,0.7281,0.8039,0.8031,0.726,0.5779,0.0,0.0,0.0,0.0,0.7065,0.6821,0.6438,0.6147,0.5957,0.7056,0.6882,0.5343,0.5139,0.4886,0.447,0.4394,0.4408,0.4489,0.4489,0.0,0.0,0.0,0.0,0.0,0.0,0.0,0.0,0.0,0.0,0.0,0.0,0.0,0.0,0.0,0.0,0.0,0.0,0.0,0.5089,0.4645,0.4548,0.0,0.0,0.0,0.0,0.0,0.0,0.0,0.0,0.0,1.3613,1.4766,1.541,0.0,0.0,1.541,1.541,1.541,1.541,1.541,1.5389,0.0,1.5304,1.5228,1.5194,1.5194,1.5194,1.5194,1.5194,1.5149,1.5159,1.5226,1.6152,1.657,1.5375,1.5101,1.5985,1.8183,1.9252,1.9596,1.9742,1.9496,1.9257,0.3541,0.3441,0.304,0.2997,0.3183,0.3545,0.3877,0.4187,0.4556,0.4925,0.5364,0.6161,0.7039,0.7874,0.6898,0.0,0.0,0.0,0.6203,0.5642,0.5526,0.5296,0.4979,0.497,0.5818,0.7355,0.7324,0.7735,0.8559,0.8939,0.8547,0.7408,0.0,0.0,0.685,0.7456,0.7721,0.7631,0.7668,0.7486,0.7115,0.8146,0.7843,0.6116,0.5595,0.5223,0.4958,0.4614,0.445,0.449,0.4508,0.4538,0.0,0.0,0.0,0.0,0.0,0.0,0.0,0.0,0.0,0.0,0.0,0.436,0.5025,0.0,0.0,0.0,0.5098,0.5665,0.7031,0.5918,0.0,0.0,0.0,0.0,0.0,0.0,0.0,1.0176,1.1484,1.3086,1.5137,1.541,1.541,1.541,1.541,1.541,1.541,0.0,1.541,1.541,1.541,1.539,1.5335,1.5299,1.5271,1.5208,1.5236,1.5228,1.5197,1.5194,1.5444,1.6136,1.7024,1.7372,1.637,1.6194,1.6984,1.9692,2.0288,2.0288,2.0288,2.0199,2.0156,0.4153,0.455,0.3632,0.3447,0.3761,0.3793,0.4073,0.4494,0.4732,0.5433,0.645,0.6674,0.6956,0.7285,0.6917,0.0,0.6769,0.6596,0.6287,0.5872,0.5569,0.5538,0.5796,0.5777,0.6541,0.7987,0.7921,0.8278,0.8952,0.8917,0.8533,0.7824,0.8121,0.8136,0.791,0.8018,0.8342,0.8877,0.89,0.89,0.8894,0.8603,0.7905,0.6818,0.5934,0.5519,0.5567,0.4937,0.4558,0.4509,0.4581,0.4613,0.4617,0.0,0.0,0.0,0.0,0.0,0.0,0.0,0.0,0.0,0.0,0.0,0.0,0.0,0.0,0.0,0.4857,0.0,0.957,0.7266,0.0,0.0,0.0,1.0352,1.041,1.043,1.0449,1.0508,0.0,0.0,1.541,1.5391,1.5391,1.541,1.541,1.541,1.541,1.541,1.541,1.541,1.541,1.541,1.5391,1.5391,1.5346,1.5254,1.5327,1.5383,1.5289,1.5444,1.6059,1.7348,1.7789,1.7815,1.7717,1.7717,1.8411,2.0002,2.0288,2.0288,2.0288,2.0285,2.0283,0.5339,0.5617,0.5384,0.4905,0.4347,0.4635,0.4948,0.527,0.5669,0.6186,0.6797,0.7212,0.7657,0.8119,0.8173,0.8254,0.8331,0.7741,0.7428,0.7258,0.6664,0.6438,0.6545,0.6491,0.698,0.7871,0.7863,0.7917,0.8124,0.8642,0.8533,0.7883,0.8524,0.8529,0.788,0.8396,0.874,0.8917,0.8917,0.8917,0.8917,0.8804,0.8393,0.7558,0.7162,0.6546,0.5638,0.5343,0.5008,0.4601,0.4678,0.4756,0.4733,0.4922,0.0,0.0,0.0,0.0,0.0,0.0,0.0,0.0,0.0,0.4645,0.5073,0.0,0.4658,0.0,0.2731,0.2613,0.6016,0.7969,0.0,0.0,0.9258,1.0645,1.1504,1.1582,1.1758,1.2246,1.4121,1.541,1.541,1.536,1.534,1.5399,1.5404,1.541,1.541,1.541,1.541,1.541,1.541,1.541,1.541,1.541,1.5449,1.5369,1.5889,1.6057,1.5336,1.6271,1.7285,1.7834,1.8907,1.9095,1.7991,1.8736,1.9694,2.0212,2.0288,2.0288,2.0288,2.0288,2.0288,0.5514,0.5895,0.5789,0.558,0.5352,0.5385,0.5522,0.5694,0.6049,0.6455,0.6934,0.7448,0.7915,0.8257,0.8469,0.8436,0.8166,0.7753,0.745,0.7189,0.6772,0.6837,0.7284,0.7233,0.7584,0.8336,0.83,0.8299,0.8313,0.8713,0.8685,0.831,0.8774,0.8769,0.834,0.8741,0.896,0.8917,0.8917,0.8818,0.8686,0.8835,0.8619,0.8088,0.771,0.7183,0.6453,0.6177,0.5738,0.5123,0.4912,0.479,0.4794,0.4989,0.4403,0.0,0.0,0.0,0.0,0.0,0.0,0.0,0.0,0.0,0.0,0.0,0.5089,0.5078,0.3359,0.3047,0.4922,0.8242,0.9902,0.8965,0.9707,1.0742,1.1831,1.2396,1.2751,1.2891,1.4375,1.5368,1.5312,1.5286,1.527,1.5291,1.5348,1.5365,1.5391,1.541,1.541,1.541,1.541,1.541,1.541,1.6074,1.6836,1.7519,1.7413,1.7226,1.7517,1.7667,1.804,1.8956,1.9851,2.012,1.9126,1.9579,2.0288,2.0288,2.0288,2.0288,2.0288,2.0288,2.0288,0.5436,0.5931,0.5709,0.5926,0.6382,0.6086,0.5992,0.6048,0.6181,0.6503,0.6969,0.7527,0.7896,0.8118,0.8299,0.8017,0.7447,0.7431,0.719,0.6779,0.6726,0.717,0.8026,0.796,0.8274,0.8897,0.8917,0.8917,0.8917,0.8917,0.8948,0.9027,0.9044,0.91,0.9188,0.9289,0.9208,0.8919,0.8917,0.8737,0.8431,0.8688,0.8716,0.846,0.7929,0.7625,0.7529,0.7149,0.6578,0.5881,0.5176,0.4687,0.452,0.486,0.3737,0.0,0.6613,0.0,0.0,0.0,0.0,0.0,0.0,0.0,0.0,0.5851,0.5091,0.5098,0.5098,0.5293,0.5723,0.8516,1.0468,1.0859,1.0527,1.0817,1.2173,1.3105,1.3511,1.3221,1.4491,1.5329,1.5227,1.5194,1.5195,1.5232,1.5569,1.594,1.6004,1.5723,1.5449,1.5603,1.5527,1.5586,1.6328,1.7461,1.8809,2.0019,1.9118,1.8725,2.0156,1.9266,1.8767,2.0156,2.0527,2.0508,2.0355,2.0297,2.0324,2.0344,2.0329,2.0292,2.0308,2.0442,2.0406,0.6748,0.6833,0.6798,0.6653,0.6492,0.6758,0.6831,0.678,0.6556,0.6703,0.7164,0.7489,0.7807,0.8092,0.8144,0.8184,0.8189,0.8192,0.8213,0.8273,0.8264,0.8418,0.8702,0.8693,0.8775,0.89,0.8917,0.8917,0.8917,0.8917,0.9207,0.9774,0.9787,1.0095,1.067,0.0,0.0,0.0,0.8917,0.8745,0.841,0.8461,0.859,0.8789,0.8586,0.0,0.7762,0.7619,0.7282,0.6734,0.535,0.0,0.0,0.0,0.0,0.0,0.0,0.0,0.0,0.0,0.0,0.0,0.7486,0.7443,0.8124,0.6328,0.5097,0.5098,0.5098,0.625,0.9043,0.9883,1.1371,1.3847,1.1901,1.1437,1.4201,1.4046,1.3887,1.4763,1.514,1.5282,1.5208,1.5194,1.5194,1.5272,1.6375,1.7786,1.9094,1.6927,1.5835,1.6943,1.6371,1.6543,1.9199,1.9785,2.0059,2.041,1.9785,1.9512,2.0312,2.0371,2.0059,2.0605,2.0605,2.0586,2.0536,2.0456,2.0422,2.0508,2.0407,2.0288,2.0308,2.0831,2.1079,0.6916,0.0,0.7111,0.7104,0.0,0.7304,0.7487,0.7597,0.693,0.7005,0.7622,0.8112,0.8482,0.8757,0.892,0.9045,0.915,0.9146,0.9054,0.89,0.8897,0.8854,0.8823,0.9176,0.9372,0.9449,0.971,0.9901,0.9973,0.9756,0.9935,1.0524,1.0433,1.062,1.1096,1.1116,1.0376,0.8915,0.8917,0.9001,0.9228,0.8852,0.8819,0.9174,0.8929,0.0,0.0,0.0,0.0,0.0,0.0,0.0,0.0,0.0,0.0,0.5167,0.8248,1.0095,1.0077,0.9206,0.8699,0.8824,0.8853,0.8682,0.8203,0.6289,0.582,0.75,0.7656,0.8379,1.0098,1.1731,1.339,1.4902,1.37,1.3459,1.4849,1.4752,1.4624,1.5097,1.5261,1.5235,1.5205,1.5194,1.5194,1.529,1.6659,1.8351,1.9583,1.7382,1.6092,1.8486,1.7636,1.7539,1.9941,2.0605,2.0605,2.0527,2.0215,2.0156,2.0527,2.0605,2.0605,2.0605,2.0605,2.0605,2.0605,2.054,2.0515,2.0565,2.0504,2.043,2.0402,2.0711,2.1122,0.6594,0.6887,0.6893,0.712,0.7488,0.7554,0.7817,0.8143,0.0,0.0,0.0,0.8748,0.9128,0.9327,0.9663,0.9798,0.9811,0.9882,0.9676,0.9285,0.9265,0.9172,0.9032,0.9619,0.9963,1.0075,1.0522,1.0815,1.0964,1.063,1.0742,1.1185,1.1104,1.1233,1.1481,1.1377,1.0712,0.9551,0.9117,0.9398,1.036,0.9684,0.9386,0.9579,0.9137,0.8852,0.8753,0.8959,0.8833,0.8291,0.8953,0.8832,0.7605,0.636,0.5738,0.6005,0.8516,1.0072,1.0094,0.9485,0.939,1.0057,1.0145,0.9477,0.781,0.6658,0.7167,1.0059,1.0272,1.0254,1.0307,1.3247,1.5194,1.5194,1.5194,1.5157,1.5194,1.5194,1.516,1.5194,1.5201,1.5195,1.5231,1.5867,1.6096,1.629,1.7482,1.8598,1.9591,1.8066,1.7292,1.9487,1.8996,1.8842,2.0078,2.0527,2.0559,2.0547,2.0547,2.0584,2.0605,2.0605,2.0605,2.0605,2.0605,2.0605,2.0605,2.0586,2.0605,2.0605,2.0605,2.0586,2.0527,2.0481,2.0832,0.6021,0.6075,0.606,0.6305,0.6683,0.7037,0.7403,0.7799,0.8128,0.8355,0.8513,0.8615,0.8792,0.8982,0.9304,0.9465,0.9494,0.977,0.9917,0.9949,0.9958,1.0048,1.0149,1.0268,1.032,1.0355,1.0431,1.0475,1.0507,1.0678,1.1101,1.1736,1.2,1.2401,1.2969,1.2436,1.2036,1.179,0.9886,0.9787,1.1579,1.11,1.0504,0.9933,0.9271,0.8888,0.8872,0.9025,0.9117,0.9125,0.9458,0.9535,0.9345,0.9083,0.9029,0.9071,0.9605,0.9982,1.0107,0.9984,0.9965,1.0094,1.011,0.9405,0.7826,0.8775,0.973,1.0273,1.0193,1.0117,1.0325,1.3191,1.5194,1.5194,1.5194,1.5194,1.5194,1.5194,1.5194,1.5194,1.5194,1.5194,1.5405,1.7596,1.9269,1.95,1.9425,1.9988,2.009,1.9929,1.9771,2.0175,2.0131,2.0087,2.0305,2.0337,2.037,2.042,2.0434,2.048,2.0566,2.0586,2.0586,2.0605,2.0586,2.0605,2.0605,2.0605,2.0605,2.0605,2.0605,2.0605,2.0586,2.0547,2.0625,0.6614,0.6458,0.6434,0.6466,0.6525,0.6931,0.7445,0.8034,0.8282,0.8404,0.849,0.9013,0.9312,0.9437,1.0116,1.0437,1.0448,1.0776,1.0777,1.0482,1.0471,1.0408,1.0278,1.0662,1.0884,1.1001,1.1257,1.1457,1.1578,1.1576,1.181,1.2266,1.2394,1.2788,1.3324,1.292,1.2749,1.2855,1.1052,1.074,1.2086,1.2268,1.1797,1.0636,0.9898,0.9295,0.8917,0.9091,0.9245,0.9307,0.9571,0.9698,0.9698,0.9698,0.9698,0.971,0.9897,1.0037,1.011,1.0095,1.0082,1.0038,1.0062,0.9796,0.903,0.9686,1.0157,1.0183,1.0142,1.0095,1.019,1.3171,1.5194,1.5194,1.5194,1.5194,1.5194,1.5194,1.5194,1.5194,1.5194,1.5194,1.5194,1.8173,2.0269,2.0288,2.0288,2.0288,2.0288,2.0288,2.0288,2.0288,2.0288,2.0288,2.0288,2.0288,2.0313,2.0352,2.0388,2.0417,2.0488,2.0539,2.0563,2.0532,2.0541,2.0586,2.0605,2.0605,2.0605,2.0605,2.0605,2.0605,2.0605,2.0605,2.0586,0.6992,0.6744,0.6863,0.6869,0.6821,0.708,0.7576,0.8134,0.8155,0.8162,0.8301,0.9243,0.9708,0.9792,1.0691,1.1081,1.1147,1.144,1.135,1.0949,1.091,1.0752,1.0548,1.1097,1.1414,1.1592,1.1948,1.2231,1.2381,1.2271,1.2352,1.2577,1.261,1.2799,1.3213,1.3015,1.301,1.315,1.2153,1.1915,1.2542,1.3125,1.2757,1.1455,1.0639,0.9892,0.9202,0.934,0.9412,0.931,0.95,0.9633,0.9698,0.9698,0.9698,0.9725,0.9899,1.0137,1.038,1.0665,1.0756,1.0587,1.064,1.0537,1.0171,1.0481,1.05,1.023,1.0889,1.1345,1.1691,1.3555,1.5194,1.5194,1.5194,1.5194,1.5194,1.5194,1.5194,1.5194,1.5194,1.5194,1.5713,1.7809,1.9712,2.0192,2.0288,2.0288,2.0288,2.0288,2.0288,2.0288,2.0288,2.0288,2.0288,2.0288,2.0294,2.0292,2.0338,2.0376,2.0391,2.048,2.0492,2.0415,2.0451,2.0527,2.0586,2.0605,2.0605,2.0605,2.0605,2.0605,2.0605,2.0605,2.0605,0.6311,0.6341,0.6781,0.7253,0.7618,0.7528,0.7599,0.7781,0.7764,0.7756,0.7942,0.8933,0.9422,0.9535,1.0166,1.0488,1.0525,1.0841,1.1087,1.1238,1.1249,1.1381,1.1572,1.1708,1.1753,1.177,1.1845,1.1881,1.1929,1.2086,1.2321,1.2577,1.261,1.2615,1.2672,1.2653,1.2649,1.2677,1.301,1.3227,1.3295,1.3367,1.3003,1.222,1.1414,1.0636,0.9943,0.9924,0.9735,0.935,0.9331,0.9447,0.9671,0.9698,0.9698,0.9698,0.9778,1.0167,1.1216,1.2355,1.27,1.2338,1.2299,1.1732,1.044,1.1562,1.1757,1.1079,1.2981,1.4402,1.4707,1.5013,1.5185,1.5186,1.5204,1.5194,1.5189,1.5194,1.5194,1.5194,1.5194,1.5194,1.5425,1.708,1.8708,2.0083,2.0279,2.0283,2.0273,2.0304,2.0288,2.0288,2.0288,2.0288,2.0288,2.0288,2.0288,2.0292,2.0308,2.031,2.0327,2.032,2.0318,2.0342,2.0338,2.0399,2.0527,2.0605,2.0605,2.0605,2.0605,2.0605,2.0605,2.0605,2.0605,0.6567,0.6442,0.6665,0.712,0.7663,0.7936,0.8197,0.8454,0.847,0.8478,0.8509,0.8922,0.8969,0.8818,0.9656,1.0039,1.009,1.0808,1.1196,1.1307,1.1496,1.1687,1.1805,1.1816,1.1816,1.1816,1.1816,1.1816,1.1832,1.1923,1.2169,1.2519,1.2296,1.2286,1.2542,1.2435,1.2426,1.2601,1.2799,1.2914,1.293,1.293,1.2655,1.2107,1.1757,1.1293,1.068,1.031,1.0016,0.9837,0.9502,0.9437,0.9685,0.9698,0.9698,0.9808,1.153,1.2744,1.3204,1.3182,1.3035,1.2865,1.2601,1.2179,1.1727,1.2297,1.2737,1.329,1.442,1.5201,1.5199,1.5189,1.5164,1.5063,1.5132,1.5155,1.509,1.5165,1.5194,1.5194,1.5194,1.5213,1.5598,1.7579,1.9272,2.0002,2.0151,2.0248,2.0156,2.0229,2.0286,2.0288,2.0288,2.0288,2.0288,2.0288,2.0288,2.0288,2.0288,2.0288,2.0288,2.0288,2.0292,2.0288,2.0288,2.0311,2.0395,2.0527,2.0605,2.0605,2.0605,2.0605,2.0605,2.0605,2.0605,0.6897,0.673,0.6707,0.7088,0.7733,0.8129,0.8475,0.879,0.8927,0.9004,0.898,0.8842,0.8615,0.8486,0.9286,0.9689,0.9798,1.0546,1.0973,1.1072,1.1307,1.1462,1.1544,1.1637,1.1621,1.1597,1.1719,1.1816,1.1816,1.1816,1.1998,1.2271,1.1992,1.1998,1.2305,1.2179,1.2174,1.234,1.2381,1.2376,1.2385,1.2528,1.244,1.2144,1.2142,1.1905,1.136,1.1162,1.0878,1.0508,1.0072,0.9762,0.9583,0.9667,0.9698,0.9976,1.2714,1.4488,1.4496,1.3838,1.3477,1.3449,1.3153,1.3087,1.3252,1.3306,1.3797,1.465,1.5007,1.5024,1.5183,1.508,1.4946,1.4867,1.4948,1.499,1.4973,1.5073,1.5138,1.5183,1.5194,1.5626,1.6565,1.8494,1.9855,1.9855,1.992,2.0062,2.0009,2.0137,2.0281,2.0216,2.0266,2.0288,2.0288,2.0288,2.0288,2.0288,2.0288,2.0288,2.0288,2.0288,2.0288,2.0288,2.0288,2.0304,2.0344,2.0449,2.0684,2.0625,2.0684,2.0742,2.0605,2.0605,2.0605,0.6983,0.698,0.7001,0.7369,0.799,0.8049,0.8128,0.8422,0.882,0.9033,0.9014,0.8662,0.8426,0.8479,0.9135,0.9421,0.9475,0.9874,1.0229,1.0482,1.0544,1.0653,1.0944,1.119,1.1207,1.1114,1.1532,1.1809,1.184,1.1846,1.1821,1.1868,1.1841,1.1811,1.1876,1.1869,1.1848,1.1892,1.1907,1.188,1.1918,1.233,1.259,1.2529,1.2729,1.2503,1.2066,1.2748,1.262,1.1286,1.1163,1.0627,0.9547,0.9677,0.9919,1.0176,1.2774,1.4488,1.4508,1.4503,1.4476,1.4446,1.4447,1.4707,1.4543,1.4552,1.4567,1.4565,1.4574,1.4738,1.5036,1.4825,1.4642,1.4691,1.4605,1.4663,1.4872,1.5035,1.5017,1.5176,1.5455,1.6545,1.902,1.9396,1.9563,1.9632,1.954,1.9497,1.9787,2.0081,2.0137,2.0143,2.0193,2.0288,2.0288,2.0288,2.0288,2.0288,2.0288,2.0308,2.0288,2.0288,2.0327,2.0423,2.0637,2.0647,2.0398,2.0469,2.0781,2.0918,2.1113,2.1094,2.1426,2.0801,2.0723,0.6983,0.7031,0.7433,0.7716,0.7994,0.8655,0.8998,0.9083,0.961,0.9833,0.9755,0.9348,0.9162,0.9185,0.9108,0.9062,0.9092,0.9848,1.0285,1.0408,1.0611,1.0787,1.0891,1.0995,1.1098,1.119,1.1398,1.1811,1.2403,1.245,1.245,1.2349,1.1999,1.1816,1.1816,1.1816,1.1816,1.1816,1.1816,1.1816,1.1874,1.2331,1.2524,1.2371,1.2757,1.2938,1.2866,1.2768,1.245,1.1955,1.1575,1.1092,1.0685,1.1939,1.2776,1.2884,1.387,1.4488,1.4496,1.4563,1.4559,1.4526,1.4586,1.4661,1.4638,1.4632,1.4584,1.4516,1.4488,1.4601,1.4658,1.4593,1.4533,1.4547,1.4543,1.4575,1.4853,1.5347,1.5619,1.5432,1.6495,1.8379,1.8997,1.9365,1.9361,1.9422,1.9365,1.9434,1.9586,1.9676,1.9793,2.0114,2.0262,2.0288,2.0288,2.0288,2.0288,2.0288,2.0288,2.0327,2.0329,2.0654,2.0767,2.1483,2.1581,2.1741,2.1735,2.1376,2.1615,2.2903,2.2957,2.2376,2.2695,2.1791,2.1426,0.6983,0.7063,0.7437,0.7614,0.7707,0.8594,0.9079,0.9279,0.9814,1.0147,1.0176,0.9815,0.9611,0.9566,0.9274,0.9202,0.9308,0.9879,1.0135,1.0267,1.0639,1.0846,1.0892,1.1116,1.1361,1.163,1.1845,1.2363,1.3044,1.3133,1.3014,1.2765,1.2325,1.201,1.185,1.1816,1.1816,1.1816,1.1816,1.1885,1.2144,1.2677,1.2837,1.2666,1.3078,1.3328,1.329,1.2852,1.2647,1.2595,1.2243,1.2027,1.2186,1.3575,1.4488,1.4482,1.4356,1.4375,1.4458,1.4381,1.435,1.4476,1.445,1.4432,1.4476,1.4488,1.4488,1.4488,1.4488,1.4488,1.4488,1.4509,1.4488,1.4488,1.4488,1.4552,1.4669,1.5574,1.5923,1.6065,1.7685,1.9037,1.9282,1.9286,1.9305,1.9282,1.9282,1.9365,1.9444,1.9479,1.9487,1.9928,2.0158,2.0266,2.0808,2.1402,2.1635,2.1656,2.0808,2.0675,2.0964,2.1231,2.1729,2.2425,2.2851,2.3081,2.2947,2.2543,2.3391,2.4873,2.4626,2.3791,2.3395,2.2606,2.2344,0.7013,0.703,0.6996,0.7063,0.7168,0.777,0.8244,0.8746,0.9259,0.9765,1.0099,0.9779,0.9634,0.9624,0.9562,0.9809,1.0038,0.9727,0.9777,1.0158,1.0588,1.0804,1.0843,1.1521,1.1927,1.2124,1.2874,1.3407,1.3725,1.371,1.3446,1.2969,1.2891,1.2493,1.1861,1.1905,1.185,1.1813,1.1809,1.214,1.281,1.3518,1.3624,1.3257,1.368,1.366,1.3051,1.3222,1.3307,1.3328,1.3324,1.3536,1.3666,1.4162,1.4447,1.4347,1.41,1.4113,1.4353,1.4123,1.4129,1.4365,1.4337,1.4456,1.4684,1.4582,1.4488,1.4488,1.4488,1.4488,1.4488,1.4504,1.4486,1.4488,1.4488,1.452,1.482,1.5512,1.635,1.7012,1.8416,1.9209,1.9282,1.9282,1.9282,1.9282,1.9282,1.9286,1.9365,1.9426,1.9479,1.9518,1.978,2.0052,2.1383,2.2746,2.3096,2.3195,2.2002,2.1387,2.2137,2.2577,2.3286,2.3942,2.4096,2.4269,2.3772,2.3464,2.3812,2.4858,2.4724,2.4746,2.409,2.3429,2.3231,0.7339,0.7306,0.7086,0.6983,0.7084,0.7652,0.8015,0.8203,0.8706,0.9239,0.9658,0.9587,0.9715,0.9933,0.9765,0.9848,1.0176,0.9785,1.0087,1.0941,1.1234,1.1289,1.1369,1.1612,1.1848,1.2192,1.3054,1.3679,1.3964,1.4005,1.401,1.4085,1.369,1.3142,1.254,1.2475,1.2296,1.1854,1.1807,1.2454,1.3818,1.4736,1.4559,1.3348,1.314,1.3025,1.3021,1.3247,1.3392,1.3396,1.3502,1.3661,1.3838,1.3786,1.3732,1.3738,1.3642,1.3591,1.3725,1.3863,1.3938,1.4182,1.4612,1.5179,1.5435,1.4934,1.4619,1.4564,1.4509,1.4488,1.4486,1.4501,1.4662,1.4516,1.4506,1.4833,1.5536,1.6196,1.7205,1.8313,1.8999,1.9279,1.9282,1.9282,1.9282,1.9282,1.9282,1.9282,1.932,1.9431,1.9368,1.935,1.9603,1.9987,2.1165,2.277,2.4006,2.4231,2.3425,2.256,2.3212,2.3788,2.4536,2.494,2.5132,2.5036,2.4558,2.4483,2.4733,2.4906,2.506,2.4925,2.4648,2.4337,2.4007,0.7591,0.7493,0.7279,0.711,0.7048,0.7409,0.7694,0.793,0.8252,0.8695,0.9159,0.9419,0.9677,0.9934,0.9896,1.0115,1.0448,1.023,1.0683,1.1551,1.163,1.1628,1.1763,1.2259,1.2533,1.2812,1.3529,1.4026,1.4244,1.4399,1.4493,1.4441,1.4269,1.3833,1.3238,1.3172,1.2873,1.2378,1.247,1.3145,1.4311,1.531,1.5027,1.3686,1.3475,1.3439,1.3325,1.368,1.3781,1.3498,1.349,1.3584,1.3698,1.3532,1.34,1.34,1.34,1.3409,1.3425,1.3589,1.3779,1.4023,1.4763,1.5741,1.6262,1.5848,1.5576,1.6163,1.5209,1.4817,1.5598,1.6141,1.6258,1.6275,1.5178,1.527,1.6323,1.6798,1.759,1.872,1.9279,1.9282,1.9282,1.9282,1.9282,1.9282,1.9282,1.9282,1.9374,1.9686,1.9848,1.9848,1.9686,2.0161,2.0763,2.2538,2.4664,2.4998,2.4923,2.4308,2.4308,2.4596,2.5154,2.5135,2.5269,2.5269,2.4885,2.4981,2.5154,2.5288,2.5308,2.5148,2.4929,2.4807,2.4609,0.7782,0.7544,0.7509,0.7301,0.7064,0.7055,0.7332,0.7767,0.7829,0.8144,0.8683,0.9088,0.9409,0.9607,0.9934,1.0359,1.0866,1.0813,1.0983,1.1435,1.1595,1.1659,1.2052,1.3025,1.3489,1.3677,1.4084,1.4327,1.4375,1.464,1.4728,1.4271,1.4559,1.446,1.3891,1.3816,1.3647,1.3304,1.3524,1.3936,1.454,1.5338,1.5214,1.3995,1.4513,1.4535,1.4009,1.4452,1.4433,1.3629,1.3481,1.3425,1.3421,1.34,1.34,1.34,1.34,1.34,1.34,1.3425,1.3555,1.3861,1.4726,1.5784,1.6951,1.7145,1.7469,1.8438,1.6495,1.5643,1.7322,1.8173,1.8641,1.8717,1.6714,1.621,1.7313,1.7312,1.7979,1.8926,1.9282,1.9282,1.9338,1.9429,1.965,1.9576,1.9521,1.9282,1.9517,2.0068,2.1092,2.1096,2.0747,2.0579,2.1256,2.2664,2.4637,2.5174,2.5288,2.5094,2.4885,2.5135,2.5308,2.5308,2.5308,2.5308,2.5308,2.5308,2.5308,2.5308,2.5308,2.5308,2.5211,2.5065,2.5045,0.8222,0.8126,0.769,0.7455,0.7343,0.7121,0.7097,0.7238,0.7248,0.7615,0.8067,0.8244,0.8824,0.9459,0.9664,1.0,1.0439,1.0545,1.0515,1.0724,1.1054,1.185,1.2639,1.317,1.3399,1.3433,1.3586,1.3732,1.4049,1.4219,1.4302,1.4407,1.4773,1.4681,1.415,1.4372,1.4372,1.4066,1.3852,1.4383,1.5294,1.5627,1.538,1.4701,1.4912,1.4891,1.4539,1.5059,1.5066,1.4267,1.3659,1.34,1.3481,1.3434,1.34,1.34,1.34,1.34,1.34,1.34,1.3442,1.3643,1.4927,1.6003,1.6592,1.7945,1.8713,1.9042,1.7754,1.7057,1.7725,1.8068,1.8216,1.822,1.7779,1.7724,1.7811,1.8328,1.8893,1.9227,1.9282,1.9282,1.9503,2.0399,2.1082,2.0968,2.0252,1.9337,1.9615,2.0876,2.2088,2.2616,2.2451,2.1849,2.1981,2.3258,2.4381,2.5085,2.5286,2.5262,2.5149,2.5231,2.5308,2.5308,2.5308,2.5308,2.5308,2.5308,2.5308,2.5308,2.5308,2.5308,2.5308,2.5216,2.5203,0.8496,0.8388,0.8025,0.7799,0.7667,0.7446,0.7317,0.7228,0.7208,0.738,0.7709,0.7871,0.8526,0.9532,0.9711,1.0056,1.0526,1.0762,1.0645,1.04,1.08,1.1695,1.2664,1.306,1.3219,1.3219,1.3219,1.3369,1.3628,1.3798,1.4019,1.4291,1.4814,1.4881,1.4631,1.4975,1.5149,1.4982,1.4756,1.5058,1.5739,1.5806,1.5432,1.5072,1.5263,1.5502,1.5442,1.6092,1.6059,1.5151,1.4573,1.4319,1.4255,1.3688,1.343,1.34,1.34,1.34,1.34,1.3417,1.3718,1.4326,1.5485,1.6164,1.6896,1.819,1.9002,1.8872,1.822,1.7878,1.7794,1.7794,1.7787,1.7919,1.8536,1.8761,1.8189,1.8813,1.9212,1.9282,1.9282,1.9297,1.9389,2.1331,2.2469,2.2506,2.1404,2.0342,1.974,2.1494,2.2882,2.3355,2.3625,2.3061,2.2749,2.3717,2.4116,2.4765,2.5206,2.5192,2.5284,2.5308,2.5308,2.5308,2.5308,2.5308,2.5308,2.5308,2.5308,2.5308,2.5308,2.5308,2.5308,2.5308,2.5308,0.867,0.8449,0.8415,0.8216,0.7977,0.7924,0.7691,0.7517,0.7535,0.7527,0.7581,0.7792,0.8573,0.9693,0.9861,1.0371,1.0986,1.1321,1.0997,1.0765,1.0935,1.1652,1.2372,1.2855,1.3094,1.3193,1.3219,1.3236,1.3361,1.3648,1.3835,1.4084,1.4674,1.5028,1.5057,1.5492,1.577,1.5709,1.5605,1.5598,1.5776,1.5791,1.5522,1.5255,1.5761,1.6155,1.6386,1.6941,1.6987,1.5827,1.5795,1.5815,1.5668,1.4522,1.3714,1.3718,1.3883,1.4103,1.3532,1.3646,1.4209,1.5254,1.5783,1.6371,1.7167,1.8006,1.8518,1.8505,1.8084,1.7845,1.7794,1.7794,1.7788,1.7881,1.8308,1.8646,1.8865,1.9113,1.9282,1.9282,1.9282,1.933,2.0486,2.2083,2.4121,2.3515,2.263,2.1952,2.1491,2.2539,2.3488,2.3901,2.4066,2.4121,2.4011,2.4139,2.4176,2.4418,2.4891,2.5096,2.5269,2.5308,2.5308,2.5308,2.5308,2.5308,2.5308,2.5308,2.5308,2.5308,2.5308,2.5308,2.5308,2.5308,2.5308,0.8764,0.8697,0.8483,0.8356,0.8243,0.8005,0.7762,0.7531,0.7736,0.772,0.7612,0.7791,0.8608,0.9734,0.9886,1.0372,1.1342,1.1546,1.1282,1.0911,1.1316,1.1644,1.2061,1.2466,1.2868,1.3115,1.3219,1.3219,1.3267,1.334,1.3547,1.3929,1.4374,1.4791,1.5119,1.5536,1.5806,1.5806,1.5806,1.5806,1.5806,1.5806,1.5716,1.558,1.6023,1.6396,1.6642,1.6877,1.6963,1.6999,1.7115,1.7141,1.7061,1.6842,1.5702,1.4606,1.5629,1.5781,1.4188,1.4551,1.5228,1.5683,1.62,1.6632,1.6799,1.7563,1.7946,1.7965,1.7867,1.7794,1.7794,1.7794,1.7794,1.7889,1.8241,1.8723,1.9087,1.9259,1.9281,1.9282,1.937,2.0233,2.2602,2.3203,2.4176,2.4144,2.3891,2.3529,2.3561,2.3689,2.3918,2.4194,2.4194,2.4194,2.4194,2.421,2.4196,2.4388,2.4842,2.5081,2.5255,2.5519,2.5596,2.5481,2.5308,2.5308,2.5308,2.5308,2.5308,2.5308,2.5308,2.5308,2.5308,2.5308,2.5293,0.8791,0.8791,0.8657,0.8597,0.855,0.8391,0.8157,0.7986,0.8068,0.8062,0.7928,0.7949,0.8764,1.0159,1.0149,1.0724,1.1584,1.1663,1.1594,1.1489,1.1678,1.1778,1.2046,1.2319,1.2715,1.3139,1.3219,1.3219,1.3219,1.3228,1.3352,1.3623,1.4181,1.458,1.4907,1.5455,1.5785,1.5806,1.5806,1.5806,1.5806,1.5806,1.5806,1.5863,1.6101,1.6416,1.6532,1.6731,1.6898,1.7148,1.7502,1.7789,1.7794,1.7794,1.6909,1.626,1.6661,1.723,1.6103,1.612,1.6633,1.6588,1.6734,1.6886,1.7134,1.7602,1.7749,1.7794,1.78,1.7794,1.7794,1.7794,1.7794,1.7839,1.8046,1.8516,1.9099,1.9295,1.9282,1.9282,1.9301,2.1074,2.2799,2.3937,2.4194,2.4181,2.4181,2.385,2.3873,2.4001,2.4038,2.4194,2.4194,2.4194,2.4194,2.4211,2.4192,2.4539,2.5072,2.5225,2.5317,2.5655,2.5978,2.5671,2.5308,2.5308,2.5308,2.5308,2.5308,2.5308,2.5308,2.5308,2.5308,2.5308,2.5308,0.8791,0.8791,0.8791,0.8791,0.8791,0.8771,0.8604,0.8389,0.8436,0.8415,0.8369,0.8136,0.9017,1.027,1.0503,1.1167,1.1948,1.2052,1.2013,1.2033,1.1843,1.1965,1.2215,1.2377,1.2665,1.3129,1.3192,1.3202,1.3219,1.3228,1.331,1.3429,1.3978,1.4485,1.476,1.5262,1.5705,1.577,1.5806,1.5806,1.5806,1.5806,1.5806,1.5856,1.6011,1.6193,1.6267,1.645,1.663,1.6735,1.7211,1.7519,1.7681,1.7783,1.7794,1.7687,1.7732,1.7563,1.7394,1.7546,1.7642,1.7766,1.7292,1.7196,1.7625,1.7749,1.7777,1.7794,1.7811,1.7958,1.8065,1.7896,1.7912,1.7946,1.7924,1.8314,1.9174,1.955,1.9935,1.9903,2.0656,2.2308,2.3277,2.4194,2.4194,2.4194,2.4194,2.4194,2.4194,2.4194,2.4194,2.4194,2.4194,2.4194,2.4194,2.4291,2.4281,2.4593,2.5178,2.5981,2.605,2.6452,2.6718,2.5671,2.5308,2.5308,2.5308,2.5308,2.5308,2.5308,2.5308,2.5308,2.5308,2.5308,2.5308,0.8791,0.8791,0.8791,0.8791,0.8791,0.8791,0.8644,0.8456,0.8631,0.8591,0.8442,0.8577,0.9097,0.9961,1.0578,1.1487,1.2428,1.2573,1.2451,1.2313,1.214,1.2253,1.2335,1.2425,1.2668,1.2995,1.3203,1.3278,1.3269,1.3228,1.3488,1.3746,1.3974,1.4324,1.4871,1.5187,1.5492,1.5772,1.5822,1.5806,1.5806,1.5806,1.5806,1.5806,1.5913,1.5927,1.592,1.5962,1.6087,1.6342,1.621,1.6488,1.6914,1.742,1.7624,1.7647,1.7755,1.7794,1.7794,1.776,1.7783,1.7772,1.7665,1.7614,1.7794,1.7794,1.7794,1.7901,1.8053,1.8374,1.949,1.878,1.8346,1.842,1.8268,1.8432,1.9703,2.076,2.1363,2.1184,2.2245,2.3189,2.3791,2.4194,2.4194,2.4194,2.4194,2.4194,2.4194,2.4194,2.4194,2.4194,2.4194,2.4194,2.4194,2.4327,2.4422,2.4644,2.5495,2.7512,2.7673,2.7798,2.7498,2.6879,2.5865,2.5308,2.5308,2.5308,2.5308,2.5308,2.5308,2.5308,2.5308,2.5308,2.5308,0.8791,0.8791,0.8791,0.8791,0.8791,0.8791,0.8731,0.8631,0.8744,0.8731,0.8684,0.8784,0.9387,1.0172,1.061,1.1584,1.2593,1.2905,1.2766,1.259,1.2563,1.2586,1.2615,1.2632,1.2796,1.3113,1.3394,1.3594,1.3654,1.369,1.3933,1.4302,1.4363,1.4662,1.5103,1.5186,1.5438,1.5763,1.5847,1.5829,1.5829,1.5829,1.5806,1.5821,1.5806,1.5806,1.5806,1.5806,1.5885,1.5983,1.5884,1.5997,1.6285,1.6558,1.6799,1.6907,1.7384,1.7772,1.7681,1.756,1.7402,1.7777,1.7959,1.8206,1.8193,1.8087,1.7912,1.8172,1.9598,1.9693,1.8926,1.9507,2.0037,1.9621,1.8769,1.8921,2.0223,2.1552,2.1972,2.2159,2.2958,2.3576,2.3937,2.4194,2.4194,2.4194,2.4194,2.4194,2.4194,2.4194,2.4194,2.4194,2.4194,2.4194,2.4433,2.4859,2.5122,2.5299,2.5936,2.7943,2.9055,2.9036,2.8996,2.8709,2.7519,2.6058,2.5308,2.5308,2.5308,2.5308,2.5308,2.5308,2.5308,2.5308,2.5308,0.8791,0.8791,0.8791,0.8791,0.8791,0.8791,0.8791,0.8818,0.8962,0.9035,0.9008,0.9211,0.9832,1.061,1.1086,1.1721,1.2869,1.2915,1.2886,1.2876,1.2856,1.2888,1.292,1.295,1.2969,1.3052,1.3395,1.3907,1.4028,1.4184,1.4513,1.4689,1.4761,1.4991,1.534,1.5458,1.5681,1.5923,1.5915,1.5862,1.6106,1.5948,1.5896,1.5934,1.5881,1.5806,1.5806,1.5806,1.5806,1.5842,1.5821,1.5828,1.5814,1.5814,1.5814,1.5991,1.6857,1.7272,1.7295,1.7384,1.7372,1.774,1.8208,1.8602,1.8847,1.8697,1.8544,1.9068,2.0437,2.1339,1.998,2.0673,2.1373,2.1103,1.9885,1.9293,2.0602,2.1667,2.2161,2.2644,2.344,2.3602,2.3596,2.4194,2.4194,2.4194,2.4194,2.4194,2.4194,2.4194,2.4194,2.4194,2.4194,2.4194,2.4653,2.5635,2.6057,2.6525,2.7153,2.8542,2.9513,3.0138,2.9976,2.9635,2.8788,2.7385,2.6365,2.5346,2.5308,2.5308,2.5308,2.5308,2.5308,2.5308,2.5308,0.8791,0.8791,0.8791,0.8791,0.8791,0.8791,0.8811,0.8923,0.9442,0.9679,0.9825,1.0272,1.0617,1.096,1.1488,1.215,1.2691,1.2915,1.2915,1.2915,1.2915,1.2915,1.2915,1.2912,1.2941,1.3039,1.3165,1.3484,1.3986,1.4484,1.482,1.4927,1.4992,1.512,1.5627,1.577,1.6372,1.6593,1.6184,1.637,1.7052,1.6473,1.6413,1.6361,1.6159,1.5896,1.5889,1.5881,1.5821,1.5881,1.5821,1.5806,1.5806,1.5806,1.5806,1.582,1.5962,1.606,1.6349,1.7051,1.7699,1.8043,1.8446,1.8888,1.9472,1.9853,2.0234,2.1721,2.2212,2.2076,2.1272,2.1221,2.1508,2.1711,2.1485,2.0883,2.138,2.1769,2.2229,2.2331,2.2897,2.2786,2.2681,2.3519,2.4194,2.4194,2.4194,2.4194,2.4194,2.4194,2.4194,2.4194,2.4194,2.4194,2.4965,2.5928,2.6971,2.7606,2.8236,2.902,2.976,3.0393,3.0386,2.9942,2.925,2.8442,2.7212,2.6269,2.5615,2.5308,2.5308,2.5308,2.5308,2.5308,2.5308,0.8791,0.8791,0.8791,0.8791,0.8791,0.8791,0.9177,0.9757,1.0071,1.0543,1.1001,1.1122,1.1259,1.1502,1.2098,1.2584,1.2869,1.2915,1.2915,1.2915,1.2915,1.2915,1.2915,1.2905,1.2918,1.302,1.3289,1.3594,1.4036,1.4503,1.4953,1.5279,1.5363,1.5613,1.5913,1.5906,1.6341,1.6732,1.6938,1.715,1.7597,1.7834,1.7745,1.7264,1.6637,1.6353,1.6226,1.5941,1.6016,1.6114,1.6046,1.5806,1.5806,1.5941,1.6286,1.8069,1.807,1.7412,1.6323,1.7364,1.8142,1.8716,1.9127,1.9702,2.0659,2.1139,2.139,2.2161,2.2279,2.2313,2.2296,2.1931,2.1958,2.2161,2.2296,2.211,2.1796,2.1992,2.2313,2.2313,2.2313,2.2313,2.2432,2.3218,2.3971,2.4194,2.4194,2.4194,2.4194,2.4194,2.4194,2.4194,2.4194,2.4194,2.5236,2.6295,2.7739,2.8429,2.8643,2.9382,2.999,3.0403,3.0359,3.0361,2.9963,2.9044,2.7937,2.6923,2.6058,2.5635,2.5308,2.5601,2.5834,2.5308,2.5308,0.8791,0.8791,0.8791,0.8791,0.8831,0.9104,0.9704,1.0468,1.1029,1.1614,1.2119,1.2117,1.2074,1.2143,1.2581,1.2856,1.2903,1.2915,1.2915,1.2915,1.2915,1.2915,1.2915,1.2905,1.2905,1.2915,1.3215,1.3448,1.3749,1.4351,1.5056,1.5597,1.5803,1.6063,1.626,1.6377,1.67,1.7885,1.8127,1.8252,1.8439,1.9154,1.8786,1.811,1.7362,1.6883,1.6659,1.657,1.6615,1.645,1.6555,1.6465,1.6436,1.6997,1.7731,1.9049,1.9303,1.8728,1.7874,1.818,1.8974,1.9429,1.9755,2.0099,2.1041,2.1759,2.2173,2.2254,2.2313,2.2313,2.2296,2.2262,2.2245,2.2245,2.2313,2.2313,2.2313,2.2313,2.2313,2.2313,2.2313,2.2313,2.2565,2.3146,2.3667,2.4084,2.4194,2.4194,2.4231,2.425,2.4231,2.4231,2.4194,2.469,2.646,2.7506,2.8675,2.905,2.9241,2.9409,2.9786,3.0121,3.0225,3.0263,3.0205,2.9969,2.9057,2.7742,2.6615,2.7212,2.7519,2.6724,2.64,2.5815,2.5519,0.8791,0.8791,0.8818,0.8838,0.8924,0.9964,1.0439,1.0925,1.2255,1.2882,1.31,1.3212,1.3103,1.29,1.2863,1.2954,1.2915,1.2915,1.2915,1.2915,1.2915,1.2915,1.2915,1.2915,1.2915,1.2915,1.3089,1.3065,1.3286,1.4252,1.4959,1.5574,1.6014,1.6339,1.6595,1.6801,1.7608,1.8684,1.9167,1.9337,1.9354,1.9558,1.9295,1.8679,1.7983,1.7377,1.6801,1.7078,1.7265,1.695,1.7153,1.7519,1.7662,1.8337,1.9214,1.9513,1.9723,1.9333,1.9109,1.9064,1.9468,1.9773,1.9924,2.0032,2.0355,2.0797,2.1346,2.1991,2.2049,2.2313,2.2313,2.2313,2.2313,2.2313,2.2313,2.2313,2.2313,2.2313,2.2313,2.2313,2.2313,2.2313,2.232,2.2801,2.3558,2.4001,2.419,2.4194,2.4323,2.436,2.43,2.4263,2.4213,2.5364,2.8033,2.8987,2.8987,2.9033,2.916,2.9162,2.9215,2.9528,2.9872,2.9726,2.9629,2.9931,3.019,2.9118,2.8711,2.9664,2.9673,2.8451,2.7252,2.6482,2.6299,0.8791,0.8811,0.8971,0.935,0.9894,1.075,1.1649,1.2544,1.3245,1.3793,1.4117,1.4218,1.3906,1.3428,1.3242,1.3118,1.2932,1.2915,1.2935,1.2915,1.2915,1.2915,1.2915,1.2925,1.2915,1.2915,1.2915,1.2915,1.3065,1.413,1.464,1.5254,1.6031,1.638,1.668,1.7058,1.796,1.8811,1.9465,1.9714,1.9723,1.9699,1.9564,1.931,1.8516,1.8164,1.7901,1.7467,1.7594,1.7765,1.7795,1.8177,1.8679,1.9429,1.9654,1.9723,1.9723,1.9723,1.9723,1.9723,1.9723,1.9711,1.983,1.988,1.9717,2.0076,2.0285,2.0837,2.1766,2.2268,2.2313,2.2313,2.2313,2.2313,2.2381,2.2455,2.2364,2.2398,2.233,2.2347,2.233,2.2313,2.2313,2.2359,2.3194,2.3935,2.4079,2.4268,2.4488,2.4855,2.4961,2.4864,2.485,2.5805,2.8363,2.884,2.8968,2.9044,2.9106,2.9061,2.901,2.905,2.9293,2.9127,2.9165,2.9514,2.9852,3.0198,3.0346,3.0345,3.0167,2.9657,2.8475,2.7295,2.698,0.8978,0.9112,0.948,0.9964,1.0581,1.1442,1.2571,1.371,1.4141,1.4421,1.4809,1.477,1.4394,1.3821,1.3656,1.3561,1.3366,1.332,1.3291,1.3252,1.3216,1.3108,1.304,1.2971,1.2915,1.2915,1.2915,1.2915,1.2966,1.4118,1.4617,1.5096,1.5832,1.6382,1.6629,1.7034,1.7659,1.8324,1.92,1.9681,1.9723,1.9699,1.9699,1.9609,1.907,1.8711,1.8583,1.8292,1.8285,1.8448,1.8574,1.8852,1.9339,1.9723,1.9723,1.9723,1.9723,1.9723,1.9723,1.9723,1.9723,1.9717,1.9717,1.9735,1.9723,1.9723,1.9907,1.9997,2.126,2.2282,2.2268,2.2313,2.2313,2.233,2.3173,2.3308,2.276,2.2591,2.2465,2.2398,2.2347,2.2313,2.233,2.2379,2.2943,2.3687,2.4054,2.4459,2.5071,2.5529,2.6093,2.5928,2.5726,2.6992,2.8436,2.873,2.8987,2.8992,2.9038,2.9021,2.8992,2.8987,2.8987,2.9033,2.9104,2.9195,2.9405,2.9684,3.0041,3.0355,3.0197,3.0022,2.9566,2.8401,2.7615,0.9371,0.9739,1.0329,1.0558,1.0696,1.1979,1.3035,1.3922,1.4816,1.5085,1.4873,1.4862,1.46,1.4182,1.4094,1.3997,1.3919,1.3929,1.3938,1.3821,1.3516,1.3467,1.3301,1.3137,1.2915,1.2915,1.2915,1.2915,1.2929,1.4118,1.4617,1.5039,1.5833,1.6513,1.6565,1.7013,1.7396,1.7809,1.8985,1.9409,1.9617,1.9645,1.9723,1.9654,1.9549,1.9235,1.898,1.9124,1.9064,1.8897,1.9235,1.9453,1.9648,1.9723,1.9723,1.9723,1.9723,1.9723,1.9723,1.9723,1.9723,1.9723,1.9723,1.9723,1.9723,1.9723,1.9723,1.9827,2.0999,2.1988,2.2209,2.2313,2.2306,2.3115,2.4026,2.4009,2.3477,2.297,2.2902,2.2465,2.2347,2.2313,2.2347,2.2466,2.2883,2.3413,2.3907,2.4574,2.5408,2.6112,2.6717,2.6772,2.6534,2.7519,2.862,2.8822,2.8987,2.8987,2.8987,2.8987,2.8987,2.8987,2.8987,2.8987,2.9033,2.9099,2.9089,2.9117,2.9745,3.0339,3.0389,3.0231,2.9929,2.9454,2.8533,0.9586,0.975,1.0131,1.0579,1.1132,1.2067,1.3065,1.4108,1.4944,1.5332,1.5225,1.5195,1.4971,1.4664,1.4527,1.442,1.4172,1.41,1.41,1.4085,1.3756,1.3542,1.3396,1.3245,1.2974,1.2903,1.2903,1.2974,1.2929,1.4144,1.4616,1.5017,1.6023,1.6436,1.6543,1.6763,1.6943,1.746,1.8216,1.8765,1.9151,1.951,1.9728,1.9743,1.9752,1.9573,1.9361,1.9693,1.9528,1.9324,1.9663,1.9693,1.9723,1.9723,1.9723,1.9723,1.9723,1.9723,1.9723,1.9723,1.9723,1.9738,1.9774,1.9774,1.9723,1.9723,1.9723,1.9735,2.0311,2.1213,2.1976,2.2231,2.2717,2.4704,2.5431,2.4831,2.4289,2.3789,2.3417,2.2675,2.2313,2.3173,2.3494,2.3441,2.3691,2.3973,2.451,2.5035,2.5789,2.6516,2.7152,2.7286,2.7378,2.818,2.8816,2.8932,2.8987,2.8987,2.8987,2.8987,2.8987,2.8987,2.8987,2.8987,2.8987,2.8987,2.9061,2.9238,2.9875,3.0324,3.0346,3.0373,3.0195,2.9778,2.9135,1.0499,1.085,1.1015,1.1398,1.1916,1.2402,1.3354,1.4551,1.5182,1.542,1.541,1.5386,1.5264,1.5059,1.4971,1.4912,1.4566,1.4552,1.4562,1.4484,1.4147,1.4062,1.3877,1.3525,1.3454,1.3298,1.3311,1.335,1.3436,1.4365,1.5125,1.5811,1.6535,1.71,1.7148,1.7125,1.7279,1.7705,1.813,1.8194,1.8957,1.9582,1.9851,1.9913,1.9914,1.9773,1.9895,1.9878,1.9723,1.9738,1.9723,1.9723,1.9723,1.9723,1.9723,1.9723,1.9723,1.9723,1.9723,2.0157,2.0193,2.0124,2.0049,1.9914,1.9789,1.9723,1.9723,1.9723,1.9768,2.0386,2.1352,2.1722,2.3646,2.5594,2.5695,2.5062,2.4824,2.4317,2.406,2.3274,2.3149,2.3992,2.4762,2.4642,2.4662,2.4918,2.5171,2.5686,2.6249,2.7061,2.7691,2.7831,2.7978,2.8546,2.8889,2.895,2.8987,2.8987,2.8987,2.8987,2.8987,2.8987,2.8987,2.8987,2.8987,2.9021,2.9108,2.9412,2.9726,3.006,3.0299,3.0333,3.0392,3.0044,2.9572,1.1992,1.2923,1.2993,1.2916,1.2977,1.3028,1.3927,1.5279,1.5366,1.542,1.542,1.542,1.5361,1.5391,1.5366,1.5318,1.5259,1.5269,1.5249,1.5152,1.4746,1.4701,1.4492,1.4182,1.3909,1.3964,1.3987,1.3844,1.4125,1.4895,1.5829,1.6869,1.7562,1.7883,1.7866,1.786,1.7989,1.8088,1.779,1.817,1.9135,1.9694,2.0045,2.0257,2.0379,2.045,2.046,2.0297,1.9977,1.9828,1.9753,1.9723,1.9723,1.9723,1.9723,1.9738,1.9753,2.0157,1.9857,2.0397,2.0911,2.0887,2.0862,2.0423,2.0163,2.0178,2.0372,2.0247,2.0204,2.0136,2.0357,2.2284,2.4202,2.4989,2.5371,2.5174,2.5089,2.486,2.4721,2.4466,2.4432,2.5008,2.5887,2.5988,2.5462,2.5656,2.5905,2.6281,2.6943,2.7929,2.8451,2.8565,2.8693,2.8822,2.8987,2.8987,2.8987,2.8987,2.8987,2.8987,2.8987,2.8987,2.8987,2.8987,2.8987,2.9033,2.9082,2.913,2.9246,2.9593,3.0034,3.0333,3.0404,3.0404,3.0102,1.2713,1.3009,1.3009,1.3009,1.3076,1.3614,1.413,1.4584,1.5108,1.542,1.542,1.542,1.542,1.542,1.541,1.542,1.542,1.542,1.54,1.5264,1.5029,1.4877,1.4658,1.442,1.4182,1.4139,1.4149,1.4275,1.4457,1.5245,1.6609,1.7749,1.8187,1.8445,1.8606,1.8594,1.8587,1.8443,1.7947,1.8468,1.9133,1.964,2.0106,2.0497,2.1013,2.114,2.1055,2.0873,2.0578,2.037,1.9935,1.9744,1.9723,1.9723,1.9738,1.9962,2.0926,2.1899,2.0402,2.1091,2.1839,2.1809,2.1919,2.1724,2.136,2.1196,2.1455,2.1375,2.0936,2.0831,2.143,2.3056,2.4261,2.4658,2.5071,2.5325,2.5286,2.5414,2.5305,2.5583,2.5566,2.5718,2.6623,2.6598,2.6149,2.6361,2.6586,2.6846,2.7287,2.8182,2.8856,2.8952,2.8987,2.8987,2.8987,2.8987,2.8987,2.8987,2.8987,2.8987,2.8987,2.8987,2.8987,2.8987,2.8987,2.8987,2.9004,2.9048,2.9115,2.9362,2.9761,3.0121,3.0404,3.0404,3.0404,1.2901,1.344,1.3478,1.3651,1.4004,1.4466,1.4673,1.4771,1.5196,1.542,1.542,1.542,1.542,1.542,1.542,1.542,1.542,1.542,1.542,1.5342,1.5137,1.5122,1.4912,1.4761,1.4722,1.4611,1.467,1.4927,1.5263,1.6398,1.7798,1.8287,1.8598,1.8995,1.9221,1.9258,1.9133,1.9007,1.8881,1.9026,1.9305,1.9635,2.0121,2.068,2.1358,2.1291,2.1489,2.1254,2.1243,2.0887,2.0349,2.0178,2.0327,2.0507,2.127,2.16,2.1889,2.2383,2.1749,2.1939,2.2318,2.2468,2.2752,2.2782,2.2637,2.2473,2.2802,2.2932,2.2183,2.1829,2.2781,2.3659,2.4038,2.4434,2.4925,2.541,2.5642,2.5868,2.617,2.6522,2.659,2.6556,2.6708,2.6708,2.6691,2.6623,2.6606,2.6722,2.7073,2.7626,2.8446,2.8917,2.8958,2.8987,2.8987,2.8987,2.8987,2.8987,2.8987,2.8987,2.8987,2.8987,2.8987,2.8987,2.8987,2.8987,2.8987,2.8987,2.906,2.9309,2.9561,2.9908,3.0228,3.0404,3.0404,1.2764,1.4049,1.4198,1.4584,1.5337,1.5352,1.5337,1.542,1.5396,1.542,1.542,1.542,1.542,1.542,1.542,1.542,1.542,1.542,1.542,1.542,1.5361,1.5312,1.5332,1.5381,1.5161,1.5312,1.5448,1.5549,1.669,1.7657,1.8374,1.8782,1.9338,1.9647,1.9648,1.9673,1.9585,1.9522,1.951,1.9611,1.9661,1.9876,2.0105,2.0574,2.0551,2.0344,2.1007,2.143,2.1789,2.1341,2.0901,2.0666,2.1116,2.1934,2.2951,2.3161,2.2906,2.2892,2.2847,2.2917,2.2692,2.2842,2.3101,2.3295,2.3266,2.3191,2.343,2.3505,2.2787,2.2667,2.3385,2.3591,2.3838,2.3992,2.4251,2.474,2.5109,2.5468,2.5953,2.6333,2.6708,2.6708,2.6708,2.6708,2.6708,2.6708,2.67,2.6725,2.689,2.7278,2.7819,2.862,2.8893,2.8934,2.8987,2.8987,2.8987,2.8987,2.8964,2.8987,2.8987,2.8987,2.8987,2.8987,2.8987,2.8987,2.8987,2.8987,2.9004,2.9104,2.9377,2.9735,3.0015,3.0241,3.0404,1.2924,1.3349,1.3951,1.4673,1.5366,1.542,1.542,1.542,1.542,1.542,1.542,1.542,1.542,1.542,1.542,1.542,1.542,1.542,1.542,1.542,1.542,1.542,1.542,1.542,1.542,1.542,1.5599,1.6197,1.733,1.8261,1.9006,1.9462,1.9785,1.9798,1.9811,1.9811,1.9811,1.9811,1.9811,1.9811,1.9811,1.9888,2.0093,2.057,2.0626,2.0788,2.1197,2.1244,2.1507,2.1408,2.0559,2.0623,2.1262,2.2785,2.3475,2.3535,2.3351,2.34,2.3415,2.34,2.3251,2.3251,2.3445,2.3535,2.3569,2.3584,2.3584,2.3584,2.3584,2.3584,2.3595,2.3591,2.3586,2.3593,2.3595,2.4085,2.4542,2.5031,2.5564,2.5982,2.647,2.6539,2.6505,2.6666,2.6708,2.6708,2.6708,2.67,2.6708,2.6955,2.7121,2.7855,2.8657,2.8827,2.8863,2.8658,2.8489,2.8749,2.8839,2.8905,2.8981,2.8987,2.8987,2.8987,2.8987,2.8987,2.8987,2.8987,2.9015,2.9055,2.9187,2.9504,2.9807,3.0048,3.0244,1.2351,1.3107,1.4258,1.4977,1.5352,1.542,1.542,1.542,1.542,1.542,1.542,1.542,1.542,1.542,1.542,1.542,1.542,1.542,1.542,1.542,1.542,1.542,1.542,1.542,1.542,1.5468,1.623,1.7041,1.7936,1.8794,1.9501,1.9773,1.9811,1.9811,1.9811,1.9811,1.9811,1.9811,1.9811,1.9811,1.9811,1.9875,1.9927,2.0358,2.0509,2.0732,2.067,2.0682,2.1093,2.1386,2.1062,2.1591,2.2294,2.321,2.355,2.3584,2.3565,2.3584,2.3584,2.3584,2.3584,2.3584,2.3584,2.3584,2.3584,2.3584,2.3584,2.3584,2.3584,2.3584,2.3584,2.358,2.3591,2.3586,2.3597,2.3843,2.4022,2.4246,2.4516,2.4671,2.4957,2.4957,2.5275,2.6359,2.6428,2.6708,2.6708,2.6708,2.6708,2.6708,2.6857,2.7099,2.7897,2.8347,2.8334,2.8029,2.7686,2.8057,2.8539,2.8864,2.897,2.8975,2.8987,2.8987,2.8987,2.8987,2.8987,2.8987,2.8987,2.901,2.9121,2.9272,2.9561,2.9821,3.0033,1.1864,1.3289,1.4643,1.5308,1.5396,1.542,1.542,1.542,1.542,1.542,1.542,1.542,1.542,1.542,1.542,1.542,1.542,1.542,1.542,1.542,1.542,1.542,1.542,1.542,1.542,1.5806,1.6532,1.7415,1.8274,1.898,1.9436,1.9721,1.9811,1.9811,1.9811,1.9811,1.9811,1.9811,1.9811,1.9811,1.9811,1.9811,1.9837,1.9837,1.9811,1.9811,1.9811,1.9991,2.0545,2.1057,2.1509,2.2036,2.2677,2.327,2.352,2.3584,2.3584,2.3584,2.3584,2.3584,2.3584,2.3584,2.3584,2.3584,2.3584,2.3584,2.3584,2.3584,2.3584,2.3584,2.3584,2.3584,2.3584,2.3595,2.3606,2.3616,2.3649,2.367,2.3698,2.3752,2.3762,2.3773,2.4476,2.5594,2.6298,2.6564,2.6708,2.6708,2.6708,2.6708,2.6775,2.6816,2.7145,2.7492,2.7678,2.7535,2.7177,2.7284,2.7773,2.8438,2.8947,2.8964,2.8987,2.8987,2.8987,2.8975,2.8981,2.8987,2.8987,2.8987,2.9061,2.9152,2.9345,2.9602,2.9792,1.3092,1.4004,1.4332,1.4815,1.5352,1.542,1.542,1.542,1.542,1.542,1.542,1.542,1.542,1.542,1.542,1.542,1.542,1.542,1.542,1.542,1.542,1.542,1.542,1.542,1.542,1.5878,1.6486,1.7107,1.8234,1.882,1.9267,1.976,1.9798,1.9811,1.9811,1.9811,1.9811,1.9811,1.9836,1.9849,1.9925,1.9899,1.9824,1.9811,1.9811,1.9811,1.9811,1.9811,2.0283,2.0843,2.14,2.1803,2.2118,2.2696,2.2991,2.3047,2.3102,2.3482,2.3461,2.3476,2.3465,2.3584,2.3584,2.3584,2.3584,2.3584,2.3584,2.3584,2.3584,2.3584,2.3584,2.3584,2.3584,2.3584,2.3595,2.3595,2.3616,2.3616,2.3638,2.3649,2.3659,2.3681,2.3847,2.5035,2.6272,2.6513,2.6708,2.6708,2.6708,2.6708,2.6708,2.6708,2.6708,2.6716,2.6939,2.7075,2.689,2.6881,2.7026,2.7718,2.8342,2.8929,2.8987,2.8969,2.8958,2.8946,2.8958,2.8987,2.8987,2.8987,2.8987,2.906,2.9217,2.94,2.9616]}]]